GFSSE_850_rhum_000.txt.gz
RH
59 41 74 79 87 78 75 80 81 82 78 65 54 49 75 77 86 90 85 82 81 86 73 94 89 86 85 90 87 86 81 83 83 73 56 42 37 46 46 78 97 45 47
51 31 49 63 83 73 80 80 82 83 74 70 53 51 79 86 82 76 74 78 83 85 67 70 86 88 89 84 86 85 80 90 64 61 27 37 43 40 42 97 71 58 82
33 27 40 62 67 73 80 82 83 79 60 54 49 90 75 93 82 82 76 90 93 70 50 40 38 53 75 78 75 73 79 76 71 41 25 32 36 44 59 71 59 50 53
28 28 39 60 71 81 81 86 76 54 49 52 58 89 92 86 89 89 91 90 69 60 46 37 36 29 24 40 46 57 55 63 55 48 41 23 31 49 56 82 65 48 42
35 31 37 59 74 79 70 75 67 54 51 52 46 81 85 85 88 79 86 88 74 66 38 31 33 40 38 36 36 36 32 36 29 30 35 40 40 46 51 68 75 58 38
40 41 45 52 63 83 71 74 66 50 50 43 45 73 82 87 83 80 82 78 76 78 39 35 34 32 40 48 49 50 48 37 30 27 23 24 37 44 75 94 77 43 41
40 48 46 56 52 59 67 68 60 54 54 49 61 71 74 83 84 81 78 83 83 57 36 38 40 40 39 40 40 45 43 41 39 37 36 34 33 41 48 88 96 96 66
45 52 60 47 50 51 61 65 52 56 72 59 48 58 60 68 76 75 81 82 70 38 38 39 40 41 40 40 40 41 43 45 46 48 51 51 49 44 47 51 96 94 84
53 54 56 40 40 46 53 49 57 89 92 62 55 43 34 44 67 71 76 63 44 41 40 40 43 44 46 48 53 52 53 51 57 61 63 63 60 62 62 61 74 96 96
56 56 51 38 38 39 38 45 54 72 63 54 49 33 25 35 51 53 41 36 37 40 46 54 59 69 72 75 79 84 85 85 84 82 81 80 81 83 82 76 74 89 95
60 55 48 42 40 42 39 45 53 52 46 49 40 34 20 25 36 34 34 38 47 56 60 66 68 73 79 86 89 90 91 92 90 86 89 86 90 91 90 90 92 90 89
44 43 47 43 45 46 48 53 66 62 50 44 35 41 34 36 42 45 51 60 70 73 75 82 86 88 88 87 86 83 83 86 82 98 92 86 86 91 88 87 85 85 86
29 44 47 44 53 55 54 60 65 61 66 57 62 54 58 52 57 65 75 85 86 83 86 84 87 88 87 85 82 76 67 65 70 69 72 80 83 84 81 82 79 81 82
30 35 47 52 54 63 70 69 76 73 74 63 65 63 61 61 71 80 84 91 96 93 88 87 83 80 79 79 70 68 58 54 55 67 76 67 52 65 74 86 74 77 77
27 32 44 58 66 65 72 78 80 76 81 82 83 83 81 76 82 92 100 100 95 87 87 85 83 76 62 43 37 39 40 40 44 61 75 71 50 50 59 64 71 74 76
24 30 48 62 77 85 88 92 90 86 97 99 92 93 91 92 96 97 95 93 89 84 82 74 51 41 38 38 37 35 32 34 41 45 50 43 43 61 63 64 60 62 64
24 30 52 67 76 83 92 99 95 100 97 98 99 97 98 98 98 97 94 91 85 61 38 39 37 38 34 29 25 22 22 25 29 30 38 57 58 50 48 49 48 54 56
34 38 61 66 70 81 90 98 99 98 99 99 98 97 97 97 99 97 88 49 30 35 36 33 29 25 24 24 24 25 25 24 32 45 43 54 51 47 41 38 37 42 47
45 52 62 67 73 83 92 99 99 100 98 99 99 94 95 96 87 54 31 34 31 27 25 24 24 26 27 26 26 24 23 34 34 26 39 33 25 20 25 28 33 36 35
48 57 63 68 79 83 91 98 98 99 100 100 96 91 82 41 30 34 32 30 33 33 28 27 27 28 24 22 22 20 18 30 18 39 11 13 7 9 15 8 6 6 5
46 44 49 63 81 82 95 98 98 99 99 94 83 35 30 35 35 34 35 41 41 40 33 30 28 25 22 19 18 17 13 11 20 32 8 10 7 8 5 5 4 4 4
50 56 56 74 84 87 88 98 99 95 86 59 30 34 37 36 37 41 46 50 48 42 33 28 25 21 19 15 15 16 20 14 24 11 21 10 16 12 7 6 5 6 6
62 71 74 85 84 94 100 100 97 80 44 31 36 37 38 39 45 50 52 51 46 36 30 24 21 18 17 16 12 16 34 42 29 24 14 21 14 14 10 10 10 16 17
74 86 90 93 98 96 93 88 72 51 31 36 38 38 38 46 51 53 52 50 41 32 26 21 16 16 16 14 9 13 20 28 39 37 25 14 25 16 13 13 16 22 22
77 85 88 87 89 83 65 60 42 30 34 38 38 38 44 50 52 52 50 47 38 30 24 20 19 17 12 10 14 17 19 21 26 39 44 39 27 18 15 24 25 23 22
83 84 88 89 78 68 54 40 32 32 35 36 38 43 48 51 52 50 48 44 35 28 25 22 17 10 9 14 19 21 23 25 27 31 39 44 45 39 44 39 32 32 44

GFSSE_850_rhum_003.txt.gz
RH
44 52 82 95 86 87 85 78 79 76 80 59 45 52 53 63 87 90 86 79 84 79 78 88 88 86 86 92 83 83 79 81 82 76 69 46 41 45 55 58 44 87 41
36 36 64 91 86 79 77 81 80 84 81 62 46 90 90 73 80 76 66 71 79 80 62 57 85 86 85 88 89 88 83 76 59 68 39 36 44 44 42 91 77 69 61
32 28 50 70 89 84 76 83 79 86 75 56 45 72 79 91 80 80 74 81 72 68 55 49 48 53 64 75 75 74 70 65 64 55 49 35 41 45 48 88 81 55 75
25 24 34 54 63 66 84 84 87 75 55 54 61 97 96 84 90 90 93 83 69 64 49 46 42 37 28 39 42 38 47 48 39 42 46 39 39 48 58 94 91 65 59
27 26 33 45 58 78 76 76 71 60 51 52 55 87 90 86 87 81 86 79 83 74 40 39 37 42 41 40 38 37 34 28 24 24 27 33 44 55 63 97 98 99 92
32 29 33 48 61 90 66 63 66 52 49 45 42 77 82 82 82 82 83 82 85 66 40 38 39 37 39 40 39 42 42 40 38 39 39 32 30 34 64 86 98 97 86
36 36 36 43 55 69 60 64 64 50 39 40 50 67 80 83 81 81 81 78 84 56 39 39 40 40 40 39 40 42 50 46 48 52 56 58 55 46 44 53 96 96 98
39 41 42 39 48 62 61 63 60 49 47 43 46 58 61 76 81 80 81 86 80 41 39 40 41 43 44 44 47 49 52 53 56 66 70 72 74 66 65 59 60 92 98
53 50 47 45 44 52 54 58 55 53 67 48 43 40 40 53 68 70 72 69 45 38 40 44 55 62 69 73 74 76 80 84 83 82 82 82 82 83 86 87 82 87 97
59 58 54 48 42 45 46 50 52 80 78 61 55 39 33 38 54 61 54 38 38 44 56 70 72 79 83 88 88 90 89 86 87 83 84 86 90 91 86 86 85 86 90
62 63 61 51 39 48 44 48 59 66 65 63 58 37 28 32 37 34 33 37 51 68 76 85 87 87 88 89 89 88 85 81 82 78 78 77 86 84 85 83 80 83 84
54 54 60 54 42 44 47 48 58 60 63 59 52 44 34 36 37 41 47 54 74 78 87 90 88 88 88 85 83 80 75 70 67 72 71 78 81 78 80 78 83 84 83
33 49 53 52 52 50 53 54 68 77 76 64 54 57 56 49 51 60 62 72 81 89 100 94 88 85 83 80 76 72 58 58 52 53 63 68 70 59 52 68 86 84 80
27 37 48 59 59 61 67 70 80 78 67 65 76 78 74 67 74 74 81 88 94 93 89 88 84 84 82 78 64 46 37 38 39 39 47 63 74 69 50 57 61 70 71
31 33 42 59 65 69 76 82 84 78 78 81 84 85 79 84 89 86 96 97 95 92 84 84 83 76 50 34 33 36 36 33 31 35 43 51 55 48 48 53 63 73 72
29 25 35 54 69 79 85 93 91 89 88 93 91 92 98 100 99 98 97 91 89 88 81 68 44 36 36 37 34 28 22 21 23 27 32 40 49 51 52 51 54 55 61
28 25 30 49 70 88 92 98 100 99 98 97 98 98 98 99 98 96 92 89 86 66 35 34 36 35 28 23 21 20 23 25 26 29 40 48 51 50 46 42 40 43 47
28 27 30 53 75 93 100 98 98 98 98 96 96 96 97 97 98 97 90 65 31 34 31 26 23 20 20 20 20 22 23 25 28 38 42 43 42 38 33 34 34 34 35
31 30 36 57 77 94 100 98 99 98 95 93 92 95 94 92 92 83 34 32 31 30 31 30 26 26 25 22 21 19 20 24 38 24 24 19 19 12 14 20 15 10 10
40 44 56 72 80 85 91 98 99 99 96 97 96 96 92 86 35 32 33 34 37 41 38 32 28 27 24 22 21 18 16 26 30 17 25 11 13 7 13 6 5 5 4
47 57 69 76 76 77 95 96 96 92 97 98 96 91 71 31 34 36 38 45 47 43 32 30 27 25 22 22 20 18 12 14 10 24 23 10 8 7 12 5 6 5 4
41 47 60 72 74 95 94 95 97 96 97 96 83 42 33 36 37 44 49 49 47 39 31 27 24 21 20 18 17 15 13 13 16 26 11 14 10 10 6 6 5 5 6
43 44 49 60 86 99 96 95 93 97 94 69 35 34 37 38 46 51 52 51 47 36 28 25 21 19 18 16 13 17 19 26 18 16 12 12 11 8 7 6 6 7 10
46 51 59 73 99 100 100 97 96 91 80 42 35 37 37 44 50 52 52 50 46 35 28 26 23 21 16 12 13 15 19 23 25 28 17 10 12 10 9 8 8 10 12
58 61 73 97 100 99 100 100 99 91 54 36 37 38 40 49 52 52 50 50 46 36 30 27 23 17 11 13 17 19 18 17 19 33 35 19 11 11 12 13 13 10 12
68 77 91 99 100 99 95 98 88 62 36 36 38 38 45 50 52 51 49 50 45 36 30 26 16 10 12 16 18 19 19 22 26 31 40 38 37 27 22 15 17 18 19

GFSSE_850_rhum_006.txt.gz
RH
35 40 87 83 88 86 88 80 76 66 75 60 47 57 79 71 80 89 89 84 83 69 55 71 88 84 88 84 86 83 86 84 80 66 58 41 31 40 52 81 67 48 66
30 37 90 94 92 89 83 78 76 76 84 62 46 96 82 71 88 89 77 68 66 58 52 47 83 82 87 92 96 90 88 85 67 60 56 34 42 45 47 57 99 71 73
23 34 82 88 90 80 72 76 75 80 83 58 51 90 92 85 77 73 68 74 70 66 54 44 45 52 55 72 81 76 67 59 43 51 50 36 43 48 51 59 98 76 80
23 30 45 89 78 75 68 77 77 82 62 55 59 77 88 89 86 89 90 80 77 53 40 37 40 36 28 35 39 33 29 32 28 33 34 44 41 45 48 77 98 93 73
23 26 36 79 69 64 72 75 73 59 51 53 71 95 88 84 84 79 71 82 80 55 39 35 32 33 34 34 35 35 36 34 32 31 27 26 26 36 51 98 98 98 96
24 27 28 38 51 73 68 62 62 52 44 47 47 85 89 83 82 81 82 83 84 48 38 37 37 37 37 39 41 41 42 43 44 48 50 50 46 40 34 50 70 97 99
31 34 30 38 52 69 64 57 54 45 35 36 40 75 87 87 84 87 80 78 85 66 45 45 45 45 43 43 44 46 47 51 50 58 66 69 72 68 59 50 48 91 98
43 41 38 38 50 62 65 62 59 49 40 38 51 64 81 84 83 83 83 82 89 57 48 50 51 52 56 58 66 69 74 80 80 82 81 79 78 77 72 69 68 65 65
52 52 46 41 43 54 65 69 65 55 56 44 45 53 58 69 78 76 73 74 63 46 48 59 69 76 80 84 87 88 88 89 87 87 87 88 94 92 86 88 84 84 85
60 59 58 57 49 43 53 69 68 62 79 62 54 48 38 44 60 66 68 50 42 48 64 72 76 82 82 82 86 86 87 84 80 78 78 87 94 92 86 84 84 83 78
60 64 64 64 60 48 50 60 68 70 83 79 72 48 34 35 48 50 45 42 54 66 73 82 86 86 86 83 83 84 82 78 71 66 73 69 76 84 83 83 82 81 83
48 57 63 64 64 57 57 60 65 72 71 66 67 48 31 32 41 47 48 52 69 80 89 88 84 86 84 83 80 79 77 67 62 56 55 64 68 66 63 62 72 87 93
40 47 54 59 65 64 59 61 63 72 75 74 70 50 46 40 45 58 64 77 86 88 99 93 85 82 83 83 80 77 61 45 40 39 42 46 60 68 69 56 49 66 69
36 41 52 61 66 67 64 66 65 76 89 81 73 66 69 66 70 81 83 94 91 97 91 85 85 85 84 73 50 37 35 35 36 34 33 38 49 58 60 52 70 78 71
34 33 37 51 66 70 70 78 80 91 88 86 88 86 84 83 86 88 98 98 94 89 90 87 83 59 42 36 36 36 33 28 24 22 24 31 40 46 52 65 73 73 71
31 31 31 34 57 73 77 86 90 95 94 94 91 93 98 96 98 100 98 94 86 86 88 65 35 33 34 33 28 23 21 21 23 26 31 41 48 50 48 48 49 51 53
27 30 30 29 45 69 84 94 99 100 99 98 98 96 97 96 97 95 90 87 90 66 33 33 30 27 23 20 18 19 21 24 25 31 39 43 46 47 46 45 42 39 40
30 29 29 28 38 68 90 100 100 97 96 94 91 95 93 96 96 94 93 86 34 32 31 29 26 23 20 19 18 18 18 19 24 33 34 34 37 36 29 26 29 28 26
30 29 29 31 46 75 92 99 96 96 99 93 92 93 93 95 92 90 74 32 33 35 36 32 25 23 22 20 19 17 16 18 24 35 26 17 13 14 8 14 12 7 7
29 30 28 36 60 80 93 98 96 95 99 96 94 100 91 92 86 36 33 36 41 40 33 25 23 24 23 22 20 18 14 15 27 37 21 25 13 13 8 11 11 6 6
32 31 33 42 71 80 85 96 98 98 100 100 100 100 92 83 32 36 39 45 45 39 29 22 23 24 24 24 21 17 13 12 14 11 22 30 12 13 8 7 6 5 5
38 35 39 54 78 78 88 98 95 91 93 94 98 88 66 33 37 41 48 49 46 41 33 25 24 26 26 22 16 15 14 13 14 17 10 12 10 9 9 7 7 6 5
44 37 45 64 90 87 99 99 98 92 90 95 87 70 35 38 41 50 51 51 48 45 39 30 27 27 24 16 13 17 17 20 18 15 12 12 12 10 10 9 9 8 7
38 45 49 62 87 99 89 98 91 83 86 87 68 38 37 40 49 51 52 51 51 49 43 35 29 24 16 13 14 16 18 21 21 23 17 13 13 12 11 11 10 9 8
43 45 50 56 76 92 88 94 94 90 88 81 43 37 39 45 51 52 52 52 53 51 46 37 26 18 12 13 16 18 16 15 16 30 24 17 14 14 14 13 12 12 11
47 50 59 67 90 90 97 96 94 90 87 64 38 39 39 48 51 52 51 52 54 52 46 35 22 14 12 14 18 18 17 19 20 28 36 31 35 26 16 16 15 16 17

GFSSE_850_rhum_009.txt.gz
RH
30 42 81 90 84 84 84 74 66 65 69 58 42 46 70 76 80 85 90 91 83 74 62 57 71 85 94 85 90 84 85 86 82 77 42 26 25 26 34 96 89 84 62
27 37 86 87 83 83 81 71 70 69 75 55 47 94 83 79 82 84 84 78 68 56 47 41 68 77 89 87 87 86 87 85 78 50 40 33 32 34 39 58 96 87 78
24 33 79 87 93 82 77 69 69 70 68 48 88 95 73 68 73 72 66 63 62 53 44 38 41 54 60 86 90 84 71 56 36 29 29 33 33 37 44 52 93 92 64
25 30 61 96 92 73 70 72 71 73 52 46 57 86 78 88 86 84 85 75 66 43 34 36 36 34 28 38 46 37 30 26 22 21 22 28 36 37 40 82 77 92 80
25 38 62 86 70 70 64 72 73 59 48 49 80 96 86 83 80 66 77 79 75 47 42 40 37 38 39 38 38 37 40 40 38 40 39 32 28 26 29 38 90 88 97
22 35 52 97 72 57 62 65 67 52 43 48 64 92 86 84 82 80 80 83 81 57 46 46 46 43 42 44 46 48 74 81 51 55 58 62 60 55 45 35 43 61 94
24 33 49 92 68 63 61 60 62 48 38 41 55 85 85 85 88 86 82 79 81 58 48 48 48 47 46 47 49 50 52 59 56 65 71 70 71 70 65 61 53 51 92
30 32 42 62 61 76 66 61 57 47 35 38 51 79 86 84 84 81 83 79 81 57 48 49 57 66 70 74 76 77 77 79 78 78 77 77 78 72 72 77 82 73 68
40 38 43 51 70 90 69 62 58 48 43 39 50 61 78 82 82 82 73 75 68 48 50 69 72 78 77 82 84 81 82 80 81 77 74 72 75 77 78 81 83 83 78
48 51 55 57 71 88 67 68 65 55 56 47 44 45 48 60 70 72 70 66 48 48 67 74 79 84 81 86 87 84 84 82 79 74 70 70 68 77 77 84 84 81 88
58 60 67 70 80 77 66 68 69 66 76 70 59 45 38 39 53 63 61 45 48 66 76 78 82 84 84 81 80 78 76 72 63 58 57 56 58 64 72 76 76 77 82
49 58 68 71 72 75 67 73 67 66 69 68 66 54 35 32 47 46 43 48 67 77 80 86 88 82 78 80 77 77 76 62 46 40 38 39 42 50 57 61 55 52 71
43 54 60 65 74 77 68 68 71 66 67 65 66 58 43 41 47 50 58 66 82 84 98 93 82 81 80 76 67 49 39 34 34 35 35 34 35 40 53 64 77 73 66
32 39 48 58 69 78 75 66 72 68 74 80 76 50 60 56 59 69 83 93 93 94 96 89 86 85 66 41 36 34 34 35 32 28 25 25 28 38 69 84 81 71 73
33 33 35 41 53 71 77 71 73 70 81 90 75 70 75 79 82 89 98 98 93 90 88 88 81 52 34 34 32 28 23 21 20 20 22 27 37 44 52 62 61 67 76
31 31 32 34 38 58 75 76 76 78 92 84 82 84 92 98 98 100 96 93 88 85 86 60 32 32 28 25 21 19 17 18 20 24 30 38 45 48 48 47 47 47 49
29 29 29 30 32 40 68 82 87 93 95 93 93 97 97 97 95 94 93 87 88 77 33 31 30 28 25 22 19 18 18 19 21 29 35 40 42 42 42 42 43 42 40
29 29 31 30 30 34 67 84 90 95 93 94 93 92 91 92 95 91 89 90 61 31 33 33 31 26 20 18 17 18 16 16 22 30 29 26 26 26 22 16 16 18 16
31 30 30 31 30 33 72 80 94 96 91 93 89 92 90 90 90 90 90 53 33 35 36 30 21 18 18 18 18 17 16 15 22 33 34 27 20 14 14 11 9 12 10
32 31 32 32 33 37 69 91 98 95 93 99 94 94 89 88 90 88 43 35 39 40 32 24 19 20 20 19 17 15 14 13 20 34 43 24 19 26 14 12 9 8 6
34 32 32 33 37 42 68 91 94 94 100 100 99 99 95 91 88 34 37 43 45 40 36 30 24 21 19 17 15 12 12 12 14 20 20 18 11 19 12 10 9 9 9
36 34 35 39 43 50 64 83 88 90 98 100 100 100 99 82 41 38 45 49 48 46 44 40 34 26 21 18 16 14 13 13 17 12 11 11 11 11 12 12 11 10 10
36 35 41 44 53 67 64 87 87 97 100 100 100 99 77 50 38 42 50 50 50 50 50 47 42 32 23 17 15 14 18 22 15 12 13 13 14 14 14 14 13 13 12
35 39 49 57 63 65 80 93 83 89 90 93 86 81 73 38 42 49 51 51 52 53 53 51 44 35 23 17 14 14 15 16 23 30 20 20 17 17 17 16 16 15 15
37 40 49 64 69 88 98 89 91 84 88 79 81 82 39 40 46 51 51 51 53 54 54 52 44 31 21 15 15 16 15 16 18 24 31 22 22 21 21 20 19 17 16
41 46 51 56 77 100 82 85 93 88 88 83 81 45 40 42 49 51 51 51 54 55 55 52 42 28 18 15 17 17 18 21 22 27 45 43 45 38 26 24 20 20 20

GFSSE_850_rhum_012.txt.gz
RH
34 53 59 77 72 67 65 59 50 55 55 52 44 56 75 77 81 83 85 88 85 76 60 46 64 91 71 97 98 84 83 81 79 71 49 30 18 22 26 41 82 95 92
27 59 71 80 76 73 72 65 64 67 68 47 56 84 70 83 90 86 84 79 61 57 49 40 72 82 83 87 84 87 87 85 80 57 34 31 29 29 30 40 71 95 62
33 70 70 89 79 78 70 65 64 66 57 44 93 80 80 81 82 77 69 55 55 50 40 40 47 61 80 89 88 83 85 68 41 24 26 73 41 29 30 40 80 77 54
39 82 93 97 94 86 70 69 69 69 51 45 92 79 74 80 82 68 60 64 51 40 37 38 37 32 37 49 61 51 34 29 26 25 67 66 66 31 33 41 63 81 78
60 70 87 98 98 86 71 71 74 62 45 45 69 86 80 78 68 74 83 78 67 45 43 42 42 44 43 41 41 46 81 66 44 67 87 61 42 58 26 36 74 89 90
71 80 59 49 89 90 70 71 69 54 44 44 78 86 79 82 89 85 81 75 70 48 46 46 46 44 45 46 50 52 82 95 57 95 90 88 61 60 53 40 40 64 80
62 87 58 61 98 92 78 71 64 49 44 43 82 85 83 82 85 84 82 80 76 55 49 48 48 52 53 53 57 54 54 58 57 94 86 81 82 66 59 58 61 53 52
40 91 76 78 98 91 86 66 56 46 34 37 73 84 85 83 80 85 85 82 78 56 47 52 59 70 70 72 74 73 73 74 94 100 97 96 81 73 68 71 97 90 74
64 80 76 78 94 92 88 73 58 48 35 39 58 80 81 81 82 86 85 76 73 49 48 63 71 80 79 79 78 78 77 77 83 92 76 93 82 70 72 85 84 88 94
52 70 90 90 96 91 89 83 68 53 41 36 43 53 66 75 76 76 73 69 58 46 61 70 77 84 84 84 81 77 72 70 72 62 68 69 58 53 56 75 78 83 83
59 56 74 93 96 96 98 90 77 62 62 46 40 38 39 48 59 66 63 57 45 55 67 75 80 84 82 78 75 72 73 69 56 51 43 36 37 42 55 59 60 62 65
69 56 52 82 99 98 95 93 85 73 76 72 57 44 39 35 44 57 51 44 55 71 77 82 86 82 77 78 74 60 48 43 36 34 38 34 34 35 39 48 61 62 54
73 79 53 58 74 93 97 99 98 96 96 95 65 51 34 29 42 48 61 68 88 82 85 89 87 81 80 68 42 34 32 33 34 36 36 29 27 30 61 83 74 71 78
73 76 53 53 60 71 94 94 99 97 95 96 84 62 43 39 42 54 95 91 93 87 90 88 85 82 68 33 32 32 29 25 22 23 36 23 30 42 62 70 64 78 74
58 46 42 46 44 62 72 96 98 99 94 98 87 70 67 66 80 93 84 86 89 88 87 84 82 45 31 30 26 22 19 18 18 24 44 31 38 44 50 53 63 60 61
49 42 40 38 38 46 64 79 93 99 98 98 97 69 75 96 96 87 92 93 90 86 85 66 31 30 28 25 22 18 16 17 19 24 36 34 42 46 47 47 46 45 44
37 46 41 37 35 38 60 74 95 96 94 98 98 93 96 90 90 92 92 90 87 87 44 31 32 30 25 19 17 17 16 17 20 26 33 38 39 39 38 37 34 32 33
36 33 31 32 33 34 48 87 98 95 96 96 97 89 89 89 90 90 87 86 87 39 33 33 28 20 16 16 17 17 17 17 22 27 28 27 25 20 19 16 12 9 9
37 36 31 32 32 43 93 98 90 96 92 90 93 87 86 87 90 89 87 89 43 35 36 28 21 16 14 15 16 16 15 22 30 31 33 30 28 25 21 18 13 10 8
35 33 31 31 33 40 93 99 93 94 93 92 91 86 90 90 88 89 87 52 36 41 35 32 28 24 19 15 14 14 14 19 23 34 39 39 16 14 17 20 14 10 11
37 34 32 32 33 44 73 71 79 90 91 94 95 94 99 90 86 88 54 36 44 43 42 41 38 34 26 18 15 24 19 13 19 43 24 16 14 12 11 13 13 12 12
38 37 35 33 34 45 46 67 60 75 95 95 96 100 100 94 86 75 36 44 48 47 48 48 46 40 32 22 16 23 26 26 29 20 17 13 14 14 15 15 15 15 15
42 37 37 34 38 50 60 82 82 83 90 100 100 100 99 91 71 37 42 49 49 50 51 52 51 46 34 24 17 19 24 23 24 21 24 18 20 18 18 18 17 17 16
38 38 38 38 43 58 71 70 70 69 89 98 100 99 98 72 43 40 48 49 50 52 53 54 53 48 37 23 22 16 15 17 26 27 30 31 30 33 34 30 22 18 17
32 34 38 44 55 56 61 74 88 85 92 94 99 100 84 54 40 44 50 50 51 53 54 55 54 47 37 24 19 17 18 27 36 42 35 32 36 39 42 44 41 36 40
46 34 43 51 63 65 75 94 96 85 79 93 99 91 64 52 42 48 50 50 51 53 55 56 54 48 34 23 19 18 20 31 36 40 40 39 42 41 42 44 44 43 44

GFSSE_850_rhum_015.txt.gz
RH
71 37 70 74 64 62 61 51 53 52 49 50 60 75 78 78 80 82 83 83 83 74 58 38 48 89 80 99 99 94 85 84 78 69 59 33 21 17 22 30 46 89 95
68 42 46 60 65 63 63 59 60 66 63 42 40 44 73 88 91 76 84 76 62 50 41 33 60 86 80 95 93 83 87 85 76 53 30 37 45 31 29 44 75 94 94
79 83 44 58 67 68 68 67 66 66 46 76 91 82 72 88 86 82 72 52 44 36 32 35 46 72 82 86 84 75 77 67 33 22 36 75 76 37 33 41 66 81 64
76 93 78 63 75 75 70 69 66 63 44 69 78 59 72 72 64 62 53 55 44 38 33 34 34 34 43 71 75 65 38 31 27 36 75 66 70 59 27 32 44 64 85
74 88 89 64 86 79 72 74 71 52 42 50 76 72 64 69 71 70 76 68 55 42 40 39 39 39 35 35 36 38 88 85 48 86 89 94 56 84 44 28 32 73 87
73 80 88 94 99 80 71 74 73 46 40 57 76 78 76 77 76 80 81 74 62 46 45 45 44 44 42 43 45 47 47 50 61 90 93 94 93 72 60 53 46 38 44
70 87 82 94 92 90 70 70 64 44 39 54 80 81 83 84 87 84 78 79 77 52 48 48 50 54 56 61 62 60 63 66 72 96 94 97 98 75 66 61 71 92 69
70 83 94 92 97 99 87 77 62 42 33 50 78 81 81 79 84 81 83 82 76 58 48 60 64 70 72 82 80 72 70 70 76 95 95 97 90 74 68 76 82 82 83
70 79 97 93 96 95 90 87 67 49 34 42 71 78 78 79 79 87 90 79 66 49 48 67 77 80 78 79 77 74 66 62 65 84 73 83 74 56 51 59 84 84 86
70 76 81 94 97 80 85 85 69 54 34 38 56 64 70 76 79 83 77 67 53 41 52 66 77 77 76 75 70 66 63 63 70 68 64 62 43 40 43 51 59 60 65
72 76 76 79 88 99 87 81 72 58 45 35 37 40 48 74 71 71 62 55 41 44 61 68 72 79 76 64 64 59 50 59 55 52 51 42 33 34 36 41 47 52 56
71 74 77 78 84 98 94 90 80 75 63 49 43 37 69 76 66 86 50 46 41 55 69 73 75 78 72 71 63 40 37 31 33 39 45 38 32 32 37 70 51 57 69
62 71 80 84 84 94 94 99 95 92 98 95 95 95 80 37 35 45 50 42 70 80 85 82 82 78 79 69 34 30 31 29 32 40 46 34 23 79 92 80 74 80 74
55 65 78 88 96 96 100 99 92 85 89 94 95 95 83 69 55 85 87 96 98 87 82 80 80 78 57 30 29 25 24 22 32 38 47 29 27 42 49 61 62 61 62
50 60 73 87 73 96 100 100 93 84 85 90 94 96 88 83 77 87 94 87 84 82 78 78 79 45 30 28 25 22 21 19 29 38 46 29 33 39 41 47 50 52 53
44 56 66 81 93 73 98 100 98 89 87 88 94 99 85 88 91 94 80 81 85 83 80 81 34 30 27 22 19 20 20 26 23 32 49 30 36 39 42 43 44 43 43
33 44 55 72 86 82 53 94 99 89 87 92 96 98 91 91 99 82 86 88 87 85 80 31 31 26 17 14 21 22 20 22 29 37 40 47 37 36 37 35 31 26 21
31 32 42 57 78 94 43 75 90 95 91 97 98 97 97 97 83 87 89 84 85 82 32 31 26 19 15 14 14 20 26 23 31 35 35 37 32 27 20 18 14 12 12
32 34 34 41 59 79 49 87 98 97 96 98 98 99 91 85 82 83 82 83 86 38 34 31 29 25 21 16 13 15 15 23 36 33 38 35 31 32 24 14 15 19 17
30 34 34 41 44 61 89 94 96 98 98 99 98 88 83 84 84 84 86 87 62 35 38 37 37 35 30 23 15 20 19 27 36 39 41 39 33 18 20 14 12 14 14
31 34 38 38 50 56 74 90 93 95 99 100 96 83 81 87 89 87 86 81 35 42 42 44 45 43 38 30 20 22 32 20 32 49 48 26 30 26 20 24 17 16 15
36 39 40 44 52 63 77 74 93 100 100 100 91 83 86 92 90 85 84 38 42 46 47 48 49 48 44 36 23 27 30 28 32 30 30 29 29 23 25 23 20 19 18
38 38 40 48 60 73 71 95 99 100 100 99 96 87 94 98 92 83 58 37 47 48 50 51 52 52 47 40 28 19 27 27 23 23 25 29 28 31 27 29 28 24 22
36 40 43 53 66 79 91 86 83 59 86 97 91 92 100 100 90 72 39 43 49 50 51 53 54 54 51 41 31 24 18 18 31 30 28 32 31 29 35 35 31 23 21
30 38 47 60 74 86 85 97 99 91 96 97 93 100 100 94 83 52 42 47 49 51 52 53 55 55 53 42 30 22 22 30 36 39 40 36 36 37 39 41 42 42 38
30 36 45 70 79 86 93 99 85 93 87 88 92 100 98 94 61 45 44 48 50 51 52 54 55 56 52 42 30 23 22 26 32 42 42 41 43 40 41 39 39 35 39

GFSSE_850_rhum_018.txt.gz
RH
53 33 33 30 39 47 48 54 56 59 65 72 77 80 81 86 82 76 73 74 76 70 54 33 56 76 99 98 99 92 81 86 73 65 51 31 26 21 18 21 53 88 98
34 38 44 36 42 42 41 46 52 51 47 43 41 65 74 83 84 81 81 70 52 38 30 31 61 83 78 80 79 82 81 68 51 27 28 56 53 34 29 35 54 82 90
46 37 44 48 47 49 54 58 60 54 38 84 91 66 88 90 86 82 65 45 32 29 30 31 48 80 77 80 83 70 67 36 24 44 63 69 74 62 34 33 40 57 62
70 43 35 42 48 55 55 60 62 48 43 61 70 78 78 78 72 70 40 40 36 34 29 30 29 30 41 60 61 48 27 30 57 78 82 68 70 69 57 26 31 47 78
84 52 39 42 54 57 53 58 57 42 49 64 63 68 71 57 56 54 58 54 42 40 39 37 35 33 30 29 31 33 38 45 78 90 91 90 76 74 64 54 38 37 47
84 85 67 58 71 67 58 57 49 38 43 69 62 62 62 66 71 71 69 67 56 46 46 44 42 41 41 43 45 48 52 56 60 91 88 97 84 85 72 60 62 68 59
80 87 84 59 92 71 60 60 46 30 40 64 70 71 79 80 85 77 71 61 56 45 45 51 55 59 61 66 65 65 63 65 76 90 94 94 95 90 76 70 84 80 80
74 84 84 73 90 76 57 60 46 31 35 64 73 77 77 78 85 81 76 63 55 43 45 56 64 73 77 75 72 68 65 61 75 92 91 84 87 77 57 75 84 84 86
76 86 74 83 90 92 68 51 49 32 31 52 65 72 76 76 79 79 80 70 55 42 48 65 74 72 73 74 69 62 59 60 66 65 68 74 69 44 41 48 51 66 72
74 82 84 80 86 87 67 52 37 36 29 40 51 60 73 74 81 90 86 64 48 40 52 61 66 68 72 64 60 59 53 57 59 62 55 53 44 33 34 35 40 51 54
72 78 83 80 82 94 75 68 52 32 30 35 43 51 62 71 74 72 60 51 44 40 53 61 64 70 66 61 60 43 37 36 32 40 33 32 34 34 37 40 43 48 76
70 75 77 84 92 95 98 78 65 44 33 29 34 34 42 78 72 57 58 52 40 44 56 63 65 68 68 72 67 34 30 30 31 36 33 34 35 29 81 69 72 70 68
67 73 76 77 81 88 96 96 89 64 54 41 38 47 62 78 67 65 57 42 48 60 60 68 64 66 69 51 29 28 27 24 24 32 33 30 37 98 95 92 67 68 71
58 67 74 79 82 86 92 98 90 79 72 86 77 81 77 45 40 52 74 88 91 82 78 75 76 71 45 29 27 23 22 20 26 28 30 34 25 36 52 47 44 47 50
51 59 69 79 84 87 89 96 95 93 88 92 92 87 80 57 48 62 90 95 91 77 72 72 73 47 29 25 21 17 16 16 22 30 33 34 28 33 39 42 46 45 45
38 51 64 75 80 86 92 96 96 89 86 87 91 90 90 75 68 91 92 84 75 74 76 76 47 28 25 16 13 14 16 18 19 28 37 31 30 35 37 38 38 37 35
32 43 58 71 78 74 86 98 97 91 85 87 89 93 91 87 87 90 87 80 81 82 78 53 29 25 17 13 12 15 16 18 20 28 32 33 28 30 32 31 23 17 14
31 32 47 62 77 79 59 89 97 96 87 86 90 85 90 90 92 93 83 87 86 84 71 30 29 25 22 17 13 12 14 16 22 30 32 32 30 26 23 26 22 15 15
30 31 36 50 60 72 63 56 98 96 84 86 90 86 91 92 94 80 83 87 84 81 33 34 32 33 30 25 19 14 14 15 29 29 30 28 25 29 29 18 14 12 12
28 31 31 37 55 66 70 65 90 84 92 91 88 89 90 89 84 86 82 83 84 58 36 37 39 40 38 32 23 18 18 17 28 28 35 38 32 25 21 17 14 15 16
26 27 31 34 35 50 77 79 76 88 89 93 95 98 91 82 80 86 82 84 85 34 41 42 45 45 44 39 27 19 25 26 24 28 46 44 25 25 21 18 17 19 19
31 27 29 34 37 37 62 76 68 82 88 91 96 99 94 82 79 82 77 81 62 39 44 47 48 48 48 45 34 23 25 27 32 28 24 27 29 27 24 25 22 22 21
33 33 31 32 37 42 45 82 90 89 88 93 95 99 95 94 84 88 80 80 37 44 47 49 51 51 51 49 42 28 21 26 24 21 24 24 26 30 30 28 26 27 26
28 33 36 39 39 44 53 75 66 60 79 95 99 100 100 100 96 92 83 65 36 46 49 51 52 53 54 53 47 34 24 20 18 20 24 26 26 30 29 27 29 27 27
23 30 33 37 41 48 61 74 68 78 86 93 100 98 100 100 99 89 80 51 42 47 50 51 52 54 55 55 48 36 26 23 24 34 34 29 27 26 26 29 31 36 32
25 22 35 37 41 57 73 84 80 74 96 92 100 99 99 97 92 82 72 46 46 48 50 52 53 55 56 56 49 37 28 25 26 32 36 30 31 26 30 28 25 32 36

GFSSE_850_rhum_021.txt.gz
RH
75 51 26 17 25 34 44 48 53 61 68 73 82 83 88 83 80 73 70 67 65 62 48 29 78 97 93 96 88 73 77 69 61 54 39 28 27 20 19 18 51 76 93
56 44 19 17 20 22 26 31 35 38 41 51 78 81 85 77 77 73 69 51 37 29 24 32 74 81 78 75 72 78 65 40 25 30 45 48 51 42 25 30 47 62 65
43 58 31 23 22 24 30 33 38 34 34 43 39 71 81 87 80 74 41 28 26 27 29 39 70 74 81 79 78 58 36 24 47 60 61 51 53 56 36 26 29 42 57
48 46 33 31 29 30 32 28 26 25 38 76 68 82 90 88 80 58 33 33 33 30 29 27 29 43 44 46 38 25 31 52 74 82 78 70 62 65 57 41 30 34 50
48 40 35 33 35 36 38 27 22 22 32 47 72 69 71 64 71 44 43 40 39 38 34 31 30 29 29 31 35 41 43 68 76 78 87 95 80 75 70 60 51 44 44
62 42 40 43 43 44 46 32 24 23 36 47 48 61 52 53 59 53 49 43 39 39 40 39 40 43 46 49 54 56 60 64 88 93 94 95 86 94 82 63 74 73 71
73 57 52 51 50 50 48 32 25 25 42 51 53 52 57 63 67 60 53 44 38 39 43 49 54 59 62 59 62 62 63 72 82 88 86 91 84 82 70 60 80 83 86
79 79 79 58 50 52 49 32 24 25 35 54 62 72 76 84 82 69 56 46 38 38 46 50 62 65 66 69 66 63 62 74 90 91 87 86 78 73 48 84 93 82 81
80 84 87 77 69 64 53 37 24 20 29 46 60 68 73 78 78 67 57 46 37 37 45 54 56 61 65 64 61 60 60 66 68 59 62 65 64 54 35 39 52 52 52
77 81 78 79 72 66 60 45 31 21 22 36 56 66 68 74 86 78 67 48 39 37 46 51 54 62 63 57 56 43 52 54 45 48 56 50 47 42 34 38 39 72 87
71 76 79 70 70 69 72 58 44 31 23 28 39 60 68 66 78 80 64 48 41 39 49 56 60 61 62 62 61 45 31 35 32 32 33 34 38 40 68 79 76 88 90
70 76 79 82 74 81 80 68 51 40 28 31 35 44 59 62 56 62 58 54 43 45 54 62 60 66 67 66 54 30 28 28 26 28 28 32 34 76 91 95 94 77 90
69 75 80 83 88 82 71 74 68 50 37 33 35 38 46 56 54 48 53 53 44 52 63 64 57 63 66 44 28 26 23 22 19 22 28 29 52 98 98 94 68 66 68
65 70 76 80 84 85 84 92 81 70 48 39 35 40 62 60 66 51 62 58 63 74 70 68 65 68 50 28 25 21 17 18 17 21 26 30 31 55 54 46 44 50 52
62 65 73 77 77 79 82 92 96 74 70 63 58 66 67 73 50 44 69 83 74 79 67 66 72 65 29 25 18 12 12 16 15 21 26 31 30 34 40 43 42 41 40
44 60 67 74 78 79 80 87 92 86 83 83 78 86 84 78 47 63 82 93 91 81 72 75 75 31 26 17 11 10 12 16 16 20 26 31 28 30 32 34 34 32 24
32 52 61 66 73 77 82 86 92 91 92 86 89 88 91 82 67 71 82 92 83 68 76 76 41 28 21 17 13 11 12 16 19 21 28 27 26 25 24 23 21 20 17
33 33 48 58 63 74 78 85 94 95 90 84 85 89 88 86 86 86 89 90 75 79 82 67 30 27 25 23 19 14 13 14 20 24 28 28 24 23 23 24 19 12 12
32 33 34 48 51 59 70 76 92 99 91 84 87 88 88 86 87 90 89 87 80 84 81 35 32 33 33 31 25 18 16 14 20 27 27 29 28 27 24 18 14 13 14
30 32 31 38 48 52 52 61 75 99 93 88 86 89 90 84 90 93 92 82 84 83 70 34 36 40 39 36 28 21 18 20 21 27 29 28 31 21 21 18 16 16 18
25 26 27 36 44 56 56 61 74 92 96 89 86 89 90 87 90 92 83 83 82 83 46 38 41 43 43 41 34 22 22 23 24 28 31 36 36 26 23 22 24 23 21
29 26 25 27 35 51 58 52 48 68 85 88 90 90 90 87 88 91 80 81 80 81 36 42 45 46 46 46 41 27 22 26 25 27 27 30 31 28 26 27 27 25 23
27 28 30 27 28 45 53 52 51 64 71 87 88 87 87 90 93 87 81 80 78 68 39 45 48 48 49 49 47 40 26 21 21 20 22 25 24 26 27 28 29 26 26
25 26 28 32 32 38 43 49 52 53 65 81 80 85 84 92 99 90 89 83 77 50 41 47 49 50 50 51 51 48 38 27 20 19 21 23 26 27 26 27 24 25 26
22 24 26 30 30 39 40 42 47 51 55 62 70 78 86 92 100 95 94 85 65 40 44 48 49 50 51 52 54 52 44 31 24 24 24 22 22 22 21 21 24 23 22
26 25 24 24 33 33 42 45 47 53 51 62 75 86 91 91 99 98 94 85 56 42 45 49 50 50 52 54 56 54 46 32 26 26 29 26 26 20 23 24 23 19 22

GFSSE_850_rhum_024.txt.gz
RH
81 56 44 42 45 45 50 55 58 71 84 82 84 84 83 81 80 74 68 61 51 59 47 41 90 89 96 87 71 74 77 66 59 54 45 35 25 17 16 17 30 73 81
51 54 38 29 34 31 36 35 38 50 59 84 80 86 88 78 72 68 58 37 30 28 21 61 84 81 76 75 73 74 52 32 25 28 29 36 32 24 23 30 44 47 49
57 46 37 29 22 22 24 22 20 22 27 54 76 84 78 82 75 61 27 22 22 23 26 70 80 81 77 75 71 50 23 34 44 45 42 41 44 50 34 25 28 35 46
47 39 32 28 23 23 23 22 17 16 20 26 67 78 88 84 79 33 24 24 23 23 28 47 68 74 67 43 28 26 39 55 67 66 65 67 57 64 58 47 36 41 54
48 34 29 30 28 26 24 21 17 18 21 38 68 82 86 85 66 28 29 28 27 26 25 24 23 25 26 30 40 42 63 72 79 83 76 84 78 84 70 60 60 54 48
51 35 32 36 37 32 27 21 18 20 25 36 54 66 68 48 34 40 37 36 36 34 34 34 36 39 43 48 53 55 62 79 90 91 88 92 84 94 83 64 78 76 76
46 38 36 46 47 42 32 25 19 21 29 31 42 38 32 36 43 43 40 38 40 45 48 48 52 56 56 58 60 63 68 86 84 85 87 91 92 84 69 64 84 92 88
52 45 42 50 54 50 39 28 19 21 29 39 37 41 46 54 48 43 42 39 40 48 52 60 64 61 64 63 62 60 58 66 76 79 87 89 83 75 45 80 79 86 83
73 58 63 56 60 55 49 32 23 23 30 42 59 67 75 78 70 56 50 46 40 49 60 59 56 59 62 59 56 56 56 58 60 63 66 73 65 59 40 39 44 64 81
80 78 79 79 63 58 52 47 30 24 30 40 62 66 72 75 71 64 54 47 40 45 53 54 56 59 58 55 51 44 46 48 46 43 51 54 49 44 43 42 74 82 88
84 78 79 84 75 62 55 53 43 27 27 40 58 67 69 75 75 70 60 49 41 42 52 55 59 60 60 62 60 46 32 31 32 32 34 35 38 64 81 87 88 90 95
80 82 76 77 73 67 62 60 45 34 28 39 50 64 66 66 78 75 59 45 41 42 55 59 62 66 67 65 56 33 28 28 28 27 28 29 70 88 94 95 99 93 98
65 72 75 77 79 73 62 66 52 40 29 30 42 49 62 57 58 64 60 52 45 39 50 59 62 62 66 52 30 28 24 22 21 22 24 28 83 98 98 100 66 70 60
64 66 70 76 80 81 80 69 62 50 38 29 31 39 46 45 50 53 60 54 44 46 56 57 60 65 66 33 28 24 18 13 15 20 23 28 46 63 60 46 48 46 47
60 62 65 74 79 82 77 83 73 73 56 39 31 33 34 38 47 54 59 64 63 67 67 60 62 68 52 29 24 15 12 13 15 20 23 28 30 37 42 42 39 38 36
65 62 63 68 71 72 74 81 84 79 79 56 44 40 42 46 54 56 58 78 77 71 74 66 71 71 32 25 15 13 13 14 16 19 22 27 27 30 32 33 32 28 19
36 58 66 65 68 69 66 77 82 89 78 76 74 75 75 72 79 51 54 78 86 88 81 72 73 52 28 20 17 14 14 14 18 20 25 26 26 26 26 24 23 24 16
34 35 60 68 68 69 67 74 81 82 79 85 84 82 82 88 90 62 56 74 87 93 75 78 73 31 26 25 22 18 15 15 18 23 27 27 24 23 23 24 17 14 14
31 33 34 67 63 61 63 71 76 83 72 85 88 84 87 90 89 80 74 84 94 90 80 80 55 31 31 32 28 21 18 17 20 25 27 27 27 27 20 21 19 16 16
30 30 32 34 60 65 58 57 65 78 78 84 90 83 86 89 90 86 90 93 92 87 85 80 35 35 38 37 30 24 19 21 25 28 30 29 32 32 25 22 22 20 21
29 27 26 28 32 56 63 58 61 70 74 75 88 84 87 90 88 88 91 93 95 84 83 70 36 40 42 40 35 25 23 23 26 30 32 34 40 38 28 24 23 23 23
30 29 27 26 26 30 51 54 57 54 63 60 72 83 87 88 88 86 89 93 88 81 83 62 39 43 44 44 40 29 27 29 26 28 28 34 35 32 26 24 26 27 26
29 28 28 29 28 27 38 51 60 62 61 66 67 76 87 86 85 89 86 89 86 81 82 52 41 45 46 46 46 40 31 23 26 25 26 25 26 27 26 28 27 28 25
24 24 25 27 28 33 32 40 51 61 61 62 61 74 79 85 85 85 81 86 86 81 78 42 42 46 47 48 48 48 46 41 28 21 23 24 25 26 27 25 23 22 24
22 21 22 23 26 29 36 39 44 56 58 54 55 62 64 69 81 81 84 92 90 82 64 42 42 47 48 50 51 52 51 48 39 29 24 24 24 25 24 20 20 23 21
21 22 22 22 24 25 32 39 42 53 54 56 58 58 68 71 74 82 89 98 93 84 63 45 48 49 49 50 52 54 54 50 41 30 26 24 24 21 18 20 24 22 19

GFSSE_850_rhum_027.txt.gz
RH
59 64 87 55 50 49 49 50 53 60 70 77 79 79 78 78 77 74 68 60 51 52 48 81 82 94 85 74 73 73 70 54 46 45 44 41 35 25 18 17 21 38 50
42 54 51 50 52 50 48 50 52 81 81 81 82 84 82 76 73 62 48 36 33 42 43 96 92 85 79 77 75 70 42 35 37 38 32 29 26 19 21 28 36 34 49
51 45 36 35 46 45 44 47 52 52 65 81 80 82 86 75 69 50 22 20 20 22 57 84 83 81 78 73 71 44 24 28 33 37 37 39 43 41 30 28 31 38 45
50 41 28 30 35 36 39 39 40 38 51 88 85 82 86 73 70 22 20 20 21 25 62 80 81 78 71 50 31 27 37 46 50 55 58 53 56 62 59 46 40 44 56
51 35 24 23 29 26 28 29 27 23 26 66 85 88 88 74 61 22 24 23 22 24 32 51 60 52 30 32 37 49 60 61 66 69 68 68 71 85 74 63 64 58 52
49 35 23 22 26 29 27 21 19 22 27 48 91 90 81 67 26 26 28 29 29 29 29 29 31 34 39 45 45 58 66 73 76 76 78 83 83 84 83 65 76 86 87
53 41 28 26 34 38 31 19 19 23 25 39 64 69 54 26 28 30 32 34 35 37 39 43 48 52 55 58 61 65 64 73 76 83 86 82 86 88 68 61 85 89 87
53 45 34 34 40 41 35 20 20 26 26 27 34 30 25 30 34 34 34 36 42 46 50 60 62 63 65 63 60 60 61 65 72 79 82 88 84 70 54 48 50 82 80
59 44 41 41 47 46 43 24 21 30 30 29 30 33 42 34 32 34 34 36 43 49 62 59 66 62 62 56 53 50 54 60 61 60 62 68 65 57 48 37 42 72 74
79 62 42 43 47 48 45 34 23 28 34 39 48 59 69 58 45 42 38 38 39 51 87 73 61 62 58 55 50 45 45 47 46 44 46 51 49 41 38 47 71 84 89
81 78 70 72 68 48 45 43 28 25 35 45 59 66 71 72 59 58 51 44 39 46 57 57 62 63 61 62 60 51 37 36 34 34 34 35 42 72 81 90 86 92 96
81 74 78 83 80 73 55 49 38 28 34 46 54 61 66 70 70 64 66 55 46 43 53 58 59 61 63 66 62 41 30 29 28 28 29 34 77 91 92 95 95 97 98
48 67 63 74 81 76 64 54 46 36 30 40 51 59 61 65 76 77 71 55 52 46 51 57 60 59 61 61 37 29 26 23 22 23 28 68 83 98 98 98 91 81 64
54 53 60 67 73 75 74 64 55 44 34 30 46 53 58 58 61 68 64 64 60 49 55 58 60 60 63 57 30 26 20 14 15 20 25 41 66 73 53 44 47 50 49
64 66 63 64 66 71 74 73 70 57 46 34 32 46 52 54 53 58 60 63 57 49 59 63 62 63 66 46 28 20 13 12 14 18 22 27 34 48 43 38 38 36 33
64 64 65 63 66 70 70 74 74 75 68 52 36 34 44 45 45 60 63 65 62 68 74 71 64 68 69 34 24 15 13 13 15 18 21 26 27 31 34 32 30 26 21
66 66 65 62 66 71 73 76 79 77 68 68 61 40 35 38 44 65 70 68 71 78 79 80 70 73 63 29 20 17 15 14 15 18 23 26 26 27 26 24 24 23 15
39 50 50 63 65 68 72 75 80 81 77 76 69 57 48 54 66 80 74 59 73 85 88 82 76 78 42 26 24 21 18 16 16 20 24 26 24 23 23 22 19 17 16
31 32 33 35 51 69 68 68 69 76 78 84 80 71 75 80 86 90 88 67 76 88 93 83 81 76 32 29 30 24 20 18 18 22 24 24 25 27 22 22 19 18 18
26 30 31 31 32 47 70 67 67 68 82 81 82 74 80 86 88 90 89 76 78 92 95 87 84 69 32 35 33 26 23 18 22 26 28 28 29 34 34 25 22 21 22
31 26 29 30 30 30 55 67 68 65 68 86 79 74 78 88 88 90 88 89 92 91 93 89 84 53 36 40 35 29 24 24 26 28 32 32 33 38 34 26 22 22 21
32 31 28 29 30 29 30 49 62 64 62 67 66 68 68 78 83 89 86 89 90 91 96 86 82 44 40 42 38 32 28 32 29 28 30 32 36 37 31 27 24 25 23
29 30 30 30 29 29 29 32 58 64 65 63 68 78 71 84 80 86 85 88 88 87 93 81 82 43 42 44 44 37 32 29 28 30 30 29 33 32 28 28 28 26 23
21 27 26 28 28 27 29 33 42 46 59 62 60 59 63 76 76 87 85 80 90 89 92 81 80 43 43 46 46 46 45 42 33 28 27 26 25 27 28 28 28 24 20
22 22 24 24 25 25 26 27 34 41 58 57 60 61 63 65 65 70 77 78 85 82 84 85 76 42 44 47 47 48 50 49 46 40 30 29 26 27 27 27 24 20 22
19 20 21 21 21 22 23 26 28 40 50 56 59 60 59 60 62 65 68 75 81 86 92 89 72 44 48 49 49 50 51 52 52 48 40 33 28 26 24 21 19 23 23

GFSSE_850_rhum_033.txt.gz
RH
43 58 94 100 99 92 89 77 76 78 75 85 92 99 92 86 82 84 83 75 65 43 61 76 86 86 86 63 60 56 58 68 69 68 67 64 58 51 36 20 25 31 46
33 41 99 100 99 85 90 84 86 85 90 87 94 98 93 91 87 80 72 57 31 66 73 94 94 91 76 70 61 49 33 46 46 46 45 39 27 18 20 24 26 34 58
38 32 79 95 89 95 94 91 92 86 88 94 90 91 80 76 72 62 35 22 40 92 99 98 98 79 78 64 44 25 26 31 33 35 35 35 34 36 33 35 37 42 47
40 36 33 64 62 75 97 91 91 84 95 88 84 83 78 67 53 18 16 17 33 93 97 97 80 75 63 31 22 28 37 42 40 43 44 49 52 56 54 51 47 48 51
39 31 26 37 39 29 61 92 89 86 90 90 83 83 72 57 20 18 18 20 22 70 76 68 74 65 31 30 32 45 53 56 56 58 59 62 75 77 60 66 78 77 72
47 34 26 22 27 28 38 49 45 79 89 95 90 86 70 44 22 22 20 21 32 56 65 60 48 28 36 35 46 54 60 65 68 67 69 75 88 87 54 78 92 92 88
50 39 28 24 22 22 23 34 35 37 88 99 94 83 68 33 25 26 25 24 23 26 28 31 37 47 52 53 57 60 63 68 69 71 72 70 74 71 50 67 63 82 89
55 47 31 27 25 22 21 22 21 24 40 97 88 83 54 28 30 32 33 33 34 38 45 51 58 57 57 58 58 56 58 60 66 71 71 70 65 55 48 40 45 86 83
63 54 40 30 28 28 23 19 19 23 35 95 93 84 34 30 33 34 39 43 46 51 61 67 76 60 56 52 51 52 54 56 54 51 50 52 50 43 36 42 82 86 80
62 55 42 35 32 32 28 21 19 22 27 38 78 57 28 32 35 37 38 46 53 63 79 90 63 58 52 50 50 49 46 43 40 38 38 37 34 55 80 87 90 98 94
64 60 49 39 37 37 37 31 21 22 24 28 41 36 32 37 38 39 42 43 53 84 92 77 62 58 56 58 59 54 40 32 30 29 30 30 73 89 87 95 93 89 98
59 62 58 47 42 43 41 40 34 23 25 26 32 38 50 49 42 46 48 45 47 82 66 59 59 59 60 61 61 46 30 27 25 23 24 69 87 84 81 84 82 80 67
60 65 67 55 46 52 57 52 43 36 25 29 32 44 60 70 70 64 57 54 47 42 50 55 57 57 58 60 55 34 27 23 15 16 45 90 91 97 80 66 66 61 38
63 66 72 70 65 71 75 73 66 50 40 29 31 36 50 62 69 72 69 62 56 46 42 50 55 56 55 58 59 34 26 15 12 14 26 79 82 69 58 35 33 34 31
66 59 63 69 71 74 70 76 78 68 54 43 33 39 47 54 62 68 72 72 65 52 48 47 53 56 58 59 61 34 22 14 13 16 23 31 43 49 38 31 30 30 27
68 66 67 65 68 71 72 74 72 76 71 62 50 38 40 48 56 60 69 72 73 66 60 52 54 62 60 61 64 34 20 16 14 16 20 24 29 32 31 29 26 24 23
64 65 66 65 70 70 70 72 72 75 76 72 70 61 46 40 48 56 62 64 65 66 64 55 63 67 63 65 67 33 22 18 17 17 19 24 27 26 28 24 21 22 17
30 36 46 62 66 67 65 66 70 73 73 74 73 76 76 54 42 51 57 58 61 62 66 66 74 75 68 70 68 34 24 22 19 19 21 23 25 26 24 22 20 18 17
26 26 29 35 56 65 58 61 68 66 63 64 72 76 76 75 61 46 49 58 58 70 74 75 79 82 76 76 70 32 27 24 21 20 22 24 24 23 22 22 18 19 18
27 28 27 28 41 63 66 66 62 61 62 63 62 64 75 73 78 78 51 53 59 77 84 79 87 88 85 81 69 32 30 26 23 22 23 25 24 24 24 23 25 21 19
33 32 31 29 28 37 42 47 42 38 46 58 59 62 62 68 75 80 67 52 65 86 87 73 89 92 90 84 63 34 32 28 26 22 23 25 26 26 26 28 28 24 22
27 29 29 31 32 31 33 34 35 34 35 37 52 55 58 58 60 73 72 68 81 93 88 79 88 87 89 86 59 36 33 34 29 25 26 27 28 29 29 30 31 27 24
26 24 25 28 30 34 34 32 34 36 38 38 41 51 55 54 54 59 64 77 91 90 83 84 85 85 86 88 75 39 36 34 34 32 29 29 30 31 31 31 32 28 26
27 26 25 24 27 31 33 34 35 35 38 34 33 33 42 58 60 60 62 69 65 79 83 80 78 78 82 88 77 52 40 36 34 36 35 33 31 34 33 33 32 29 28
28 26 27 27 26 27 30 30 30 30 31 33 35 40 42 46 62 64 60 61 71 67 78 81 77 81 84 89 80 69 42 42 41 39 38 39 37 36 34 34 31 30 30
32 28 25 30 28 27 28 29 32 33 29 29 30 32 34 39 57 64 67 63 68 69 68 73 80 86 88 90 87 74 46 43 44 44 44 45 44 41 38 36 34 32 30

GFSSE_850_rhum_036.txt.gz
RH
43 57 91 97 81 72 68 71 77 78 74 82 85 90 93 93 82 82 83 78 62 41 72 86 82 70 76 63 64 69 77 77 72 67 65 62 58 48 30 23 30 84 45
46 68 64 97 98 97 77 78 82 75 82 83 87 89 93 94 88 86 75 52 32 69 82 92 92 70 64 58 55 47 38 51 59 56 53 45 32 20 21 24 29 48 58
76 90 52 98 99 93 79 90 85 81 85 87 90 96 92 84 77 70 44 23 87 80 95 97 91 71 70 51 33 24 31 38 38 36 33 78 33 29 32 34 39 48 43
87 90 84 69 45 91 92 91 85 87 92 93 94 83 76 69 61 23 18 35 91 95 97 94 85 61 46 23 26 33 38 36 37 37 83 90 91 52 55 54 49 51 53
89 89 91 44 77 100 97 90 92 93 97 90 83 79 65 54 19 16 18 30 82 90 96 94 62 50 27 25 40 49 52 53 53 74 90 95 99 71 62 81 87 90 78
89 88 53 57 98 98 97 98 96 94 97 96 84 74 54 30 18 17 18 21 32 55 75 60 48 27 34 38 50 57 63 63 68 87 92 83 100 68 65 83 83 85 90
89 89 56 55 54 54 63 72 97 92 92 97 87 71 46 22 21 20 19 23 36 52 50 34 30 40 43 47 53 54 58 61 93 94 96 95 93 62 45 56 77 88 91
92 92 93 68 60 42 50 48 51 80 94 96 97 73 47 24 25 26 26 25 26 29 33 43 48 52 55 56 58 58 60 61 87 93 75 87 53 48 42 39 64 83 85
93 92 75 54 43 39 39 32 30 41 71 96 98 83 40 24 29 32 33 36 40 46 51 73 68 59 56 52 51 51 54 55 84 69 64 72 45 39 39 73 85 86 87
94 94 88 93 65 40 39 34 25 27 45 98 98 96 38 31 31 34 41 44 44 59 67 86 62 57 52 49 48 46 42 41 40 37 40 54 34 79 90 89 90 98 92
85 93 92 86 77 72 93 42 34 32 38 84 91 94 56 81 43 37 40 44 50 62 82 64 55 54 53 55 55 50 38 33 30 34 54 41 87 89 98 98 98 89 88
68 70 82 89 80 67 59 74 42 43 41 59 71 58 88 92 93 91 43 42 53 81 83 60 55 54 55 58 58 45 30 27 34 46 75 78 79 83 85 82 81 78 66
66 63 58 57 71 65 54 69 79 79 69 88 93 89 88 94 90 91 87 52 49 65 70 57 57 57 56 58 56 40 29 24 55 69 90 87 87 87 63 41 38 48 32
68 64 66 66 54 44 60 59 80 77 66 77 88 88 94 96 94 96 96 98 96 84 86 56 58 55 55 54 56 49 30 21 54 78 85 90 85 72 60 36 29 33 29
63 70 68 70 67 59 63 80 81 79 64 56 45 58 92 95 95 97 100 99 98 96 84 49 52 55 56 56 57 56 32 19 27 71 90 62 84 73 48 30 29 27 23
84 75 62 64 70 71 70 72 76 83 80 70 70 55 43 70 74 91 98 98 93 91 64 54 52 54 58 58 60 60 32 20 24 49 82 40 33 34 30 26 26 25 21
69 85 93 67 64 64 66 70 73 75 73 77 75 68 56 54 71 88 95 79 89 87 72 63 55 53 60 61 63 64 34 23 19 20 34 74 24 28 28 24 22 19 19
37 45 65 78 57 62 63 64 63 69 75 76 75 75 73 64 51 57 92 92 89 86 66 67 61 62 68 64 66 67 38 24 24 23 20 24 33 33 24 22 20 18 17
33 35 32 37 43 39 48 63 63 57 62 72 76 71 70 75 76 62 78 93 96 89 64 69 67 70 74 74 71 71 43 26 24 23 21 22 22 24 29 19 20 18 18
28 27 29 28 29 33 69 55 66 60 53 61 67 63 70 73 70 73 70 66 93 82 66 69 73 74 80 82 76 73 49 29 27 24 26 23 23 23 23 22 20 22 20
32 32 30 29 28 30 75 65 54 66 55 54 49 62 65 62 67 72 75 75 66 57 61 64 79 77 85 87 81 72 51 31 28 26 27 24 24 24 23 24 26 28 25
27 29 30 32 31 30 34 62 48 56 61 60 46 44 58 58 58 62 67 74 80 59 57 62 84 81 83 88 84 58 48 43 32 29 28 25 25 25 26 26 27 31 30
26 25 25 28 28 30 31 33 62 71 60 52 41 36 37 50 56 59 55 64 67 72 59 62 84 80 76 83 85 74 50 45 45 35 30 27 27 26 28 30 30 31 33
30 28 26 25 24 27 30 33 66 85 62 38 35 34 34 36 56 61 57 67 63 62 69 69 89 80 77 82 84 84 76 41 39 43 36 32 29 29 29 31 33 33 34
35 30 26 27 25 25 26 31 62 84 84 81 82 53 35 33 38 52 53 56 64 63 65 73 84 82 80 80 80 81 81 61 39 37 42 38 35 32 31 33 36 36 35
42 39 35 30 29 30 30 29 32 65 84 85 92 93 78 62 38 40 51 55 55 65 66 61 69 88 83 80 79 84 86 76 58 40 39 42 40 40 36 38 39 37 35

GFSSE_850_rhum_039.txt.gz
RH
79 32 46 84 93 97 86 79 77 78 77 80 85 86 96 96 82 80 83 77 57 50 79 76 68 60 76 59 76 82 80 78 73 68 63 59 54 41 21 22 79 73 35
82 47 59 85 72 77 68 74 80 75 83 80 85 83 90 95 89 86 73 42 39 71 92 90 67 54 50 51 50 48 52 61 64 58 49 54 26 19 20 26 29 30 31
80 85 57 95 88 76 69 79 81 76 84 88 92 95 91 85 75 66 38 35 78 83 96 93 80 61 44 31 24 24 34 40 40 36 70 85 37 30 34 37 43 40 37
78 86 85 88 98 84 83 87 82 80 90 92 92 91 75 64 56 19 20 90 92 92 97 90 75 53 25 22 29 34 32 32 35 72 79 81 89 52 56 59 55 55 51
75 79 86 59 83 85 90 89 85 90 92 96 93 77 59 47 18 17 22 90 92 94 89 92 66 33 23 33 44 50 51 50 62 86 92 95 95 58 76 86 91 88 80
73 76 74 35 82 94 98 91 91 93 96 96 87 68 44 23 17 18 17 36 75 89 89 77 44 29 31 45 53 59 59 65 86 89 95 89 97 70 68 80 81 86 95
71 79 73 57 100 97 98 94 93 94 96 97 88 68 44 20 18 17 21 24 34 56 52 39 28 38 41 49 52 56 59 67 90 90 91 94 68 47 46 67 86 87 92
73 84 85 75 94 97 100 98 94 91 94 96 97 74 40 20 20 19 19 28 37 36 29 31 42 45 48 49 50 52 54 60 88 92 92 86 48 40 38 56 64 78 80
78 80 85 48 73 61 77 91 71 75 90 95 97 91 44 22 23 24 25 25 27 32 41 53 51 50 47 44 44 44 46 52 81 74 67 69 39 31 48 78 84 84 70
83 79 90 75 61 46 41 41 47 48 75 98 98 95 67 29 28 29 31 34 38 46 59 72 53 49 45 44 43 41 38 40 63 40 50 44 38 84 95 94 94 97 85
84 82 79 79 85 86 86 40 37 29 52 94 96 99 36 47 34 34 39 43 41 52 82 74 53 49 46 47 48 44 35 49 52 51 62 71 89 96 93 97 97 88 76
86 83 79 76 79 80 84 81 44 84 82 94 99 97 86 89 72 69 54 47 49 67 81 65 53 52 52 52 52 44 39 38 54 57 75 76 85 84 85 88 79 67 49
98 91 86 85 81 81 84 89 85 85 92 94 93 96 94 84 90 84 79 42 53 70 75 64 52 52 54 55 55 46 37 32 56 64 76 82 84 72 58 40 28 30 32
90 87 72 92 90 87 86 87 84 83 86 88 89 87 85 85 91 95 90 92 76 88 96 75 65 61 53 54 53 50 42 44 59 77 87 89 86 71 57 53 26 28 26
94 78 73 65 82 96 92 88 87 87 86 86 85 86 83 88 94 95 92 96 93 88 88 90 77 60 55 54 53 55 48 45 54 72 85 78 82 81 76 40 25 24 23
80 94 73 72 68 90 60 76 94 91 92 91 85 86 84 85 91 95 92 97 96 93 90 86 76 61 53 50 54 56 55 42 55 65 84 49 64 63 42 29 25 22 19
64 76 87 91 66 62 68 64 72 96 94 91 90 91 83 83 88 89 88 97 98 98 93 88 79 64 53 49 53 56 59 51 43 49 75 74 35 30 28 27 25 20 19
40 47 66 81 94 96 89 84 62 70 94 94 92 92 92 89 80 83 88 88 98 97 99 95 84 64 54 53 60 57 62 52 46 49 52 70 58 30 25 24 23 19 18
35 37 38 49 69 87 95 96 68 64 67 87 98 96 95 96 92 86 84 88 90 97 98 97 87 68 60 60 62 59 64 59 41 47 43 42 53 54 33 21 20 19 16
31 32 34 35 39 57 75 87 87 61 61 62 79 96 97 96 95 95 90 90 92 93 99 98 86 68 64 63 67 66 69 63 47 44 37 39 35 28 39 22 20 20 17
35 36 36 38 37 39 50 67 83 54 32 48 56 59 99 100 100 97 94 90 91 92 88 93 86 69 70 70 67 70 68 70 50 43 39 41 34 26 25 24 20 21 21
30 33 37 38 40 36 35 43 62 60 34 33 43 55 58 69 84 99 84 82 85 84 93 94 82 72 70 75 71 74 66 66 70 44 36 40 38 31 26 23 23 24 26
40 27 27 30 36 39 39 40 44 70 88 80 52 47 48 64 77 99 94 96 93 89 84 86 84 72 63 74 80 72 69 61 53 52 39 37 38 38 29 25 25 26 27
43 30 28 28 27 26 31 40 45 56 77 89 91 85 72 62 56 94 92 97 98 92 93 73 71 73 69 71 85 77 75 56 48 49 47 40 39 38 33 30 28 29 30
49 34 31 29 29 29 26 27 33 42 60 78 88 86 85 90 58 50 91 100 93 82 88 83 80 69 68 72 86 74 80 77 65 50 44 43 39 36 36 36 32 32 33
61 47 40 37 38 34 29 30 32 41 62 72 78 79 79 86 94 84 72 99 100 95 76 68 88 83 74 75 89 83 76 75 78 67 50 45 42 42 38 38 36 37 38

GFSSE_850_rhum_042.txt.gz
RH
61 27 19 34 76 84 76 74 74 73 72 85 83 87 94 93 83 82 81 61 37 72 88 82 42 58 73 55 80 84 81 76 72 63 59 54 42 22 22 51 46 34 31
45 25 27 38 89 84 82 78 77 78 80 83 85 83 89 86 87 82 60 31 62 85 92 66 54 47 44 46 48 53 61 64 59 50 50 35 22 25 30 34 34 28 28
61 41 36 51 74 76 68 85 79 87 86 88 93 93 76 83 71 55 28 68 73 90 92 82 57 42 27 24 21 29 37 41 49 78 83 86 42 41 41 42 42 41 38
78 54 53 54 65 64 74 85 77 89 87 94 91 90 72 59 43 16 80 90 87 93 94 85 53 24 19 25 29 29 30 42 80 83 88 88 69 75 81 68 80 65 57
82 74 65 95 91 71 81 84 82 89 88 96 87 77 53 30 14 16 89 87 90 90 84 83 44 22 29 38 43 45 47 70 89 88 80 89 86 62 80 83 84 89 85
78 83 66 69 82 89 93 89 88 91 94 96 94 69 38 16 15 15 52 75 89 90 85 65 29 27 38 44 50 52 61 84 87 92 91 87 70 48 76 80 88 92 92
74 79 74 55 80 97 95 87 87 95 94 96 87 61 30 17 17 17 18 36 62 62 58 37 32 36 42 44 46 49 60 85 86 90 84 82 50 42 71 78 89 97 93
72 78 69 46 98 98 97 97 93 92 94 95 98 69 30 19 18 18 22 25 35 46 36 29 40 42 45 45 45 46 51 86 89 82 60 57 36 35 37 46 52 62 63
75 78 56 37 66 96 98 99 98 87 92 95 97 78 42 21 21 20 20 28 30 28 31 39 42 42 40 41 41 42 49 74 78 57 64 55 33 32 79 77 78 75 64
78 81 70 42 40 36 40 55 84 77 88 96 97 80 53 25 25 25 26 27 30 35 38 45 42 41 40 40 40 38 36 42 35 34 37 36 42 88 91 94 84 67 64
82 79 79 69 59 42 38 43 45 49 63 95 98 96 49 24 26 32 34 37 34 37 43 50 43 43 43 46 46 40 33 33 38 43 39 68 83 95 99 87 84 66 54
83 80 78 82 83 80 82 53 34 29 34 68 93 88 49 31 35 32 34 39 43 46 53 55 43 44 45 48 51 43 34 36 43 47 48 68 86 89 83 80 67 39 34
82 82 78 75 78 79 84 81 55 36 39 52 79 75 70 63 89 68 50 44 39 41 48 54 44 44 47 42 43 45 39 31 51 51 61 56 75 62 60 38 22 20 26
62 83 83 84 81 80 79 84 70 70 69 66 75 87 72 70 87 85 74 56 38 39 48 47 50 50 44 48 48 48 46 35 54 68 79 69 73 67 44 37 27 20 22
86 72 72 84 88 84 82 79 86 85 82 78 79 78 87 76 85 87 79 88 69 64 76 88 68 60 48 50 48 47 48 44 46 55 68 59 62 60 58 55 27 21 20
82 83 64 60 69 77 81 84 86 87 87 84 80 80 84 82 86 86 77 84 91 90 89 89 81 68 54 47 47 49 51 50 43 49 61 52 43 44 48 44 24 20 18
71 76 71 57 58 73 96 77 83 91 89 91 85 84 83 80 87 89 88 83 87 84 89 91 85 75 62 51 45 47 50 52 45 51 49 51 38 33 30 30 24 21 19
51 58 73 75 73 68 76 70 74 80 90 95 93 91 86 81 76 83 89 85 88 89 87 95 91 83 71 54 47 45 50 54 54 44 48 43 37 35 23 21 22 20 19
34 39 44 55 75 83 82 82 69 60 78 84 94 91 91 90 85 82 82 89 83 88 79 96 97 91 78 61 53 53 55 56 59 52 44 43 39 31 27 24 20 19 18
27 31 35 36 40 57 78 84 89 85 61 59 76 82 96 79 84 88 87 86 87 86 88 90 95 97 84 66 61 58 57 58 62 58 48 43 42 37 29 26 23 20 18
30 32 32 33 34 36 38 60 79 80 58 57 44 59 65 91 94 82 77 78 88 88 87 86 93 98 85 75 67 62 54 60 65 64 56 46 40 38 33 28 23 22 19
28 30 30 32 34 36 36 38 50 63 72 62 53 44 44 63 84 88 76 66 67 87 93 93 90 87 86 77 68 64 54 59 68 69 61 54 44 38 36 29 24 22 21
38 32 30 32 34 35 38 40 41 43 51 84 75 48 32 38 62 71 94 86 68 75 86 94 85 87 88 80 72 63 68 70 65 64 69 62 47 42 38 37 28 25 22
49 34 30 28 28 28 30 39 41 42 42 50 78 78 69 60 50 54 80 90 100 87 77 77 86 80 96 88 76 70 70 68 64 60 59 55 48 47 43 40 36 29 27
53 42 36 34 34 34 28 29 28 31 36 42 62 77 88 86 76 65 74 88 99 99 99 77 86 87 77 86 82 73 71 76 66 60 55 54 48 45 43 41 39 36 34
56 49 46 45 45 47 49 40 36 35 32 35 50 64 76 85 85 86 83 92 98 98 99 97 100 99 99 90 84 89 79 76 81 66 63 63 55 52 46 43 43 39 41

GFSSE_850_rhum_045.txt.gz
RH
76 45 31 61 82 72 67 69 68 67 81 80 81 86 91 83 82 80 58 39 81 82 63 35 44 66 62 55 87 82 79 67 71 62 56 34 22 19 29 34 30 28 39
61 40 34 61 76 71 68 71 67 70 83 81 78 82 89 84 81 59 34 60 84 89 60 53 37 35 42 44 55 70 70 63 57 57 53 30 28 33 39 36 32 29 39
49 30 38 64 68 71 70 72 79 82 80 80 90 77 73 79 59 31 59 73 91 90 81 61 31 22 22 21 26 35 47 70 80 81 77 61 54 62 47 47 44 43 32
50 43 40 49 62 71 78 74 83 86 86 92 87 82 62 50 22 84 84 76 94 93 84 64 22 18 22 23 26 42 66 86 91 84 84 76 68 74 75 81 85 74 59
58 49 42 49 52 59 81 72 85 87 89 88 88 67 41 17 21 83 88 90 91 85 79 48 22 27 34 37 36 38 60 76 83 87 91 82 65 73 77 82 85 87 87
68 54 56 94 58 69 71 76 90 90 95 95 77 46 20 13 15 73 76 85 90 84 73 34 26 35 40 43 47 61 74 84 89 88 72 64 46 70 80 86 90 93 95
71 64 56 86 72 89 89 84 95 94 95 96 79 39 17 14 13 19 56 65 75 71 44 27 31 37 39 42 47 65 75 81 89 85 79 61 40 74 78 78 88 82 87
74 78 74 67 88 100 98 88 94 92 92 95 85 50 19 16 16 16 19 32 37 44 29 32 36 38 39 40 43 54 80 87 86 83 54 50 33 35 36 42 48 45 46
76 77 76 66 86 98 99 99 94 95 92 95 72 61 28 19 18 18 22 25 30 27 29 36 38 37 36 37 38 46 59 60 68 44 45 41 34 50 89 86 66 58 48
75 74 64 49 69 88 87 93 88 92 90 92 87 61 36 21 20 20 21 22 24 28 34 37 38 36 37 37 36 35 34 35 34 31 35 37 53 99 95 79 64 50 41
78 76 74 44 45 46 43 44 44 61 78 94 78 32 41 26 24 25 25 27 29 32 39 39 38 38 38 40 39 34 30 28 27 28 29 62 84 95 100 62 61 39 27
80 80 79 64 59 41 38 35 35 38 42 54 49 45 36 24 26 28 30 29 32 32 39 42 38 39 39 40 42 39 31 29 30 28 30 62 87 85 70 67 53 18 17
84 82 80 75 74 64 43 51 41 29 26 32 45 49 56 30 34 30 30 34 35 34 36 42 38 38 38 40 42 43 38 32 33 31 31 43 50 49 40 30 21 16 17
85 82 81 80 80 77 65 65 62 46 35 34 40 51 60 57 50 63 59 51 43 38 41 49 46 43 40 37 38 42 42 38 34 41 47 57 53 50 42 28 26 15 16
82 82 80 80 81 81 74 71 63 58 55 56 52 58 66 72 64 81 80 69 58 48 37 46 51 51 47 45 47 44 42 45 39 39 42 49 47 42 41 43 36 18 16
76 71 78 78 80 81 82 78 74 74 76 78 76 69 74 75 74 79 80 75 71 71 62 60 65 70 55 46 48 46 45 49 45 41 49 46 45 39 40 41 35 19 16
64 62 58 62 65 71 72 85 78 83 88 90 87 84 79 79 79 79 85 82 78 78 76 79 88 88 82 65 48 43 45 50 51 46 45 48 44 42 35 39 35 20 17
65 70 69 71 72 67 66 67 83 84 87 88 88 92 88 78 75 76 84 85 83 82 91 88 83 92 90 78 65 50 46 48 54 51 49 48 44 41 37 36 31 20 18
35 41 52 66 70 73 78 80 72 74 91 91 86 90 87 85 86 82 74 71 74 80 89 95 86 83 93 88 78 64 52 48 52 55 54 51 47 42 37 34 28 22 20
25 34 36 37 41 46 64 74 81 78 76 83 86 82 80 84 90 90 85 84 79 77 79 86 91 85 90 93 90 78 60 54 54 56 59 57 53 47 41 36 31 25 22
24 26 32 34 36 43 69 79 79 74 69 62 69 72 74 76 78 88 88 86 90 84 77 80 88 89 88 95 97 88 65 60 57 56 59 59 58 55 47 39 34 30 26
28 27 29 32 33 34 36 38 42 49 60 68 63 63 65 65 71 75 80 91 87 91 87 84 85 90 89 90 98 89 65 61 62 58 59 62 62 58 54 45 39 34 30
28 26 26 26 28 29 30 34 36 39 43 46 53 59 60 63 59 60 71 76 91 92 96 91 82 72 73 84 83 90 64 63 58 55 57 62 64 62 59 54 44 39 33
30 29 27 26 26 28 31 35 38 39 41 42 43 46 50 61 61 63 64 71 77 76 85 93 98 89 79 74 90 94 88 67 63 63 61 63 67 64 62 55 50 44 39
39 40 36 35 35 32 30 30 30 30 33 39 42 45 55 71 79 72 72 67 72 76 77 86 86 100 90 84 78 83 83 83 71 68 66 64 66 62 62 57 53 50 44
58 55 50 47 47 48 45 44 38 34 33 33 32 34 41 53 66 80 78 74 76 85 87 85 81 92 100 97 90 94 99 90 79 73 70 70 71 68 62 57 52 52 50

GFSSE_850_rhum_048.txt.gz
RH
75 33 43 52 64 66 66 69 64 65 71 76 81 85 86 82 77 56 36 85 80 62 34 30 56 58 64 90 84 78 67 70 66 62 50 26 18 24 29 26 26 39 55
59 35 55 70 63 64 68 71 70 84 82 80 80 82 86 75 63 38 59 86 85 54 49 30 33 51 46 74 82 78 71 67 62 51 29 26 30 35 35 32 26 32 60
62 36 56 76 71 77 74 70 74 78 78 77 78 69 62 64 40 48 72 89 88 78 63 21 17 23 31 40 52 58 61 58 54 55 40 62 70 48 54 53 46 35 41
58 36 53 82 75 71 73 79 78 78 81 78 72 51 44 38 52 72 77 92 92 84 55 18 17 19 22 32 43 59 62 59 75 67 56 62 75 73 81 89 77 67 77
44 38 68 79 86 79 71 82 80 84 85 74 49 33 23 20 82 86 89 94 89 72 47 20 26 27 27 28 45 64 69 78 79 78 68 65 60 74 80 80 90 87 90
50 50 76 88 70 76 71 76 82 88 86 68 52 23 13 24 82 82 94 87 73 65 37 25 34 38 40 37 44 62 71 76 80 72 64 43 54 79 83 82 91 97 93
60 59 70 74 61 77 70 79 87 86 91 65 68 24 13 13 22 47 61 67 62 54 31 29 34 37 40 44 51 59 63 72 68 65 57 45 52 72 80 86 80 77 85
62 64 67 79 72 89 74 89 92 89 93 76 69 33 16 14 14 23 33 35 40 36 27 31 33 35 37 39 43 48 57 61 58 59 42 42 30 37 43 41 46 45 45
71 68 66 68 92 99 96 89 96 93 90 76 59 36 19 17 16 16 18 23 29 27 28 32 34 34 34 35 37 43 52 47 42 36 34 31 27 63 84 74 49 42 39
80 81 79 70 72 89 96 99 98 92 92 80 50 28 23 20 18 20 23 27 27 26 31 33 32 33 34 34 35 35 38 36 30 28 27 26 56 93 78 59 51 40 29
82 77 69 69 52 42 50 67 87 91 84 80 62 33 19 18 21 21 22 23 26 32 36 36 36 35 36 37 36 33 32 30 27 27 26 45 88 91 64 39 41 31 16
78 77 76 51 44 39 42 42 46 72 75 67 49 49 35 24 22 22 24 26 31 34 43 44 41 40 40 42 41 36 32 31 28 28 26 44 94 95 56 49 39 20 13
79 79 79 65 55 42 33 37 40 41 45 50 54 50 50 29 24 24 27 29 29 31 35 48 45 43 42 44 45 43 37 36 34 34 32 41 55 56 55 41 23 18 13
85 82 79 79 75 70 58 51 51 44 33 33 38 44 48 52 32 32 33 35 36 34 36 39 45 43 43 44 44 44 44 42 38 38 43 46 57 54 49 34 25 18 14
85 84 80 78 79 75 73 63 58 56 45 43 42 42 50 55 52 45 52 59 61 51 40 36 43 48 47 42 42 42 41 42 43 41 42 50 55 56 55 45 34 29 16
88 85 79 74 72 71 72 75 65 59 60 62 66 65 63 59 59 59 61 63 71 69 64 59 49 54 62 58 50 45 48 43 45 45 44 46 52 52 50 51 42 37 19
64 71 83 80 75 69 71 71 72 70 68 71 77 80 79 72 67 67 67 69 74 81 75 69 68 62 61 70 72 58 50 46 44 46 47 48 50 51 51 48 43 33 22
63 68 68 69 76 79 75 72 72 75 70 69 77 81 82 84 80 77 75 70 76 85 87 82 77 82 77 76 85 83 67 52 46 45 49 50 51 52 50 48 41 36 25
36 47 55 67 77 78 79 76 75 75 76 76 79 81 82 88 85 82 81 76 77 84 87 84 82 88 88 83 85 87 83 72 57 48 47 51 52 54 53 50 46 43 33
29 35 42 52 58 58 75 85 83 84 80 78 85 87 85 83 84 87 87 85 84 84 82 83 87 92 93 89 90 90 90 88 78 62 52 52 53 56 57 53 49 44 37
24 24 36 39 39 39 44 64 79 82 81 76 77 82 84 81 85 86 85 88 91 86 84 86 87 89 92 90 95 91 88 87 88 80 60 55 54 56 59 58 55 50 42
26 26 32 35 35 36 39 45 68 76 69 66 70 77 76 76 78 80 79 80 84 90 88 86 83 88 89 85 95 96 88 85 85 80 68 59 55 56 58 61 60 57 50
30 29 29 29 30 33 34 36 40 42 47 53 51 47 58 68 72 74 74 75 77 81 84 84 87 88 84 78 83 98 86 85 76 64 59 57 56 57 57 62 66 63 58
30 28 26 25 24 27 30 32 33 36 39 41 43 44 44 43 44 49 64 76 72 74 79 81 83 84 94 95 88 97 100 87 74 67 63 61 58 56 56 59 64 65 64
32 29 27 28 28 28 29 28 29 30 31 32 35 39 42 43 45 53 68 74 77 73 62 72 83 90 91 96 98 89 96 99 97 95 83 75 72 68 66 63 64 65 66
40 41 39 40 41 38 36 35 35 35 35 34 33 32 30 31 36 46 52 70 67 79 87 86 84 84 88 88 96 95 100 99 97 94 90 87 85 78 72 71 75 80 75

GFSSE_850_rhum_051.txt.gz
RH
55 59 72 59 58 58 63 68 70 68 68 84 83 83 81 76 65 35 75 79 74 40 24 40 56 49 75 93 83 69 66 69 67 63 52 21 20 25 23 21 32 49 86
31 44 80 61 60 58 65 64 67 72 76 77 80 80 76 67 42 49 85 71 44 51 22 27 55 50 89 86 81 76 70 67 66 51 27 25 30 34 34 30 28 55 86
36 45 60 57 55 61 72 72 82 83 80 78 72 57 58 47 44 65 87 80 71 58 18 16 28 41 48 75 77 73 68 59 50 35 41 61 52 59 68 60 41 36 47
40 44 92 61 57 75 69 69 82 90 83 73 56 37 36 30 57 72 87 86 80 52 17 16 16 21 29 40 49 50 46 44 48 45 45 63 64 79 84 84 71 90 90
56 42 69 73 75 74 72 77 79 88 77 58 33 24 18 64 74 74 90 85 81 43 20 22 22 20 27 35 38 37 36 48 50 45 42 48 76 88 73 85 81 90 92
58 44 81 70 71 72 75 82 84 78 72 63 35 19 15 73 83 81 85 80 49 36 24 31 33 31 28 32 35 42 46 50 43 37 37 36 70 89 85 89 95 88 84
43 50 75 89 78 76 71 84 76 81 62 48 38 16 14 31 53 70 68 63 44 31 26 30 33 35 36 40 45 52 53 57 44 41 40 34 56 78 73 72 81 69 82
44 54 82 80 69 79 70 80 82 80 63 42 35 18 14 18 31 47 45 47 42 31 28 30 34 36 38 42 49 47 54 58 52 46 39 36 30 40 48 36 45 42 36
62 51 52 67 66 81 71 84 91 88 75 44 30 17 16 16 20 37 36 37 36 29 30 32 34 36 38 39 46 48 54 52 44 36 37 32 29 60 78 42 39 37 34
69 65 58 64 90 98 90 92 99 91 80 66 42 24 16 16 18 18 25 27 32 28 33 36 36 38 39 40 42 51 49 46 39 32 30 32 52 97 83 48 39 30 22
85 84 81 68 70 75 75 98 100 92 89 78 62 46 24 19 18 20 22 26 28 27 35 38 40 40 40 39 39 47 48 41 34 32 30 36 77 99 73 36 35 28 14
84 82 79 81 74 64 56 76 87 91 86 73 61 57 38 28 22 22 22 23 24 27 31 36 38 38 40 42 42 41 41 37 34 34 34 39 96 100 78 52 45 24 14
78 78 78 74 66 53 48 52 61 71 77 69 61 53 55 43 28 23 24 26 28 30 33 39 40 38 38 40 41 42 40 37 36 35 37 38 88 87 72 54 37 22 16
80 76 79 67 57 49 44 46 47 48 50 49 45 47 48 47 32 22 24 27 29 32 34 35 41 45 40 40 42 43 42 42 41 40 37 41 49 58 59 58 42 30 20
79 78 79 76 74 73 66 54 57 54 53 43 37 38 41 45 48 45 36 44 50 55 48 44 38 42 48 48 46 44 42 42 43 43 42 43 49 56 64 59 57 44 32
78 80 81 79 72 68 69 70 67 67 63 55 53 50 43 53 57 57 54 53 57 59 61 62 61 48 49 56 58 52 47 44 44 43 44 48 48 53 58 59 59 57 46
75 78 77 78 76 74 70 70 71 72 72 65 65 73 73 72 71 70 68 65 64 67 74 80 76 70 67 67 67 71 72 65 51 44 44 48 50 51 55 59 61 58 55
71 71 74 75 78 78 77 76 75 75 72 70 67 74 79 81 84 80 73 69 71 76 80 86 87 86 78 81 83 79 76 80 78 64 51 46 48 51 53 55 58 59 57
44 61 71 78 82 79 79 81 83 83 80 76 76 74 78 80 78 80 77 70 77 83 83 85 89 92 85 83 89 92 92 89 88 85 78 65 52 49 52 55 57 60 57
36 39 50 66 77 82 87 91 90 89 86 85 80 76 78 84 86 85 84 85 87 92 92 90 88 88 88 85 91 94 97 96 93 88 83 84 76 60 52 54 58 59 60
27 29 33 40 49 72 81 73 85 82 84 86 82 80 82 86 89 90 93 93 92 90 90 94 97 94 92 92 95 92 90 89 88 89 87 82 81 80 61 54 56 60 61
26 26 26 28 41 45 48 45 51 59 67 71 81 85 85 87 89 90 89 85 80 86 85 86 90 94 91 93 92 87 98 88 83 81 79 77 70 80 73 59 56 58 62
28 28 30 33 35 36 37 37 39 43 53 63 64 64 66 73 80 86 84 86 87 86 88 81 86 89 91 89 91 95 98 85 83 76 69 66 62 61 60 60 58 57 60
31 31 30 30 29 29 29 30 33 36 39 41 42 42 43 46 46 50 51 53 58 65 72 74 75 74 84 88 93 96 100 100 99 93 83 80 68 68 65 65 61 58 58
32 31 30 29 29 29 29 30 32 33 34 34 35 36 37 40 42 43 44 45 49 62 66 71 72 65 80 86 92 98 100 99 100 100 100 89 88 91 85 81 80 77 64
35 36 34 32 32 34 34 36 40 43 41 38 36 35 35 34 34 36 36 38 42 52 71 74 83 89 86 85 91 98 100 100 98 96 98 93 92 89 88 90 84 79 76

GFSSE_850_rhum_054.txt.gz
RH
47 66 58 56 58 64 66 69 74 74 74 78 84 83 77 61 36 72 84 79 46 25 24 60 45 48 60 63 82 68 64 65 68 62 38 21 27 27 24 28 54 88 86
28 52 59 54 51 57 61 67 70 66 72 78 77 76 66 43 41 85 62 41 50 21 20 48 48 45 79 85 77 71 68 64 59 41 24 29 36 42 39 30 42 69 84
29 48 59 56 52 55 60 68 74 82 87 76 61 48 48 42 56 84 72 61 50 16 14 29 43 48 78 81 76 71 62 48 39 27 42 52 51 71 73 56 66 67 61
28 51 59 58 54 76 64 75 82 82 86 59 45 40 31 51 65 84 80 77 52 16 14 14 23 33 46 53 53 49 41 40 40 40 43 58 76 83 79 72 91 90 90
29 46 53 57 74 70 66 70 85 83 77 61 41 29 30 60 69 86 80 80 39 19 21 19 19 22 28 33 35 37 42 48 46 38 38 74 81 78 76 81 92 91 87
34 59 81 66 83 68 67 70 84 81 62 49 34 23 71 67 70 86 70 60 34 23 29 30 28 27 30 34 38 45 54 48 40 36 34 64 86 83 80 92 92 93 83
46 62 92 76 79 70 75 81 86 70 57 50 30 17 74 81 85 70 66 52 33 26 30 34 35 34 36 41 47 49 52 48 44 40 37 40 62 95 79 69 77 68 76
53 59 81 76 74 72 82 87 78 75 58 41 22 15 48 74 58 56 49 43 36 28 29 34 36 38 40 44 49 50 52 51 47 40 38 37 34 34 35 33 37 38 38
56 62 70 91 83 77 82 86 81 80 72 53 27 15 15 21 47 50 42 41 36 28 31 34 36 37 40 41 45 48 54 53 47 40 34 32 32 69 45 25 27 27 20
62 66 66 72 66 81 72 88 99 97 82 66 41 21 16 15 15 19 32 36 32 28 32 35 37 38 38 41 43 47 50 44 39 31 31 32 55 98 85 31 22 23 13
77 69 67 64 66 79 80 88 99 100 90 83 64 37 21 18 18 18 20 26 31 26 32 34 34 34 35 35 37 40 42 40 36 33 34 33 67 98 90 37 38 22 13
83 85 82 68 72 84 79 96 98 95 87 82 71 54 31 24 21 21 23 26 28 27 33 36 36 36 36 37 38 39 38 36 34 34 36 36 58 96 99 68 61 38 21
84 87 83 85 83 82 72 74 74 65 86 80 69 55 50 42 29 22 24 24 26 28 32 36 39 40 38 37 39 40 41 40 38 38 37 39 60 93 86 67 54 41 29
82 79 80 80 80 78 72 66 67 67 68 69 59 54 52 49 45 28 25 28 30 32 34 36 38 44 46 41 40 40 41 43 44 42 42 40 44 66 60 58 57 50 43
79 76 74 71 56 59 57 54 56 55 50 48 48 46 44 47 51 54 40 35 34 38 50 51 48 41 40 47 51 49 45 45 45 46 44 44 43 49 54 58 59 54 48
76 77 74 70 68 69 67 61 53 58 61 62 57 43 51 46 53 58 61 52 53 60 65 66 66 66 60 51 50 54 57 53 50 49 48 46 46 47 50 55 57 58 57
70 70 70 72 74 73 70 70 69 69 69 65 59 58 65 62 68 70 70 67 65 68 71 74 77 77 74 74 70 72 74 74 74 76 71 55 47 47 49 51 56 61 63
78 73 72 75 77 79 77 75 74 74 73 70 69 68 71 75 77 77 73 70 75 78 79 79 80 83 85 86 84 82 86 88 85 84 84 81 72 59 50 49 51 56 62
61 63 70 76 77 81 84 84 83 85 85 82 81 81 77 78 80 78 75 75 82 84 87 89 88 88 86 86 90 92 93 93 95 96 88 87 86 82 76 61 52 54 59
50 55 68 76 76 80 84 88 90 89 89 87 83 82 84 85 86 88 87 87 89 92 90 88 90 92 95 95 95 95 96 96 94 94 87 83 80 81 80 81 70 56 56
32 43 48 60 68 76 77 79 83 81 81 82 82 83 83 82 86 91 94 95 95 95 93 91 94 95 93 94 100 96 92 91 84 79 83 80 78 77 84 84 83 73 57
27 27 31 41 49 55 64 77 87 77 77 80 82 84 87 88 86 90 92 94 96 93 92 87 87 90 92 90 98 100 99 95 94 78 71 71 73 75 74 75 75 75 61
26 28 27 28 31 39 57 65 70 65 58 60 72 84 89 92 91 91 90 88 88 92 86 84 84 86 88 80 87 97 98 85 82 83 84 81 83 76 77 71 66 67 62
28 30 31 32 33 34 36 36 37 37 37 39 42 50 59 58 56 57 56 55 59 61 64 67 74 77 78 80 78 79 98 100 99 97 88 85 85 78 87 81 87 86 76
30 31 31 31 31 30 30 29 29 29 30 32 35 36 37 38 38 40 42 43 44 46 47 50 59 77 78 83 93 97 99 99 97 100 100 94 84 85 83 84 91 84 85
33 33 32 31 31 32 32 32 33 35 35 35 34 34 34 33 33 33 33 34 34 35 38 43 59 86 89 89 94 95 97 100 98 100 100 99 99 86 86 81 80 86 86

GFSSE_850_rhum_057.txt.gz
RH
47 61 69 77 72 71 72 76 76 76 76 75 80 82 68 39 60 78 79 47 27 19 47 46 58 65 58 62 72 66 57 59 56 37 23 29 31 28 32 67 82 86 72
36 50 64 75 70 66 77 72 76 74 74 84 78 74 48 43 84 57 39 47 19 19 38 53 37 47 73 77 70 64 57 46 36 30 36 46 58 54 37 40 46 78 73
34 47 58 55 57 62 64 69 68 73 79 74 59 50 41 50 80 62 60 43 15 14 31 40 39 63 76 72 67 58 44 37 33 48 54 61 75 78 66 91 90 70 65
30 45 51 52 56 61 61 69 79 83 83 53 41 35 49 62 83 76 74 47 17 15 15 26 31 48 57 54 47 39 41 42 40 40 62 78 79 76 78 90 90 89 83
28 44 52 55 56 66 65 75 80 83 75 51 34 32 54 66 80 79 73 39 21 22 19 18 21 28 33 35 36 43 45 44 34 34 70 84 86 82 82 88 87 87 87
35 46 63 60 80 75 70 81 82 78 57 46 26 49 60 66 82 79 49 34 23 26 27 25 24 27 31 36 43 47 43 40 39 32 46 82 82 80 88 84 71 70 82
49 56 77 74 82 70 75 83 84 71 50 37 25 80 90 72 99 59 41 33 24 27 29 29 29 30 34 40 43 46 48 46 43 35 32 38 71 87 46 52 61 53 50
51 70 80 89 83 72 78 89 87 74 41 32 20 43 98 99 97 40 39 34 27 26 31 32 32 34 37 40 42 41 41 40 38 34 31 30 30 34 33 27 33 33 29
54 90 82 82 80 79 82 95 80 76 51 39 23 15 26 40 77 49 43 37 28 26 30 33 36 37 39 39 41 44 42 39 34 30 28 30 40 54 29 26 25 18 13
66 79 83 77 79 80 86 92 96 85 72 57 34 20 17 17 17 27 34 37 32 27 31 34 34 34 34 34 35 38 37 35 32 30 31 31 52 99 56 37 36 22 13
72 83 90 90 85 83 78 89 99 100 89 76 53 29 20 19 19 18 22 26 29 28 34 36 36 34 35 35 36 38 38 36 34 33 34 34 48 92 97 43 51 37 20
83 87 91 88 76 80 83 95 98 98 87 78 66 54 32 22 21 22 23 25 28 27 31 36 37 37 37 36 37 39 39 38 37 36 37 38 44 88 96 61 56 48 33
74 72 76 77 74 79 79 90 99 96 66 74 68 61 55 45 31 23 23 24 26 27 32 36 42 44 41 39 39 41 42 42 42 40 40 40 42 89 92 70 56 52 46
81 85 89 86 85 88 88 84 85 75 60 62 66 63 57 53 50 36 25 27 28 31 34 36 39 43 48 50 47 45 44 43 43 43 44 44 42 56 73 60 52 54 50
80 80 79 82 85 92 88 80 71 66 58 56 56 53 50 48 50 49 45 29 30 32 39 53 54 55 47 46 48 49 50 51 48 47 47 47 45 46 63 53 50 52 52
81 82 79 75 64 72 68 59 55 54 53 55 60 58 44 48 46 50 57 58 48 54 63 68 71 70 70 67 63 63 63 65 64 67 70 68 55 47 46 48 50 52 55
67 82 80 77 76 70 69 69 62 59 63 65 65 63 57 64 54 61 68 71 72 71 70 72 74 77 78 81 78 77 76 80 80 79 80 82 79 70 59 50 49 51 56
70 83 84 81 78 76 73 71 69 70 71 70 71 72 70 72 78 77 76 74 78 80 81 80 79 78 79 82 81 83 87 87 87 89 90 91 88 84 81 75 64 53 56
67 77 80 84 83 83 82 82 82 81 81 82 80 79 79 77 78 81 81 80 84 85 86 85 85 88 88 88 90 88 89 91 91 91 90 85 83 82 82 83 81 76 60
68 69 70 78 79 82 84 85 86 87 84 82 79 78 80 81 81 80 81 85 90 92 90 91 94 95 94 94 93 90 89 90 89 89 87 86 80 81 84 84 86 84 76
60 61 53 58 65 73 75 76 78 76 77 80 80 82 84 86 88 88 88 88 90 94 93 92 95 91 86 88 95 87 78 86 86 90 83 76 76 75 82 86 85 82 76
29 34 38 40 48 55 59 61 64 67 72 76 76 80 83 85 88 91 93 88 90 92 92 92 95 94 91 87 94 98 97 81 80 76 81 82 78 78 78 77 76 76 76
29 28 27 30 35 45 52 56 60 66 75 80 68 66 74 79 82 85 92 92 91 91 87 86 93 93 91 89 93 96 96 82 85 89 82 80 79 80 82 83 81 75 82
29 28 28 29 32 35 38 44 57 63 60 53 49 46 47 55 70 82 82 76 70 66 62 64 69 76 88 89 85 81 85 93 100 98 88 84 82 78 81 76 80 81 83
30 31 33 33 34 35 35 35 35 34 33 32 32 33 34 37 40 41 41 42 42 43 45 47 49 51 60 85 94 87 87 98 97 100 100 93 86 87 87 83 84 75 80
33 35 35 34 33 32 32 31 30 30 30 31 33 34 36 37 37 36 36 36 36 36 35 35 36 39 46 75 99 89 87 98 95 98 100 99 94 86 80 76 72 75 76

GFSSE_850_rhum_060.txt.gz
RH
62 93 75 69 75 76 78 77 79 79 79 77 81 80 44 45 77 86 51 32 20 45 55 87 97 69 54 74 67 60 52 40 26 26 35 40 33 35 49 70 84 90 68
72 94 82 69 74 79 80 78 82 79 77 84 80 67 49 84 63 37 44 18 24 42 52 46 62 46 73 71 65 51 34 26 34 42 54 71 59 58 86 77 78 78 87
65 92 80 80 74 81 79 79 80 80 77 70 61 47 54 78 53 61 35 14 18 41 42 43 55 66 73 65 50 34 31 33 46 54 79 98 77 86 92 88 83 71 79
68 91 92 77 75 80 78 76 75 80 69 43 34 45 58 81 72 70 34 17 15 20 31 36 52 57 55 42 33 36 37 34 38 73 100 99 97 79 88 90 83 82 82
84 88 90 67 82 81 68 74 83 75 53 32 33 50 69 79 80 67 34 21 21 19 20 26 31 34 31 32 38 37 34 30 34 93 100 98 95 85 86 80 86 88 88
89 91 56 60 79 69 72 80 81 78 51 31 38 54 69 82 83 47 33 23 26 25 23 22 25 27 30 35 37 36 35 34 45 87 93 93 97 79 75 69 58 65 79
88 91 74 73 88 71 78 84 74 62 46 25 72 85 69 91 98 45 36 26 27 28 26 26 27 30 34 35 38 39 37 34 46 44 82 92 62 35 26 27 36 33 34
90 94 98 73 91 75 79 88 77 63 38 22 51 97 86 97 98 47 41 32 26 29 29 29 30 32 34 36 37 37 37 34 37 31 33 70 33 26 25 24 23 20 14
94 98 100 86 84 77 81 90 83 66 50 28 20 60 86 98 98 49 46 39 28 28 30 31 32 31 33 36 39 40 36 34 45 31 30 59 44 33 31 31 31 19 13
98 100 100 97 96 83 85 97 86 80 65 40 25 19 22 27 25 33 42 41 34 29 30 32 33 32 33 35 37 38 37 35 36 32 36 37 53 85 49 49 46 35 20
100 97 100 99 100 100 91 97 99 98 85 63 36 22 19 23 21 21 28 29 29 28 32 34 34 34 35 36 37 38 40 40 37 36 36 36 46 86 98 66 56 46 33
100 100 99 99 100 100 99 95 98 98 95 84 62 42 27 20 20 22 22 24 29 30 31 35 35 36 37 38 38 38 40 40 40 39 39 38 38 67 98 93 63 51 44
92 98 98 96 98 100 100 98 98 98 99 90 72 58 48 36 26 23 24 26 29 30 31 35 39 42 42 41 40 41 42 41 42 42 42 41 40 47 95 99 55 50 50
99 98 99 98 97 98 100 98 98 98 95 95 74 69 63 56 51 41 27 26 28 29 34 36 45 43 44 48 50 49 48 48 47 45 45 43 43 42 61 70 56 49 50
99 98 98 97 95 97 96 100 100 98 90 94 76 67 60 55 52 52 47 30 30 32 35 43 52 62 60 52 45 44 47 52 57 57 55 56 55 47 47 70 52 50 52
90 98 97 94 97 97 94 97 98 96 97 93 64 51 51 48 49 50 57 60 49 44 50 62 77 74 71 71 69 70 68 67 71 72 70 71 75 73 59 49 49 57 56
74 77 87 87 95 96 96 84 92 81 80 78 68 62 54 50 58 51 59 67 70 66 64 66 70 72 75 78 78 83 84 79 78 79 80 81 82 81 81 75 66 56 61
66 64 75 85 85 82 86 72 75 74 66 67 70 70 64 63 71 72 73 75 76 76 76 77 79 82 80 87 95 96 95 84 82 83 82 80 83 84 81 80 83 78 67
60 65 74 80 84 87 86 85 81 77 75 75 75 74 74 73 72 76 80 80 81 82 85 84 85 85 93 99 99 92 91 88 85 83 80 85 82 84 87 89 83 85 81
60 62 67 76 82 80 85 86 84 82 81 78 76 76 78 80 81 83 81 81 86 89 88 89 89 95 96 96 98 89 88 87 81 76 73 82 83 81 77 83 90 89 85
62 62 65 66 66 71 68 73 76 72 76 79 80 80 84 85 87 87 87 89 89 87 88 95 98 98 94 97 88 87 96 89 76 69 86 88 78 76 75 77 86 85 84
31 43 57 55 62 68 67 73 74 75 76 82 81 84 86 87 88 87 87 86 87 88 84 85 92 95 94 93 97 100 99 76 76 78 76 79 79 76 78 78 83 83 80
33 30 29 44 54 55 58 56 61 62 61 67 69 79 73 69 72 77 78 81 84 92 91 96 97 97 99 98 91 100 92 72 79 82 85 77 83 78 84 77 79 82 82
34 30 30 28 31 42 49 52 56 63 62 56 69 70 68 58 55 55 60 70 86 93 88 79 71 72 89 95 99 95 97 99 98 94 93 83 79 80 87 87 83 82 80
32 29 30 29 29 34 44 48 48 50 47 42 39 38 36 34 34 34 37 41 43 43 43 42 43 45 50 58 73 98 98 100 99 100 99 87 77 79 80 84 84 77 78
34 31 30 30 32 36 39 38 35 33 32 31 30 30 30 30 31 33 34 35 36 36 35 35 34 34 35 39 47 78 97 99 99 98 99 99 98 92 79 83 80 77 78

GFSSE_850_rhum_063.txt.gz
RH
86 55 60 64 71 73 70 76 84 85 79 76 79 48 44 78 86 49 32 20 45 82 95 96 73 50 62 67 59 39 28 26 34 47 52 36 52 68 72 82 95 81 76
80 62 66 67 70 76 79 82 81 82 80 82 68 72 87 75 41 41 17 24 65 47 82 99 55 59 69 61 37 26 27 42 45 68 86 66 85 90 82 74 81 86 90
81 86 67 70 74 78 79 82 83 80 81 74 59 76 77 49 58 28 14 27 56 62 83 93 63 63 58 38 30 31 32 46 74 91 87 88 85 88 85 81 74 72 74
79 93 95 71 74 77 80 81 77 77 64 43 46 70 81 66 65 27 17 16 29 32 36 53 56 49 37 30 33 29 28 54 85 93 95 86 96 86 85 82 81 85 88
77 88 92 74 72 75 77 74 78 66 42 34 47 68 85 78 65 29 22 20 18 24 30 37 36 33 31 34 32 28 27 46 86 87 97 97 97 79 72 59 79 82 87
74 80 81 79 79 75 65 73 75 70 39 31 49 69 85 80 59 34 25 26 23 21 24 27 30 32 33 32 31 31 29 40 84 89 90 95 88 43 45 49 41 38 60
70 89 73 86 88 75 73 74 68 42 29 32 53 66 86 89 67 36 25 27 27 26 26 28 31 34 34 34 33 32 30 36 73 82 87 91 29 27 23 25 23 20 21
71 94 91 78 86 76 85 82 63 42 24 53 79 80 97 96 92 36 28 25 28 29 29 30 32 35 34 34 34 34 33 39 69 59 57 53 30 23 21 22 18 14 11
72 87 98 83 90 78 90 93 74 44 26 31 85 86 92 97 96 41 36 28 26 29 30 30 31 32 32 32 33 33 34 35 64 36 56 67 38 29 32 36 33 26 19
74 86 95 100 94 79 86 95 86 66 39 23 38 60 75 59 32 34 36 33 28 28 30 30 31 31 31 32 33 34 34 38 61 50 57 35 39 46 46 47 46 41 32
79 91 95 100 99 97 99 96 96 89 68 44 26 25 30 71 32 25 29 30 30 26 29 30 31 31 32 34 34 35 38 56 56 50 50 36 36 50 62 76 66 44 43
91 96 89 91 95 94 99 95 95 97 83 77 55 26 62 76 81 75 24 26 27 29 27 32 34 35 36 48 41 36 44 60 55 42 45 39 38 38 62 92 83 46 45
90 90 92 92 90 94 99 96 94 97 98 97 94 89 74 48 26 22 29 23 26 30 27 32 34 40 63 43 40 43 41 39 43 48 46 40 40 39 41 67 75 50 45
79 90 91 93 95 89 93 91 91 96 98 93 94 94 90 72 46 58 56 62 60 72 67 88 86 85 71 44 48 48 54 52 51 54 52 44 43 43 42 46 55 51 46
86 85 85 95 97 94 92 92 90 94 88 86 92 96 94 92 58 59 70 60 68 72 75 79 82 82 84 82 80 75 69 70 69 66 60 58 62 65 60 55 79 52 49
94 89 91 94 96 88 94 93 94 81 82 83 87 93 95 94 91 79 87 76 70 61 73 78 86 91 92 91 90 86 84 86 79 75 75 75 72 74 76 72 62 56 67
97 99 98 98 98 95 97 95 91 83 83 83 86 91 96 96 93 91 89 89 87 84 77 84 89 92 94 94 94 93 91 90 91 91 81 73 78 76 80 80 78 77 71
92 95 98 99 98 95 96 98 92 86 85 86 86 90 97 95 74 92 94 95 96 96 96 96 96 96 95 94 91 88 87 89 94 96 92 89 86 84 81 76 78 79 79
89 94 69 83 82 90 92 92 93 94 93 88 88 92 96 92 82 75 96 97 97 97 98 98 98 96 94 94 93 94 93 95 96 97 96 95 97 98 83 88 81 84 86
84 92 84 74 80 81 91 98 96 97 96 95 92 93 95 96 90 87 95 97 98 98 98 97 98 98 98 98 97 97 95 97 96 97 94 89 88 95 99 81 81 80 83
68 87 92 69 72 79 79 84 98 95 96 97 97 98 92 94 98 94 96 100 97 100 99 98 97 99 98 96 98 92 88 92 93 80 73 82 85 86 75 75 80 84 85
39 68 90 90 71 72 76 74 85 92 96 98 99 96 82 86 88 90 90 95 100 99 100 100 97 100 100 99 99 99 94 87 76 71 78 77 69 81 80 79 80 79 82
37 35 53 80 78 88 75 92 99 95 88 77 84 79 77 80 80 80 83 86 91 100 100 100 100 98 98 98 98 99 89 80 76 74 78 82 70 76 84 80 85 77 85
36 33 32 29 37 49 54 68 69 69 70 80 93 85 57 66 75 73 64 58 53 57 65 80 88 92 99 98 98 98 98 99 90 80 80 82 86 84 89 85 87 88 75
37 35 32 31 30 28 30 46 58 67 80 76 60 62 54 42 38 35 34 33 33 36 38 41 42 43 43 50 64 98 100 99 98 93 98 83 94 86 88 86 84 86 85
35 34 32 30 31 31 30 34 47 57 60 52 42 36 34 32 30 30 29 30 30 32 34 36 37 37 37 39 40 64 93 99 94 88 94 88 93 95 98 95 75 82 77

GFSSE_850_rhum_069.txt.gz
RH
81 49 62 65 70 71 74 73 74 76 59 44 75 79 62 29 29 66 90 95 94 87 72 51 46 48 23 22 34 51 63 74 86 90 84 78 76 78 83 87 82 72 84
70 47 56 66 68 70 78 77 71 69 62 69 87 54 36 16 14 28 70 93 94 83 68 42 42 24 24 37 66 83 87 83 81 82 89 84 76 72 69 71 69 88 84
57 50 56 62 69 76 76 74 70 57 70 87 54 40 31 13 21 20 41 78 96 81 55 35 27 27 29 52 84 94 97 87 76 71 79 74 68 67 79 90 87 90 86
42 50 61 69 73 76 77 69 62 48 71 81 50 49 25 15 19 29 30 49 62 42 30 28 26 28 26 59 79 88 96 87 84 80 64 42 36 41 44 58 63 63 73
45 55 70 76 77 80 76 61 40 39 59 81 68 51 28 20 16 19 20 25 29 28 26 25 27 27 26 56 81 92 92 86 81 65 36 24 23 24 26 23 20 20 27
53 64 77 80 82 79 72 52 32 40 50 79 77 49 29 22 20 17 20 23 25 26 25 27 26 26 26 29 51 69 76 68 55 43 30 22 19 19 18 16 13 12 11
57 77 79 85 84 79 72 54 35 39 49 71 80 50 29 22 22 20 19 20 22 24 25 27 27 27 28 28 30 36 37 44 38 37 33 24 22 24 26 25 22 18 13
78 76 80 84 82 78 78 51 32 35 47 65 81 61 35 25 22 22 21 21 23 24 26 27 27 28 30 31 32 36 37 37 35 36 35 34 30 30 36 37 36 31 25
86 87 77 86 78 78 78 50 30 33 47 60 86 87 42 30 27 25 25 24 24 24 26 27 28 28 30 32 33 33 36 37 36 35 35 33 35 40 42 47 40 40 39
82 85 72 85 74 81 75 54 29 45 55 57 88 86 37 33 29 26 25 25 26 26 26 27 27 29 30 31 33 35 36 37 36 34 37 36 34 35 45 54 58 43 39
81 81 73 86 74 84 77 66 41 32 77 73 88 82 58 41 30 28 27 26 25 26 27 28 28 29 30 31 33 35 37 39 36 38 37 36 36 36 35 37 36 49 41
86 76 77 86 83 86 82 72 63 36 32 63 67 57 44 54 40 31 28 27 26 26 27 29 30 31 31 32 33 34 36 37 37 37 37 38 39 39 39 39 44 51 47
82 82 77 80 84 87 86 74 68 56 39 31 26 25 62 60 57 40 32 23 24 25 26 26 30 34 38 36 34 37 37 39 42 40 40 43 46 48 53 53 52 51 51
80 76 75 81 86 86 85 86 86 72 58 48 64 46 53 54 54 34 31 35 29 29 30 32 36 39 42 46 51 52 50 48 50 54 53 55 59 61 63 67 67 66 70
78 78 75 82 79 83 82 84 82 84 73 71 86 83 70 68 49 42 44 42 37 31 32 37 40 49 48 64 62 66 65 67 68 68 64 65 65 68 71 74 75 74 78
78 72 80 81 74 76 80 81 84 85 74 90 89 91 84 66 62 56 54 56 48 44 46 46 51 62 76 78 81 82 76 79 79 76 72 70 72 72 75 77 81 84 86
72 71 79 82 78 77 80 81 82 81 81 84 86 91 89 79 66 61 58 59 60 57 58 56 62 72 78 81 80 81 81 88 90 90 89 84 80 85 88 88 86 86 88
90 81 83 83 81 79 82 85 78 82 78 77 82 86 88 82 72 63 58 64 69 71 74 76 74 72 75 80 83 89 90 90 87 88 90 91 93 96 91 91 94 91 88
84 85 81 81 81 82 88 88 80 79 82 82 83 86 88 87 79 68 63 70 75 81 86 86 86 88 93 94 93 88 84 83 82 82 87 92 93 85 82 82 89 90 86
75 78 84 85 84 85 86 85 83 78 82 84 83 86 87 88 83 76 78 80 87 94 95 97 98 94 90 89 89 87 87 89 87 90 87 82 84 88 92 86 84 92 76
69 73 78 89 88 90 89 85 81 83 84 86 79 85 92 93 92 89 88 90 96 98 97 96 95 92 88 85 87 83 82 80 76 79 73 71 93 93 80 90 92 81 78
47 60 64 67 72 77 85 83 81 82 80 83 82 91 87 94 97 98 98 95 98 98 98 97 98 90 87 88 83 82 84 78 70 71 70 67 90 91 86 85 73 79 83
47 47 59 57 64 65 73 81 84 85 88 91 93 92 91 95 94 97 100 100 100 99 96 96 98 99 94 89 86 88 95 86 84 79 79 77 87 83 78 79 77 84 86
40 40 60 64 59 64 70 68 72 80 79 72 79 86 95 96 82 84 86 79 90 98 94 79 75 76 90 69 66 76 92 99 97 96 82 75 81 82 87 84 84 89 84
40 40 44 64 65 57 63 69 70 65 67 65 68 84 86 77 69 66 73 92 88 58 39 33 32 33 36 40 42 43 49 61 90 99 93 73 80 82 86 94 86 79 82
41 40 39 41 74 67 62 62 62 63 60 56 67 74 71 68 79 80 52 37 32 30 30 31 33 36 39 42 44 47 49 52 63 88 86 87 82 80 90 99 96 90 89

GFSSE_850_rhum_072.txt.gz
RH
74 69 71 72 71 70 71 73 74 54 52 85 69 40 52 79 86 87 89 90 82 72 52 42 38 20 26 41 49 65 78 84 84 79 70 74 76 72 69 82 90 88 78
62 65 68 69 70 72 73 73 68 49 78 89 46 27 21 50 85 94 94 88 80 67 38 28 20 27 40 57 60 73 72 76 84 84 76 66 68 80 80 88 87 83 74
56 68 68 68 70 75 75 67 58 71 86 65 34 18 12 17 62 90 94 94 82 59 27 22 25 38 59 63 69 79 67 65 70 61 58 46 75 75 82 82 78 81 68
56 67 70 66 73 76 71 65 58 90 73 41 38 15 15 18 30 64 94 89 58 30 22 24 27 44 51 60 80 71 74 68 61 44 33 28 24 26 30 30 32 38 41
57 78 67 71 75 71 69 56 56 88 69 46 32 18 15 20 18 30 48 38 25 22 23 24 26 45 58 68 72 70 69 65 54 35 24 20 20 20 18 15 14 13 14
57 81 74 75 76 74 66 42 46 81 68 49 33 21 18 16 18 19 20 22 21 23 24 25 25 35 46 56 57 58 57 56 49 33 22 21 21 21 20 20 18 14 12
64 76 81 82 80 73 59 38 46 70 83 60 37 23 21 18 18 19 20 20 21 23 24 26 26 27 30 36 38 38 39 36 37 36 31 25 28 31 32 32 29 26 19
68 81 85 87 82 75 52 39 45 58 92 82 45 26 22 22 20 20 20 22 24 25 27 28 29 30 30 30 33 37 38 33 36 35 33 36 35 35 40 38 36 36 34
75 82 88 87 80 80 60 35 40 53 81 92 72 44 27 25 24 22 22 23 25 26 28 29 29 30 31 31 32 33 37 34 34 35 35 34 34 39 45 49 50 36 38
75 76 82 87 79 85 60 35 32 46 65 92 82 46 32 28 26 27 26 26 26 26 27 27 28 29 30 32 34 35 37 38 35 36 38 38 36 36 38 38 41 47 39
94 86 72 85 77 83 63 36 32 48 53 69 70 44 33 32 30 26 25 26 27 28 28 29 30 30 30 31 32 33 35 37 34 35 37 38 39 39 39 40 43 48 45
92 91 80 78 75 83 67 43 34 52 51 57 72 55 34 28 30 31 30 29 27 28 28 29 30 31 31 32 32 32 33 35 36 37 39 41 43 46 49 52 52 53 52
93 88 78 76 74 84 73 64 42 32 70 65 69 53 33 38 31 30 27 24 26 27 27 29 30 32 35 37 35 34 35 39 40 43 45 49 54 58 62 65 66 64 67
54 73 85 81 74 83 88 77 69 48 30 36 34 27 38 45 38 35 27 27 24 26 28 30 38 43 49 48 53 58 59 58 57 58 58 58 64 67 70 71 72 73 75
53 60 70 86 78 75 84 79 79 82 60 46 42 33 42 45 45 34 31 34 34 32 34 35 39 41 43 54 62 69 72 70 67 67 67 67 70 73 74 75 76 76 81
62 70 46 81 83 80 82 81 83 81 79 68 68 77 73 66 59 52 46 44 43 38 39 41 43 48 59 67 70 74 74 73 75 81 84 81 81 83 87 89 87 85 85
75 72 73 73 85 78 73 79 80 81 80 77 85 89 89 86 73 62 54 50 55 55 54 55 53 58 68 73 76 79 80 82 86 89 85 86 88 90 96 91 89 92 91
75 74 71 63 60 84 74 75 78 80 81 81 83 87 90 88 80 70 63 57 67 73 74 74 70 72 75 79 81 85 87 86 87 83 82 82 88 91 91 82 81 86 81
76 74 74 77 81 85 81 77 77 81 81 78 77 82 84 87 86 80 71 66 72 75 82 87 91 91 88 90 89 88 87 88 81 82 81 86 89 94 93 86 79 83 87
78 79 78 74 79 82 82 78 84 82 76 81 79 80 86 87 88 88 78 73 80 84 91 94 94 95 91 88 89 85 84 86 85 77 77 79 78 89 90 88 87 84 94
71 77 77 77 81 81 78 80 86 84 80 80 82 84 85 88 88 91 83 81 82 90 94 92 95 92 89 89 84 82 81 79 79 73 72 72 69 76 76 79 79 83 86
49 60 74 71 77 77 80 83 83 85 87 81 78 84 85 84 89 95 92 89 90 92 96 95 96 95 95 86 84 82 83 82 75 67 72 74 68 79 73 86 87 79 74
53 47 52 54 59 74 79 80 85 86 84 88 87 86 84 84 90 93 94 96 98 99 98 98 99 96 92 92 92 94 93 86 88 84 82 82 80 81 88 81 80 79 73
45 52 51 55 61 63 65 70 79 77 76 80 76 76 84 88 88 92 95 99 98 100 100 99 99 98 87 82 74 93 78 95 98 86 83 84 90 86 86 85 89 85 90
42 46 52 55 57 62 68 67 70 77 72 73 69 67 74 79 69 78 74 82 80 74 83 85 71 47 42 37 38 38 40 46 67 99 94 97 82 75 84 84 91 96 96
43 44 45 54 53 55 64 71 68 70 68 76 74 70 63 64 61 59 60 55 61 62 48 33 30 31 33 34 38 42 44 52 54 60 85 97 89 80 81 83 95 89 97

GFSSE_850_rhum_075.txt.gz
RH
84 72 70 67 71 71 68 67 59 50 74 37 66 78 77 66 71 84 87 82 76 61 47 39 20 23 32 45 64 74 72 70 65 64 69 68 68 83 89 89 84 72 60
75 72 72 68 69 71 70 68 45 73 92 53 38 70 80 85 86 84 83 80 68 41 32 18 23 34 44 53 64 65 68 62 61 54 65 90 86 88 90 90 80 58 60
72 78 73 69 70 70 69 60 49 84 85 36 22 39 76 90 94 92 85 78 57 25 19 25 32 43 49 50 47 51 52 45 44 38 39 58 70 70 75 59 63 82 75
74 79 73 71 71 74 65 56 60 88 57 30 14 13 50 81 93 93 82 71 36 20 22 28 38 44 48 46 47 48 43 35 28 26 25 26 24 24 20 17 17 22 25
80 76 73 73 77 73 62 62 87 69 39 28 14 16 16 62 90 97 67 47 21 21 22 28 37 46 42 39 39 39 39 36 30 23 21 21 20 18 18 17 14 13 13
84 78 72 74 76 73 62 64 90 76 42 25 17 19 20 27 55 56 31 22 21 22 21 29 35 41 42 37 35 39 40 37 33 24 23 27 30 31 30 28 25 20 16
87 81 78 77 75 70 61 59 82 65 43 32 21 17 19 18 20 20 21 22 22 22 23 25 29 33 32 32 32 33 33 35 36 33 32 30 32 37 39 37 36 35 29
85 80 80 79 77 72 52 48 80 72 53 35 24 20 18 20 22 21 22 23 24 24 25 26 27 28 29 30 32 33 32 33 33 32 32 34 38 41 45 50 44 36 37
75 83 84 86 79 72 44 45 74 87 72 49 29 23 20 20 21 21 23 25 26 27 29 30 31 31 32 33 35 34 35 34 34 34 35 34 34 36 38 38 40 42 37
71 81 87 90 80 72 58 41 56 92 86 77 45 28 25 22 22 23 24 26 28 29 29 30 31 33 33 34 34 35 36 37 36 35 37 37 37 37 38 39 42 44 42
82 80 84 87 80 76 53 36 49 78 92 84 64 33 28 26 25 25 25 25 26 27 28 30 31 32 33 34 36 37 39 40 38 38 38 40 42 45 47 50 52 53 54
86 84 77 81 73 78 59 34 45 57 79 86 61 39 34 31 28 27 27 28 28 28 30 31 32 32 33 35 37 37 38 38 37 38 41 45 49 54 58 60 63 62 63
90 97 86 85 79 69 63 37 49 59 66 76 69 47 39 33 33 34 34 31 30 29 30 31 32 33 35 37 38 38 39 40 43 48 51 53 59 62 65 66 67 68 69
55 86 95 93 87 75 72 54 37 62 67 69 84 73 44 39 36 35 36 30 29 30 31 32 34 38 46 46 48 54 58 61 62 63 64 64 65 67 70 72 73 75 76
52 39 41 73 91 82 75 72 62 41 53 72 72 52 33 47 51 43 36 34 34 30 35 39 50 52 55 56 66 69 72 71 72 74 74 78 78 81 85 89 88 83 76
54 46 45 46 63 89 65 79 74 76 69 42 40 31 28 44 53 47 38 42 46 42 43 48 52 55 58 69 75 76 80 78 78 80 82 82 85 88 92 96 91 90 88
51 48 51 65 60 74 75 69 77 83 80 77 68 63 71 75 72 63 61 52 53 51 50 52 52 55 60 71 76 80 83 84 85 86 85 80 82 83 92 93 86 82 85
52 54 58 63 63 54 71 69 61 81 76 80 71 76 83 81 87 83 75 60 60 63 62 61 66 66 71 75 77 82 88 88 84 82 81 80 82 85 87 91 86 80 84
61 70 70 62 70 57 53 75 74 78 72 72 80 79 84 86 90 90 84 72 68 69 74 79 84 87 86 85 87 88 86 85 86 83 82 79 78 83 90 94 90 77 83
76 71 70 76 74 83 78 67 73 85 82 78 79 80 81 82 87 91 90 83 75 75 79 86 88 86 90 88 86 85 82 80 81 81 80 76 76 76 76 79 88 82 85
79 81 81 78 76 81 84 78 82 84 85 82 80 77 80 82 86 89 90 88 78 81 83 86 89 91 89 88 84 83 79 79 77 67 67 66 69 76 73 75 75 84 91
68 72 75 78 83 73 74 73 81 82 72 77 78 77 78 83 87 87 89 94 88 86 91 92 90 89 91 91 86 86 86 76 67 67 63 58 74 74 77 73 75 87 87
55 58 67 70 73 75 76 81 84 80 80 83 88 90 78 81 86 85 84 89 94 96 94 94 96 95 92 90 85 88 86 81 83 80 86 77 79 78 87 86 90 86 81
41 46 54 59 60 60 66 74 72 55 67 71 78 88 84 85 86 80 88 93 96 98 98 99 97 98 99 88 90 90 91 95 100 82 76 84 81 79 88 90 88 78 80
35 38 46 50 58 64 68 74 70 68 68 69 79 82 84 85 85 87 86 84 86 81 74 66 62 81 82 69 37 34 37 41 45 72 74 48 76 70 86 88 88 88 87
35 37 42 54 47 53 60 62 63 71 72 72 75 81 85 84 88 88 82 69 59 59 62 61 56 49 40 34 35 35 38 45 55 60 68 69 67 78 96 93 87 85 89

GFSSE_850_rhum_078.txt.gz
RH
83 76 76 70 72 70 62 55 43 39 65 74 55 52 66 67 67 84 92 76 73 58 41 25 18 28 50 59 68 66 62 59 60 63 71 82 86 81 80 75 65 63 59
77 74 76 67 70 70 64 51 51 69 41 72 79 69 64 61 81 85 75 71 54 34 26 17 29 42 42 54 58 54 49 44 48 71 74 84 79 77 77 77 70 54 62
74 74 76 67 68 67 67 45 68 89 45 50 73 80 79 83 80 76 74 65 34 19 16 26 40 34 43 46 46 40 34 32 32 36 39 46 36 29 28 24 37 96 100
74 75 78 72 72 69 62 43 79 89 45 24 60 82 87 90 89 82 75 48 19 17 23 32 31 32 34 37 38 33 27 24 22 22 23 22 20 18 16 15 15 19 38
77 80 77 74 69 68 50 55 89 79 32 20 27 74 90 92 92 80 68 30 18 21 28 29 30 30 31 31 32 31 29 25 23 23 23 25 26 28 27 24 20 17 16
81 80 78 74 75 67 53 69 83 42 35 15 12 44 85 94 97 70 51 20 21 24 32 33 32 34 36 35 38 35 33 31 26 26 28 32 35 37 36 35 34 30 24
81 78 78 80 77 68 55 85 84 48 29 17 20 15 58 77 70 49 23 20 21 24 32 36 36 37 37 38 37 35 36 35 33 34 34 35 37 41 43 45 36 35 35
78 80 81 84 72 64 54 84 79 51 34 20 18 19 20 37 30 20 20 22 22 24 30 34 37 39 40 39 39 37 35 36 35 34 33 34 35 37 38 40 42 37 36
79 80 83 84 74 66 46 83 77 66 45 25 19 20 18 17 18 20 21 22 24 25 27 29 31 33 33 36 38 37 36 37 36 36 35 34 34 36 38 40 43 45 41
78 81 82 86 78 68 41 61 86 78 67 36 25 21 22 21 20 22 25 26 28 29 30 30 31 33 35 35 36 36 37 36 36 35 36 38 39 42 46 50 53 54 52
82 85 84 87 79 70 49 48 87 81 82 62 37 28 24 24 24 25 27 29 30 32 33 34 35 35 36 37 37 38 39 39 38 38 40 43 46 52 56 59 60 59 59
97 88 87 86 78 71 55 41 67 89 87 85 62 35 30 29 28 28 29 29 31 32 33 33 34 35 36 37 38 40 42 41 41 42 45 50 55 59 61 62 63 64 63
80 96 89 88 83 76 61 38 47 81 91 96 72 43 36 33 30 30 30 30 30 31 32 32 34 34 37 40 42 43 42 44 48 53 57 58 62 64 66 67 70 71 72
83 97 98 97 90 80 81 47 33 51 78 96 81 56 47 41 39 35 34 34 32 30 30 33 35 37 41 50 48 53 61 65 66 69 69 68 71 74 78 80 84 84 77
73 83 71 92 99 88 85 65 37 50 54 65 83 80 61 49 44 42 43 36 32 31 32 32 36 46 53 54 60 68 74 74 74 74 75 80 84 87 88 91 90 83 80
60 68 60 60 83 85 78 80 62 40 42 65 68 80 68 45 55 56 48 39 41 39 42 41 48 49 54 56 67 71 74 74 74 75 79 81 83 83 87 91 85 84 84
40 65 64 49 50 59 68 65 74 74 67 53 41 42 38 33 53 66 60 50 52 53 50 52 53 54 57 62 71 75 77 79 83 84 84 79 79 81 80 80 78 87 79
53 55 60 59 47 51 61 70 72 73 72 76 75 74 60 62 76 81 77 71 64 63 59 58 61 62 65 72 76 81 87 88 86 81 85 80 79 77 77 77 77 88 79
60 59 60 56 54 50 70 56 58 67 67 68 80 76 70 72 79 86 87 82 78 70 70 74 76 80 82 84 85 87 85 85 85 81 78 82 79 79 76 84 88 93 82
64 61 59 56 59 67 62 71 75 61 59 68 67 79 78 78 84 87 92 93 87 80 76 77 83 91 87 91 87 84 82 83 80 80 75 74 72 73 76 77 76 79 80
66 66 67 70 69 78 70 64 71 73 64 69 75 72 83 81 76 80 87 96 96 88 79 82 89 88 86 88 85 80 82 80 69 65 60 56 53 52 66 75 70 76 82
65 66 72 74 79 86 86 82 63 66 66 71 83 89 90 86 77 84 86 88 94 94 90 94 90 87 89 90 88 87 82 66 59 60 67 66 66 68 77 77 78 73 87
66 71 76 75 79 71 78 84 86 80 74 72 83 80 85 81 83 79 80 84 85 90 90 91 92 90 89 90 94 94 88 76 83 79 71 72 78 75 76 74 74 84 90
40 52 62 70 73 75 74 77 96 86 85 83 76 78 72 71 78 82 84 82 82 83 90 85 85 83 84 88 94 100 98 98 98 79 49 60 70 78 85 85 87 85 82
37 37 43 54 63 65 64 66 74 76 77 72 80 76 71 71 75 85 87 86 86 90 85 81 75 77 75 66 55 55 48 41 45 56 52 43 56 66 72 71 89 88 86
38 35 37 42 52 60 60 62 66 64 66 71 74 70 69 70 62 70 76 93 95 95 78 78 72 66 56 51 43 35 35 38 47 57 72 65 61 63 69 72 97 99 92

GFSSE_850_rhum_081.txt.gz
RH
80 82 77 78 68 65 64 55 42 36 74 35 54 62 67 63 63 75 92 77 71 54 28 17 45 97 91 73 71 61 52 53 57 74 75 81 74 68 51 57 56 57 60
76 80 80 76 68 65 61 45 42 68 66 57 47 62 66 63 67 90 81 73 52 30 17 24 55 76 58 47 36 35 39 54 59 61 59 54 52 37 35 76 77 65 75
79 78 81 76 66 64 56 42 47 59 70 78 57 59 62 72 85 83 69 55 27 17 22 34 35 42 38 33 31 29 30 34 36 36 32 25 20 18 19 21 27 79 84
76 79 77 76 69 63 55 50 86 37 64 81 75 73 74 85 83 73 66 31 16 19 38 34 35 39 37 34 30 27 26 24 24 24 22 21 23 22 20 19 18 18 19
79 79 77 75 71 62 48 60 91 54 30 70 83 86 85 86 77 75 46 16 18 27 31 31 35 40 40 36 35 30 24 24 24 26 30 33 34 34 33 31 27 23 20
79 78 78 77 72 61 43 80 89 56 25 37 79 92 94 92 78 62 28 18 23 32 33 35 39 40 42 41 39 35 30 27 28 30 34 36 39 41 39 35 35 33 30
77 78 81 77 75 57 51 81 79 35 23 15 64 90 92 91 70 50 19 20 25 31 32 36 38 39 41 38 36 36 33 32 32 33 34 36 39 42 44 41 36 35 35
78 81 82 82 76 56 72 81 75 40 19 16 24 83 97 92 58 32 20 21 26 32 32 34 36 37 39 38 36 35 36 35 34 34 33 34 36 38 38 41 42 39 38
81 81 82 88 79 58 67 85 77 42 25 19 20 52 88 63 48 22 22 23 27 34 39 43 43 41 39 39 39 37 38 38 37 37 36 36 37 40 44 47 50 49 46
90 81 84 87 77 64 55 88 73 54 33 22 23 28 42 36 24 23 25 25 27 34 36 36 35 35 36 39 40 41 42 40 40 39 39 41 45 49 53 55 55 55 56
99 92 88 85 80 68 44 85 79 74 54 30 24 24 24 26 25 27 29 29 29 29 32 33 34 35 36 36 38 40 41 42 41 42 43 46 52 56 59 61 61 61 62
94 97 93 88 82 71 41 62 85 84 75 50 30 26 28 27 27 30 30 32 34 34 34 35 35 36 37 38 38 39 41 41 42 44 47 51 58 61 62 64 66 67 68
65 71 90 92 90 77 54 44 84 95 88 84 52 31 29 28 29 30 32 32 34 34 34 34 36 36 35 38 39 40 40 42 46 52 55 56 58 61 66 71 76 78 75
52 63 86 97 98 89 74 42 49 88 97 81 76 43 34 31 30 31 31 32 33 34 34 35 36 36 38 40 44 42 50 60 62 64 62 63 67 73 78 84 88 82 76
53 56 79 94 99 94 92 64 37 54 81 95 80 52 46 43 38 35 34 35 34 34 33 34 36 37 42 51 53 61 67 69 68 69 70 74 79 84 87 91 87 84 76
43 51 66 87 80 76 84 81 43 39 52 70 75 61 50 48 46 43 44 44 38 35 32 34 38 50 54 55 56 68 73 76 75 75 78 80 81 80 84 81 80 79 80
42 44 48 69 60 82 78 84 68 44 55 63 60 68 77 68 46 53 55 50 40 47 43 44 45 53 56 58 68 73 76 76 80 83 82 82 78 78 76 76 76 73 73
60 60 79 60 57 64 61 67 74 70 58 51 53 62 66 52 38 50 63 61 56 58 57 53 54 57 59 64 72 77 83 85 84 83 82 78 81 78 78 78 75 75 79
50 56 67 58 68 58 62 58 66 77 71 75 77 71 72 62 46 71 83 82 85 72 66 65 63 65 71 78 84 84 83 83 83 78 82 80 78 78 74 74 74 79 80
56 60 58 58 64 67 71 61 56 69 64 67 72 74 76 82 79 84 87 92 93 88 77 79 80 84 90 88 89 86 85 80 81 79 70 71 70 63 53 61 71 77 74
70 61 68 63 67 75 78 82 86 77 57 56 64 64 70 72 81 90 88 86 90 91 84 82 86 91 91 84 88 80 82 81 65 64 52 48 54 50 47 64 74 70 72
80 81 72 67 77 84 78 82 90 81 70 65 65 64 69 78 79 82 87 82 84 92 95 89 90 91 84 87 84 82 85 75 59 61 70 67 45 58 59 76 76 76 74
81 90 86 77 69 81 75 66 82 78 69 82 68 68 76 86 88 81 86 84 83 81 82 90 89 86 89 83 88 85 80 83 84 81 71 57 51 69 57 58 73 62 75
71 73 62 74 75 83 85 62 70 81 85 80 86 88 92 82 84 93 85 81 85 89 95 86 89 87 84 84 81 84 77 86 92 91 46 42 50 50 62 66 66 83 82
45 45 55 67 72 77 80 81 85 89 84 81 90 79 80 87 87 82 80 76 86 87 98 100 94 87 78 70 80 72 63 59 42 47 51 40 50 57 63 58 63 71 82
41 40 39 45 53 66 70 74 75 75 74 81 86 77 83 68 87 92 78 73 70 82 87 96 82 75 70 77 68 68 58 40 40 48 56 47 50 53 62 67 65 72 87

GFSSE_850_rhum_084.txt.gz
RH
93 99 86 80 73 64 61 55 43 37 38 41 61 70 65 61 70 66 89 87 71 46 17 60 88 86 84 82 70 64 58 70 81 71 71 69 41 38 47 48 83 67 76
89 99 83 81 71 64 63 52 40 50 55 41 51 65 65 61 66 85 85 76 53 26 24 92 93 76 56 48 44 57 61 67 64 52 49 41 25 26 40 60 84 82 80
94 100 81 80 66 63 61 44 41 71 64 50 59 63 66 64 74 92 77 60 31 18 69 92 92 48 35 33 38 44 44 45 39 31 29 51 19 20 24 27 34 68 58
100 100 98 81 68 64 54 42 50 64 77 48 66 62 74 78 87 78 66 36 23 79 82 46 45 39 32 29 28 27 26 27 25 24 60 62 26 25 23 22 21 20 21
100 99 100 80 70 62 47 62 37 68 81 68 66 72 77 84 78 70 41 18 38 82 41 37 38 36 31 28 27 24 24 25 27 35 36 51 48 34 33 31 28 25 22
100 99 87 78 72 63 44 81 66 34 73 79 81 78 86 86 73 59 19 19 46 37 32 37 39 36 35 34 29 25 26 30 36 60 47 43 46 43 36 33 33 32 30
97 100 80 80 76 63 44 86 83 34 37 81 92 92 88 89 74 36 18 25 35 36 36 42 42 43 43 38 38 34 33 34 48 48 70 88 42 40 39 38 36 36 35
94 99 99 86 76 55 63 88 83 32 22 64 94 98 97 90 69 26 22 31 39 40 43 45 43 42 41 37 37 36 35 34 36 35 43 79 38 40 44 46 44 42 41
99 100 100 87 85 57 60 83 63 35 18 25 89 99 94 86 58 25 25 35 42 41 42 46 43 42 40 39 36 36 37 35 45 36 38 73 40 46 50 53 52 52 50
99 100 100 96 92 94 80 87 77 39 22 17 66 98 100 95 57 24 24 31 40 40 43 43 39 37 37 37 38 38 38 37 37 37 40 46 48 52 55 56 56 56 58
98 99 99 93 99 95 94 90 76 49 31 25 24 90 87 75 38 24 29 27 39 43 43 40 35 35 36 37 37 38 37 38 38 40 42 45 51 55 58 60 62 62 65
62 84 100 94 94 97 95 90 82 66 48 59 75 47 81 74 90 85 30 30 32 34 33 34 34 35 36 38 38 38 40 38 39 42 45 48 54 57 60 66 70 71 72
53 75 96 100 95 81 56 88 84 82 91 81 66 89 94 91 40 35 33 34 35 36 37 36 37 39 38 39 38 42 42 40 48 49 52 52 56 60 67 75 82 78 73
66 60 84 96 95 92 94 68 85 85 86 77 41 31 36 60 42 53 68 51 46 38 41 38 44 38 36 39 44 46 41 50 60 60 66 60 64 73 80 85 84 80 74
60 53 69 85 93 93 87 89 94 84 84 94 68 37 31 30 30 32 34 34 35 34 35 36 37 38 38 41 51 55 72 77 79 68 71 68 73 78 83 86 82 80 81
69 70 65 65 99 79 92 70 60 95 90 89 73 56 39 35 33 32 32 33 34 35 35 35 36 38 50 57 82 76 79 72 76 76 81 83 77 77 76 79 78 76 74
56 58 64 59 83 76 88 89 64 42 93 87 90 79 54 51 47 44 44 48 49 45 41 38 38 46 62 57 69 84 86 91 89 90 92 91 86 77 79 75 73 72 74
61 71 62 60 59 74 78 83 78 43 45 60 79 76 77 73 72 58 66 67 62 49 50 48 52 55 64 75 80 87 90 92 92 89 88 88 89 86 86 74 79 80 77
51 73 54 60 76 78 78 69 76 67 52 59 62 68 68 81 85 63 46 61 72 61 61 60 58 61 81 76 77 88 92 92 89 87 82 84 90 74 84 84 64 74 75
74 46 62 70 76 75 78 63 71 82 84 78 76 74 63 60 63 58 46 80 87 82 75 68 64 61 75 84 94 92 89 87 85 85 82 86 85 59 56 49 50 76 71
70 62 69 74 69 67 68 72 74 78 73 71 78 75 80 80 82 82 75 89 95 93 86 76 75 81 83 94 90 82 83 85 84 80 80 63 66 43 40 45 69 78 82
88 70 90 70 77 85 82 81 91 87 84 81 79 78 79 78 83 86 85 97 98 95 94 89 85 91 94 91 84 90 76 74 78 70 78 52 50 34 44 43 60 78 76
95 92 87 81 84 83 76 69 64 77 88 84 82 87 80 82 82 80 87 85 88 98 99 100 95 91 87 82 82 83 78 68 77 74 80 62 40 50 51 47 53 67 62
83 90 94 98 99 94 93 76 76 67 55 70 74 81 89 98 89 91 91 92 86 95 99 99 93 90 93 89 85 82 80 87 77 67 80 61 45 49 48 49 52 49 71
80 75 76 74 82 91 82 90 92 88 86 84 84 74 84 86 78 89 93 90 81 90 98 98 100 91 97 100 92 84 79 62 58 64 61 66 58 67 54 49 55 54 56
79 85 80 81 88 83 85 91 98 100 91 88 93 83 78 76 83 77 82 90 93 93 94 88 81 91 98 85 77 77 79 84 65 41 51 70 75 75 55 53 52 59 64

GFSSE_850_rhum_087.txt.gz
RH
85 84 80 74 69 58 55 53 50 47 58 67 70 70 68 61 71 79 86 87 73 33 36 80 79 86 82 86 80 66 81 74 64 60 35 32 38 41 42 81 96 84 71
77 85 86 76 72 62 57 54 44 37 39 51 67 71 67 62 72 90 91 83 57 23 79 85 83 93 55 54 48 58 59 56 48 44 39 28 32 39 54 81 86 61 74
76 90 92 81 73 63 59 54 38 41 38 45 56 68 66 62 77 88 83 67 32 60 91 86 82 49 37 46 52 52 48 40 32 48 67 37 22 26 30 46 50 43 64
80 83 99 83 75 62 60 47 41 68 41 52 54 59 63 68 73 90 77 46 25 93 94 94 48 30 31 37 38 36 35 31 37 64 64 66 26 24 23 22 23 24 40
87 94 98 83 73 63 58 41 55 69 42 66 70 69 71 78 86 87 64 49 88 99 94 58 37 33 31 28 27 26 27 26 52 77 83 71 36 32 32 30 27 25 23
95 98 90 84 72 67 55 42 58 74 62 64 72 78 78 87 93 71 39 55 100 82 41 46 38 33 31 27 25 26 28 41 76 79 62 47 41 36 33 33 33 32 30
93 97 90 83 72 68 54 69 37 72 78 70 74 75 87 88 78 52 32 96 98 41 44 43 40 37 36 31 27 29 31 42 82 89 93 49 36 36 38 37 37 37 37
92 91 98 84 79 72 53 76 70 34 75 79 81 88 89 90 74 28 21 87 70 41 45 45 40 40 38 36 32 32 33 35 77 82 95 38 36 40 44 47 45 44 44
70 99 98 86 86 77 56 83 89 55 31 87 93 98 94 91 56 20 27 70 41 42 44 46 45 40 36 35 34 33 33 36 71 60 83 62 42 46 51 52 52 52 51
49 92 97 96 94 82 74 92 85 43 30 64 95 100 99 98 60 24 32 60 44 45 46 46 44 41 38 36 35 35 34 36 66 40 66 45 46 50 53 54 54 55 57
63 64 81 98 96 91 92 86 85 54 26 26 97 100 100 99 56 25 39 71 55 50 49 45 40 39 39 37 36 36 37 56 65 67 67 44 49 52 55 57 58 61 64
70 62 54 91 100 97 90 92 94 54 33 31 86 100 98 97 93 82 35 42 46 52 48 44 38 36 37 39 36 37 41 60 59 59 62 46 51 53 55 61 66 71 72
61 48 48 59 87 100 95 90 98 90 73 84 81 98 99 94 91 92 39 32 44 50 44 37 36 36 38 66 64 53 62 59 57 60 53 50 52 56 62 70 78 77 72
51 50 54 52 74 97 95 91 97 98 85 84 86 88 94 92 92 95 40 33 36 36 53 40 48 57 60 60 63 61 62 57 59 64 66 58 56 62 72 81 84 80 76
52 46 58 53 50 94 95 90 93 89 94 91 89 91 93 96 71 88 86 81 84 72 80 77 74 69 61 62 65 67 64 69 72 74 79 69 66 71 78 81 82 78 75
52 47 44 49 51 71 98 91 87 89 89 94 94 83 88 90 73 88 85 84 82 79 66 61 63 67 63 65 72 78 78 81 82 82 85 84 78 74 76 76 78 78 77
59 55 54 55 67 82 92 91 86 93 87 87 94 94 80 81 70 76 77 66 42 46 65 70 66 65 71 73 79 77 78 81 84 85 84 87 87 82 76 76 78 78 75
84 70 58 60 56 70 78 79 88 73 94 89 93 99 90 85 69 49 66 70 86 86 55 67 54 57 83 84 80 76 82 86 83 81 82 82 81 83 87 87 84 76 80
79 92 80 66 65 68 65 78 90 88 80 97 92 97 99 94 73 62 63 65 87 92 81 75 81 80 83 80 77 74 81 83 84 82 78 75 77 83 90 88 81 55 61
82 87 92 89 76 66 62 70 97 99 89 88 92 95 92 88 90 97 77 66 92 94 91 88 86 87 82 78 75 79 86 86 84 78 75 74 79 83 78 80 56 80 89
85 86 90 98 81 71 76 71 95 98 88 85 76 72 78 84 85 92 92 79 91 95 99 91 89 84 84 78 81 86 86 81 78 76 74 77 72 78 42 42 45 64 97
100 94 91 94 81 76 82 68 94 88 87 89 92 85 88 90 87 89 90 88 97 97 97 98 94 88 86 87 88 84 86 77 75 77 74 77 73 70 57 39 36 37 57
96 100 91 99 89 88 94 85 100 86 86 88 90 85 77 76 82 85 84 83 93 89 94 95 98 94 91 91 89 83 76 70 65 72 75 80 70 67 78 58 37 37 44
85 91 100 99 100 98 100 98 99 92 91 87 84 80 83 80 84 80 84 86 79 87 91 98 94 99 99 94 89 82 80 80 72 66 76 67 48 48 61 69 53 44 41
84 90 87 94 91 93 96 99 99 96 92 83 98 90 75 71 68 67 90 95 85 90 96 85 97 92 100 95 93 91 90 86 80 78 74 61 69 63 62 70 68 57 52
83 97 85 94 89 90 94 85 92 84 88 91 100 92 75 71 58 62 87 91 94 76 72 90 87 84 79 88 100 99 88 78 76 81 82 61 61 67 70 55 50 52 52

GFSSE_850_rhum_090.txt.gz
RH
85 72 60 62 57 49 45 44 53 68 68 70 70 68 60 62 68 82 87 82 60 23 51 83 82 86 92 86 69 83 75 71 39 32 32 36 40 59 84 87 78 71 57
76 78 75 64 63 55 51 50 47 49 62 68 70 71 62 56 72 88 86 78 32 58 88 83 85 88 81 61 69 62 54 45 37 39 34 35 39 74 82 69 59 77 85
79 77 75 71 68 61 55 53 47 39 43 60 68 71 63 58 77 81 85 67 27 73 85 86 89 54 49 52 58 46 36 43 53 57 40 27 30 34 48 41 44 64 78
74 79 82 81 71 65 58 54 40 35 37 48 59 65 65 65 82 86 77 50 64 81 80 74 59 38 48 47 44 38 33 58 64 66 60 28 26 25 24 24 26 30 34
80 76 81 86 77 66 58 51 37 64 50 60 59 63 65 71 94 85 71 39 77 86 84 36 30 33 36 34 31 30 30 52 64 66 48 34 32 31 31 29 27 26 24
84 84 76 85 81 65 60 45 41 66 40 60 63 67 67 80 100 85 60 45 99 99 93 34 31 29 27 26 27 27 40 62 51 52 46 40 36 33 33 33 32 32 31
81 77 82 87 82 68 59 40 47 70 45 66 76 79 78 80 100 84 55 88 96 58 37 36 30 29 27 26 27 31 42 59 77 85 42 35 34 36 36 37 38 38 38
80 80 81 87 84 71 62 49 43 69 71 58 74 84 80 86 98 75 36 96 49 39 51 53 34 33 30 29 30 33 41 53 70 76 45 36 38 41 44 44 42 42 43
82 73 73 97 81 79 69 61 60 37 80 74 73 83 90 90 81 67 84 97 49 46 62 43 41 38 36 33 32 33 37 49 62 65 66 44 42 45 48 47 46 48 49
71 72 56 90 90 80 67 55 93 66 31 82 84 89 96 86 74 35 98 98 43 44 50 46 44 38 35 34 34 34 34 46 46 54 64 48 46 47 48 48 50 54 57
74 67 60 51 86 95 87 69 99 82 33 50 95 97 100 100 57 30 99 98 48 46 48 47 44 40 38 36 35 36 37 48 58 66 57 45 48 49 49 52 56 60 65
73 66 61 54 68 98 98 88 90 77 41 28 87 100 100 97 59 28 80 100 71 50 50 45 42 39 38 38 38 37 40 50 60 59 56 47 49 51 52 56 63 70 70
72 66 50 49 52 64 97 100 95 88 47 24 57 100 98 97 72 36 46 98 64 50 49 44 40 36 37 38 48 43 54 63 57 56 50 50 49 51 56 64 73 73 72
76 70 65 69 72 58 72 91 82 96 51 34 37 93 98 99 83 54 47 40 40 46 47 45 37 38 40 60 65 55 62 53 52 61 60 64 56 56 63 72 80 80 75
75 61 70 58 58 53 86 82 98 92 78 69 70 76 78 94 88 69 60 35 39 47 41 43 45 56 62 55 55 63 61 58 68 71 72 69 66 64 70 74 76 75 74
76 59 65 65 70 68 72 54 91 96 88 85 86 86 89 88 90 73 68 46 48 59 62 80 66 70 63 56 62 68 66 73 78 78 81 81 83 81 75 74 74 74 73
67 65 75 70 80 84 68 68 63 92 94 91 72 87 92 92 75 84 90 87 81 79 70 63 56 63 63 64 63 75 78 78 82 77 81 86 87 85 84 83 80 78 76
55 62 65 87 83 70 64 64 58 57 88 92 97 65 77 82 71 72 79 68 58 52 48 59 60 61 62 66 77 76 76 78 82 84 80 85 84 81 85 88 87 89 77
48 52 68 90 89 86 72 77 78 66 61 82 88 98 69 85 77 60 55 53 56 66 64 59 54 52 54 62 79 76 76 79 83 82 82 80 75 80 82 79 74 62 54
62 52 49 69 97 85 87 80 71 80 78 68 84 86 95 86 92 81 78 74 83 90 88 76 70 72 75 80 74 72 75 82 83 83 80 74 75 77 76 58 48 39 52
75 68 70 67 94 93 86 85 61 70 87 86 77 82 89 93 90 92 91 81 78 92 90 82 79 75 80 79 80 77 78 81 81 80 77 77 76 73 55 35 35 39 45
75 72 90 72 78 89 84 79 70 64 79 76 71 75 75 75 87 92 97 88 74 80 90 90 95 91 84 82 77 80 83 81 75 78 76 76 71 72 61 40 37 34 35
76 70 82 98 96 93 87 89 80 70 87 85 71 70 73 79 86 85 86 85 87 83 92 95 97 98 93 88 81 84 88 82 77 77 75 74 74 52 62 70 52 37 40
85 74 72 99 100 94 92 93 92 87 87 92 92 81 90 82 81 76 78 78 84 87 89 94 82 85 94 92 94 91 83 79 72 75 75 76 69 56 57 60 60 48 47
83 74 64 74 100 100 97 97 99 100 96 99 97 96 95 91 85 70 60 61 65 77 77 81 81 74 78 86 83 86 94 92 86 78 79 73 67 63 52 59 59 62 50
91 79 80 84 99 100 95 100 98 100 97 98 96 98 98 83 79 72 66 63 58 52 66 79 80 77 80 85 93 82 100 92 96 88 76 69 72 71 68 69 67 60 61

GFSSE_850_rhum_093.txt.gz
RH
82 62 53 45 41 41 48 58 61 64 66 64 63 58 57 68 66 78 81 70 28 48 72 63 79 81 80 76 85 90 40 32 35 36 36 41 79 81 78 76 60 70 67
74 72 55 53 48 44 44 50 61 63 68 67 67 64 56 65 68 85 82 58 32 63 79 81 88 91 79 73 60 56 34 30 32 38 35 45 69 68 56 66 73 81 89
78 76 62 59 57 50 49 47 47 55 64 67 69 66 58 59 78 81 82 39 77 86 81 89 79 67 53 55 47 38 43 43 36 27 31 37 43 52 37 41 51 61 71
74 74 74 64 64 58 54 52 48 45 50 62 68 69 59 58 81 87 76 43 77 87 82 81 56 39 45 40 33 44 54 54 42 34 29 27 27 26 26 26 28 30 38
78 74 71 71 68 65 57 53 44 35 38 56 62 69 59 61 82 86 65 61 76 79 76 60 34 40 44 37 33 41 60 58 50 41 34 31 31 31 30 28 27 26 25
77 75 77 78 70 66 58 54 36 42 50 56 56 65 61 69 84 82 57 68 86 74 50 37 31 37 35 33 28 36 51 55 47 40 38 35 32 32 33 33 33 33 33
81 79 76 82 78 64 58 50 37 53 46 65 59 65 64 77 90 99 54 70 94 95 28 27 29 30 28 28 29 45 50 47 44 49 37 34 34 36 38 38 39 39 38
72 75 88 87 81 66 61 47 45 62 44 60 57 70 76 82 94 100 76 92 90 41 29 30 28 28 26 27 32 42 50 52 48 49 38 38 40 43 45 42 41 41 44
76 77 88 89 88 71 63 52 48 69 74 61 73 80 84 87 97 98 95 97 73 34 45 32 32 29 28 30 33 39 46 51 46 50 50 40 44 46 46 44 44 47 52
80 76 81 91 85 73 72 60 69 41 81 68 70 80 94 94 100 79 92 95 50 82 77 36 36 36 34 33 34 36 47 51 49 48 49 42 46 45 44 46 51 54 58
75 80 75 79 77 66 68 67 79 82 47 76 79 85 93 99 97 82 98 99 92 92 49 38 39 37 35 35 36 36 41 50 53 52 50 44 45 46 45 49 55 62 64
68 79 81 77 71 57 60 59 71 100 82 36 85 90 99 100 90 79 99 96 97 57 47 44 41 39 39 38 39 39 44 51 53 58 53 48 46 46 48 53 61 65 64
62 67 66 73 74 63 55 58 72 99 94 50 60 95 100 100 97 48 98 96 68 48 49 46 42 39 39 40 40 42 54 57 54 53 51 50 48 49 50 58 67 70 70
61 68 55 66 72 73 69 68 74 82 83 90 42 88 100 100 85 38 90 97 52 46 51 47 42 39 37 43 47 52 54 56 56 51 58 60 59 54 57 66 71 74 70
61 66 69 70 73 69 63 63 62 70 79 85 62 87 99 94 86 43 48 83 46 47 50 47 44 37 40 46 50 54 59 57 49 60 68 68 66 64 64 68 70 68 66
55 61 65 67 70 73 76 71 67 70 66 97 58 61 92 91 93 70 60 55 46 48 50 46 40 48 53 54 48 55 58 60 72 76 76 76 74 83 80 72 69 71 73
50 43 71 66 67 66 69 76 78 84 77 94 92 83 75 88 100 91 68 52 35 44 47 50 57 56 62 58 57 60 61 65 77 80 80 79 81 81 79 84 82 77 77
53 49 63 65 57 60 74 82 75 73 75 89 89 90 90 80 97 98 78 59 47 56 72 63 60 54 58 62 60 61 74 79 75 83 83 80 84 80 80 86 84 81 68
61 57 58 57 55 61 60 73 83 76 76 85 64 61 93 91 93 88 85 87 84 78 68 60 50 52 56 56 56 67 70 76 78 82 84 77 81 78 81 84 80 59 46
63 60 60 55 59 59 68 72 82 95 80 77 80 72 80 86 82 83 90 84 76 67 56 59 57 56 51 50 56 67 72 77 82 82 82 79 75 74 79 80 68 38 36
66 66 64 63 57 59 69 75 85 91 91 81 73 84 87 85 88 82 75 71 70 73 74 73 70 62 60 71 80 77 72 75 84 80 83 79 71 74 78 75 38 34 34
66 69 68 72 82 72 75 74 87 90 84 88 84 80 78 89 88 90 84 87 89 92 93 88 81 77 78 80 82 82 79 77 76 74 79 78 74 77 76 52 44 39 36
64 68 64 69 72 71 64 70 88 90 85 85 88 85 78 68 84 83 82 88 90 83 87 91 89 89 87 86 84 80 86 84 79 79 79 81 75 76 60 50 51 53 43
72 71 80 76 72 68 61 85 82 90 87 81 81 97 79 76 89 87 84 84 90 82 76 79 89 89 86 77 91 88 84 84 83 82 81 80 78 72 53 55 51 49 44
98 95 85 79 88 93 78 84 89 87 98 93 94 99 80 82 74 70 69 87 78 79 79 76 67 75 73 78 87 84 83 78 78 99 88 81 79 70 65 62 55 58 52
99 98 97 100 100 100 100 92 100 99 98 96 97 94 100 93 99 92 91 79 71 74 68 72 74 75 57 64 74 73 78 72 82 80 88 86 81 80 79 81 66 67 62

GFSSE_850_rhum_096.txt.gz
RH
78 58 53 47 46 48 51 55 58 59 72 65 60 66 62 66 62 71 74 44 34 40 42 54 77 66 69 85 84 35 42 40 40 34 57 79 89 72 71 80 85 75 72
57 57 51 44 43 44 50 51 60 62 65 64 62 58 60 68 70 83 74 40 50 74 77 84 81 82 74 88 60 27 27 30 32 36 59 64 52 55 70 89 90 92 87
68 59 51 44 42 41 42 51 53 63 66 65 65 61 57 71 73 86 73 31 66 79 85 88 89 79 62 55 33 31 30 28 31 38 42 43 40 34 43 47 49 55 54
71 66 55 53 48 45 44 45 50 54 61 66 66 64 58 69 75 82 65 44 78 79 89 86 81 48 48 41 37 40 36 33 31 28 28 28 27 27 27 28 28 30 34
79 74 65 60 57 52 51 48 48 46 48 56 64 64 59 64 82 86 54 70 78 82 84 71 45 40 42 34 45 44 43 41 42 35 31 31 31 30 29 29 28 28 28
80 77 77 65 65 62 55 51 48 40 40 48 56 70 65 64 83 88 53 74 78 83 82 53 33 42 37 36 48 47 44 43 41 40 36 32 32 32 33 34 35 35 35
79 76 80 75 67 66 57 52 40 35 38 43 61 67 68 60 85 97 61 80 80 71 73 44 38 38 36 32 43 51 46 46 46 37 34 34 35 37 38 38 37 38 40
68 74 79 86 79 66 57 52 36 45 61 49 60 57 64 64 87 93 70 86 92 76 47 35 34 30 30 30 47 47 43 48 48 40 36 38 40 42 41 40 40 44 46
83 84 88 88 84 69 58 50 40 56 64 43 69 62 69 74 91 95 71 84 100 63 31 30 29 28 28 32 45 52 43 43 44 51 40 41 42 43 42 42 45 49 52
74 81 85 92 85 74 60 52 46 53 81 60 64 73 81 83 96 91 82 94 94 50 33 30 30 27 28 33 40 48 48 46 43 48 43 42 44 44 42 45 48 54 58
71 76 80 87 87 79 68 57 51 42 61 72 63 78 90 92 97 98 94 71 84 60 79 36 34 33 33 34 37 42 50 46 41 46 46 40 43 44 45 48 53 61 61
65 64 71 79 80 79 74 68 52 52 40 46 80 72 80 98 100 99 89 61 91 87 95 44 39 38 38 37 37 38 43 48 45 45 47 44 45 45 46 52 58 63 62
59 65 65 71 71 78 74 70 63 61 67 64 44 87 86 94 100 99 93 96 98 100 73 49 45 39 38 38 40 40 46 47 43 41 48 49 48 48 49 54 62 64 65
56 66 66 68 66 68 74 71 69 62 68 72 70 55 92 98 100 98 84 92 97 65 49 46 47 44 41 40 40 41 47 52 51 46 50 58 58 54 54 59 64 66 61
59 58 66 69 70 73 69 69 76 71 65 66 55 65 69 95 99 100 82 88 79 63 52 49 48 44 41 40 44 46 49 53 51 47 58 69 67 64 62 64 67 65 61
54 59 56 58 66 73 74 69 72 67 70 72 66 58 71 90 95 100 94 99 92 59 58 51 47 43 38 39 41 42 45 50 55 62 68 74 77 73 78 74 72 69 69
52 55 58 61 61 64 70 73 68 74 66 65 66 68 73 75 92 80 84 89 84 54 60 58 53 44 46 50 48 43 49 53 59 72 75 75 77 78 81 80 79 77 72
49 54 53 53 46 58 62 64 65 73 72 76 81 75 67 68 78 86 74 52 55 50 59 61 52 51 55 54 48 51 53 62 65 75 79 80 78 80 82 80 83 83 79
53 57 58 53 52 43 67 67 70 66 73 80 80 75 59 64 66 74 93 95 75 53 53 58 60 58 56 55 54 56 58 68 75 75 81 83 82 81 80 79 82 82 72
56 46 62 56 58 60 64 70 77 72 73 76 81 67 56 46 77 69 74 85 84 56 81 72 60 64 56 53 57 58 63 73 78 77 80 83 82 82 78 76 80 81 52
54 47 57 65 57 63 72 75 80 77 81 83 78 92 69 70 67 76 78 87 88 90 76 69 72 62 53 60 62 59 67 72 76 77 80 77 77 75 76 77 79 75 36
48 57 61 68 64 63 69 72 82 85 87 94 90 90 90 83 80 87 88 82 93 92 89 80 66 60 61 63 66 79 81 76 74 82 82 78 73 76 72 75 78 64 38
55 69 64 73 70 68 66 83 82 90 92 86 87 98 97 98 84 82 82 82 94 86 71 70 77 80 70 72 78 80 84 78 73 74 75 78 81 80 76 75 76 44 48
63 70 69 72 74 77 82 80 78 76 82 71 86 89 100 98 95 86 91 90 77 74 76 78 80 76 73 80 86 88 81 76 81 83 80 80 83 84 78 77 57 52 52
96 90 80 78 79 85 96 95 86 88 66 68 86 92 92 99 96 94 93 89 86 87 74 65 72 64 68 69 68 74 84 81 80 82 78 84 84 82 85 78 62 55 55
90 96 87 97 86 92 99 100 99 94 88 76 97 97 93 90 100 91 83 99 99 90 82 88 81 79 85 78 74 70 72 66 72 76 77 77 73 70 76 81 67 68 68

GFSSE_850_rhum_099.txt.gz
RH
67 59 58 60 55 58 60 62 66 65 59 55 61 62 61 66 70 64 70 43 24 21 25 58 74 80 86 65 45 50 56 52 39 70 84 79 81 60 81 83 74 84 82
65 59 56 56 57 58 59 59 57 61 66 61 57 64 61 64 62 71 68 37 34 39 63 79 66 79 95 73 27 30 32 33 37 69 65 49 66 77 89 86 86 88 82
68 59 56 56 56 57 56 58 56 58 73 63 56 61 62 75 72 82 67 34 62 87 87 90 84 81 85 42 27 29 31 33 37 48 51 41 37 48 47 42 45 49 48
60 55 51 50 52 55 54 53 59 62 63 63 63 57 57 73 77 89 64 40 80 82 85 87 87 62 60 30 30 33 30 29 29 29 29 29 29 29 30 30 29 30 30
72 60 52 46 47 45 48 52 53 55 62 65 66 63 58 65 76 86 54 61 76 84 88 86 75 48 37 31 36 40 39 36 32 30 30 30 30 29 29 29 29 30 30
76 71 58 53 50 47 46 46 45 46 50 60 63 64 68 69 75 81 58 73 87 82 84 69 45 40 32 33 38 44 45 42 37 34 32 31 31 33 34 34 35 35 35
79 78 70 62 60 56 54 50 47 44 41 44 58 68 67 70 78 96 67 79 89 84 81 50 41 35 32 35 37 42 44 42 40 35 33 34 35 37 38 37 36 39 41
79 80 80 70 66 65 61 54 49 36 33 35 51 56 70 67 75 88 73 80 83 80 79 45 43 36 34 34 37 41 46 48 40 35 36 38 40 41 40 40 43 46 48
80 81 84 82 78 73 65 56 44 37 48 53 55 61 66 72 78 90 80 81 85 84 69 47 41 35 32 32 42 44 44 46 44 38 37 40 41 41 41 44 47 50 53
77 85 83 86 92 82 69 58 42 48 75 41 59 67 66 74 81 95 82 80 82 95 58 41 36 30 30 34 41 44 43 43 47 47 39 41 43 43 42 44 49 54 54
70 70 76 85 89 87 69 60 46 55 72 53 64 64 66 72 81 98 82 73 78 67 34 35 32 28 29 34 40 40 42 42 39 44 42 40 42 44 44 46 51 56 56
64 60 70 76 88 88 77 64 51 49 45 74 58 68 81 81 85 97 92 87 77 51 34 35 33 29 30 34 38 37 39 40 41 45 46 44 43 45 46 50 55 60 60
70 65 65 67 72 82 82 76 67 60 54 46 72 65 78 94 95 100 97 98 79 71 83 58 40 37 35 36 37 39 39 40 42 43 47 49 49 48 50 52 60 65 66
64 61 70 69 72 74 82 76 72 68 68 74 43 58 78 84 97 100 100 95 74 80 92 84 45 42 40 38 38 39 40 42 44 44 49 53 56 56 53 55 64 68 65
66 62 58 67 71 75 80 75 76 73 68 71 72 55 56 59 88 97 100 97 87 84 99 83 54 46 40 40 40 39 39 43 47 47 46 60 61 61 59 61 65 68 64
57 66 64 65 66 73 69 71 72 76 74 69 71 67 61 56 56 71 99 100 97 79 92 90 69 53 43 42 41 44 45 49 51 49 46 61 70 70 71 74 67 61 64
41 59 57 62 64 64 67 70 70 70 71 66 67 62 60 62 65 61 61 100 98 100 89 82 81 62 51 43 42 49 52 52 53 55 63 70 73 75 77 74 73 70 74
29 53 56 56 59 67 65 64 75 70 66 69 68 69 67 69 77 73 78 83 99 78 95 75 68 62 53 43 40 46 47 50 55 57 65 74 77 80 80 81 76 76 82
23 55 56 56 57 62 67 60 59 61 66 63 68 71 72 81 77 64 83 65 60 54 76 88 75 63 54 48 50 57 53 55 60 67 69 76 81 82 82 82 80 79 82
20 54 58 60 62 64 65 63 57 46 51 64 67 75 75 82 73 70 55 72 64 60 67 78 81 66 56 57 63 60 58 59 61 71 75 74 82 84 84 85 79 78 78
23 51 54 47 58 63 69 69 65 58 58 60 71 76 73 76 68 85 70 72 77 68 51 67 58 66 71 71 74 68 63 63 65 69 75 77 81 84 82 81 77 79 79
22 46 54 41 53 67 67 60 59 63 66 70 77 81 78 79 80 80 72 80 69 74 78 67 49 66 69 77 74 69 70 64 59 66 76 76 80 80 80 77 77 76 79
38 57 56 64 72 75 70 71 71 74 76 83 83 80 87 82 83 89 87 83 78 77 77 76 71 70 70 75 70 73 78 75 63 63 70 78 82 79 78 76 73 75 76
56 52 68 72 71 74 75 73 80 78 79 73 78 78 79 77 88 90 93 95 84 72 86 83 72 78 82 73 72 78 74 73 72 72 68 70 80 82 80 83 78 79 77
77 77 75 83 79 75 78 83 92 89 85 80 92 88 86 81 78 80 97 93 100 86 90 92 89 91 82 78 80 76 83 83 80 73 74 68 70 73 78 84 78 79 71
97 91 88 91 88 82 82 84 90 97 99 97 93 92 94 96 87 86 82 100 100 92 91 95 91 83 88 79 72 76 76 74 82 81 82 79 74 68 69 83 84 79 70

GFSSE_850_rhum_102.txt.gz
RH
67 65 77 64 65 72 74 70 65 63 60 60 60 63 70 70 70 64 65 41 22 23 48 82 75 67 59 80 78 64 49 57 71 86 74 53 77 85 83 84 83 85 86
75 67 75 65 65 68 66 68 67 66 62 56 57 62 60 62 61 58 66 34 24 26 50 65 79 90 74 42 34 32 31 44 66 59 57 63 75 78 83 86 84 85 82
70 66 62 62 66 68 68 67 68 66 63 59 55 59 60 62 61 66 64 35 37 58 84 64 76 90 75 27 25 27 30 40 50 46 39 37 39 40 38 36 42 42 39
67 58 54 56 61 70 70 63 62 61 68 66 56 63 90 71 65 78 66 39 71 85 87 79 78 77 58 26 29 30 32 35 34 32 31 30 29 29 29 29 30 29 28
61 56 53 53 55 62 70 63 59 62 69 65 60 57 66 74 70 82 67 54 79 86 89 82 76 58 38 30 33 32 32 30 29 30 30 30 29 29 29 30 31 31 32
68 61 54 50 51 54 52 55 55 59 64 66 65 65 68 71 76 86 64 65 74 86 86 82 69 39 31 34 38 39 37 34 32 32 31 31 32 32 34 34 34 35 36
73 72 62 52 48 47 48 48 49 50 54 64 68 67 66 72 71 81 70 64 78 82 88 77 53 33 30 36 40 40 38 36 35 33 33 33 35 36 36 34 37 40 42
83 79 72 59 57 54 52 52 50 48 47 53 62 62 67 67 68 82 78 70 86 88 84 69 44 35 31 35 38 39 40 40 34 34 35 37 39 39 37 38 41 44 44
83 84 81 72 67 64 63 62 57 52 42 38 56 59 63 72 72 83 85 74 85 83 78 67 42 35 32 32 38 38 41 43 38 35 37 40 40 40 39 41 44 49 51
77 80 83 83 79 74 73 70 61 47 44 46 54 62 66 78 77 84 91 83 85 83 74 70 43 37 35 32 36 40 40 40 46 40 38 40 42 42 42 44 48 51 52
75 76 83 81 86 89 82 72 60 45 50 72 55 58 69 68 75 86 96 83 81 77 72 64 45 37 32 32 42 42 41 42 42 43 40 42 44 45 45 45 49 56 55
78 74 76 79 85 93 91 75 61 46 46 62 50 62 67 65 74 80 96 87 84 80 57 52 44 34 30 30 35 39 39 40 38 44 45 43 43 45 47 49 54 57 57
73 72 73 70 72 79 88 85 66 51 50 46 60 61 64 69 78 82 98 91 84 88 72 65 38 32 30 30 32 35 37 37 40 41 44 48 46 46 47 50 55 58 62
52 68 67 70 71 72 78 83 80 69 65 60 48 65 64 72 78 81 100 96 92 95 71 72 40 35 30 33 34 34 36 39 42 43 42 46 50 51 51 52 56 60 62
35 60 64 61 72 74 76 82 87 81 72 70 77 57 50 69 74 80 92 99 97 99 70 82 75 51 40 37 38 37 37 38 42 46 46 50 58 61 59 60 61 65 63
29 35 72 63 65 72 77 84 88 82 75 68 74 70 62 61 63 67 80 86 96 98 77 85 92 76 53 43 41 40 40 40 43 47 49 49 62 68 67 68 71 68 63
27 24 41 68 70 76 75 77 73 66 75 64 62 65 65 60 61 65 62 74 87 89 94 95 97 94 72 58 46 44 44 44 46 48 51 50 60 71 74 75 78 71 70
23 23 26 57 62 70 70 70 69 79 74 70 73 68 66 67 67 69 72 65 81 100 98 100 95 83 74 62 52 46 50 55 51 50 52 59 69 74 79 79 78 78 80
19 20 24 52 62 64 67 69 70 74 79 66 70 71 71 74 71 72 79 79 80 93 100 99 85 91 78 65 57 47 51 54 54 53 53 56 64 73 79 81 83 82 82
21 18 21 53 62 62 71 71 65 62 66 68 66 64 66 59 64 78 85 86 90 80 82 80 73 78 78 72 69 52 51 62 55 56 57 64 67 72 80 82 84 85 79
28 22 17 53 61 68 68 70 67 62 55 58 63 70 66 62 65 76 85 86 83 88 73 77 74 73 72 60 74 66 68 68 64 58 60 66 73 73 81 84 83 84 80
28 23 18 52 55 66 71 68 70 68 69 69 71 72 71 70 70 74 78 83 78 83 77 60 56 60 64 62 73 78 87 70 64 55 57 62 68 73 79 82 84 80 78
28 25 29 51 51 58 75 77 75 73 66 66 71 71 70 72 75 80 82 81 88 86 85 84 70 65 65 57 54 70 80 75 58 49 49 54 60 69 77 79 80 79 77
33 25 41 52 53 59 71 84 78 72 66 67 72 72 73 79 83 82 84 84 80 89 85 86 80 72 76 65 62 78 76 69 70 60 58 50 56 67 70 75 78 76 77
49 56 59 59 64 65 75 82 79 77 75 74 76 81 78 77 76 84 88 97 98 94 92 87 85 82 80 73 60 74 82 83 76 79 69 62 60 60 66 74 73 78 79
83 63 59 60 68 72 89 90 90 90 89 84 82 88 86 82 81 80 83 92 99 97 98 90 90 89 78 77 80 67 82 81 81 84 82 72 64 68 69 76 74 70 68

GFSSE_850_rhum_105.txt.gz
RH
71 71 68 66 66 73 67 60 59 68 74 75 77 78 75 74 68 60 61 38 22 52 83 76 41 82 91 89 83 57 67 86 80 59 72 77 73 80 86 84 88 92 93
78 70 80 65 68 70 75 70 66 62 62 62 65 68 71 69 68 58 61 34 23 41 75 76 72 66 78 66 46 30 51 68 66 60 67 81 82 86 81 84 87 77 65
81 72 82 63 62 65 69 72 68 68 66 63 61 60 62 63 61 57 59 31 24 35 74 75 89 82 50 24 26 28 48 49 40 40 48 45 49 46 46 46 44 42 34
83 81 76 64 59 61 66 72 67 68 65 60 60 60 60 59 60 66 55 36 40 74 81 77 78 75 28 25 28 30 38 40 37 34 32 31 31 30 29 28 28 28 29
80 80 71 65 60 64 68 68 63 60 62 67 61 56 79 70 65 73 61 51 76 88 92 77 68 60 26 28 29 30 30 30 30 29 29 29 29 29 29 30 30 30 31
82 74 73 63 57 66 72 69 62 58 63 68 62 60 73 73 72 79 71 64 85 87 92 78 72 45 28 32 32 34 32 31 30 31 31 31 31 32 33 32 34 36 36
78 72 70 64 61 58 60 62 61 61 63 64 65 70 72 75 78 80 81 69 77 87 86 85 72 35 28 35 37 37 36 33 33 32 32 33 35 36 34 36 40 41 41
91 80 72 62 56 60 61 58 58 60 62 61 65 66 68 71 74 79 81 69 72 84 89 84 67 35 29 35 38 37 36 34 33 33 34 36 38 38 38 41 44 47 46
84 91 88 77 58 55 56 56 55 54 56 59 58 61 60 67 72 76 83 79 78 87 84 80 49 37 31 36 36 36 39 36 33 34 35 38 39 39 39 42 47 50 49
77 78 90 86 83 70 62 63 64 60 54 47 56 60 58 66 74 76 85 84 83 87 84 79 45 39 33 35 38 37 37 39 38 35 37 39 40 38 39 42 48 52 52
80 79 76 82 88 87 77 73 73 67 54 41 41 55 65 68 77 76 76 88 85 88 82 77 63 42 36 38 40 39 36 37 42 41 38 38 40 40 41 43 48 53 55
79 84 83 78 86 87 90 88 80 70 53 47 65 62 58 70 66 75 72 88 84 88 85 76 70 48 42 38 40 43 38 35 36 41 43 40 41 42 43 45 50 56 57
46 64 80 80 78 77 85 93 93 76 61 51 59 56 51 65 63 71 77 93 94 91 87 74 69 50 42 34 37 42 42 38 36 36 42 46 46 46 47 50 53 60 62
39 43 60 76 76 75 69 71 80 80 61 55 56 67 66 67 64 71 74 88 95 89 85 82 62 46 38 33 35 43 44 42 40 41 40 42 47 50 49 51 55 62 65
35 37 37 64 72 74 72 72 74 85 74 75 70 59 59 71 73 76 78 80 96 95 92 93 80 45 37 34 33 38 40 42 43 43 45 44 48 52 57 54 56 62 67
27 32 32 35 67 71 78 76 78 89 90 83 78 78 69 62 63 67 75 82 88 96 99 99 85 61 48 37 34 39 40 41 44 45 49 49 48 57 62 62 60 65 70
10 26 30 26 40 69 72 80 87 90 73 77 73 72 68 68 70 65 63 63 68 92 99 100 89 80 90 57 46 45 42 42 43 45 50 53 53 52 68 70 69 73 68
18 14 27 27 26 60 74 78 83 82 73 58 59 77 72 71 70 67 68 68 68 71 91 99 95 97 100 81 63 54 47 47 46 47 52 54 56 52 64 73 74 76 73
23 18 19 25 23 53 64 79 78 82 77 78 79 76 74 74 73 73 74 73 73 78 83 96 92 95 99 86 86 74 56 52 53 60 58 56 57 59 69 73 78 80 77
28 24 20 22 23 46 62 75 75 71 73 76 76 83 78 76 74 75 72 73 82 86 91 89 93 96 100 86 79 82 72 60 52 57 56 56 56 59 59 72 80 81 84
35 34 30 21 22 50 66 67 75 72 69 67 68 73 72 65 68 72 71 76 80 88 91 89 83 82 85 83 78 70 68 63 52 52 60 54 54 57 64 70 81 84 84
31 32 31 28 28 47 66 60 62 66 65 66 66 67 65 67 66 73 76 84 87 87 91 92 86 80 96 86 84 71 86 57 49 55 60 56 55 57 61 72 75 83 84
31 29 29 28 48 56 73 64 71 75 73 64 64 68 72 74 78 84 84 86 84 80 85 81 83 79 78 77 76 86 74 74 71 58 46 47 46 50 52 63 73 80 82
33 34 29 27 28 54 69 58 61 78 78 71 68 66 69 70 74 80 88 94 94 89 93 92 88 85 89 88 73 73 75 79 70 62 54 44 39 39 40 51 69 73 75
70 58 50 55 39 57 56 57 74 88 83 76 74 77 79 76 77 82 84 79 86 91 89 89 94 94 90 95 96 90 69 72 78 78 70 60 55 49 45 55 61 73 69
80 69 96 94 58 64 72 79 97 99 98 91 86 84 81 84 87 85 82 84 86 80 87 88 87 96 97 99 95 96 97 90 77 86 84 72 72 66 60 57 69 69 65

GFSSE_850_rhum_108.txt.gz
RH
95 100 99 94 66 65 61 60 68 76 79 78 78 78 79 77 71 59 58 36 22 62 75 31 68 85 90 90 59 58 87 84 46 76 69 59 71 81 83 87 97 96 85
98 100 94 91 78 71 62 57 58 70 74 74 76 78 76 76 70 63 58 32 30 77 84 50 79 90 94 85 44 57 78 66 51 64 82 81 86 84 80 89 87 67 46
98 99 94 85 76 73 73 66 62 58 59 60 64 74 78 71 68 59 58 30 38 73 77 72 63 64 58 40 28 44 54 45 54 64 62 92 73 65 64 58 44 36 31
93 97 99 78 72 73 72 76 69 65 63 62 56 59 87 64 63 57 58 30 34 69 72 81 78 60 23 25 27 41 42 39 36 41 82 85 81 35 34 32 29 29 29
94 96 97 85 72 72 68 69 70 66 67 63 61 59 63 68 65 65 59 36 38 86 81 75 79 52 23 27 29 33 35 33 32 38 50 67 83 29 29 29 30 31 31
95 97 92 79 74 74 72 72 73 69 61 63 67 63 71 80 70 72 64 54 71 91 91 78 72 53 26 28 28 29 29 29 30 36 35 30 70 31 32 33 35 36 35
93 93 94 80 78 74 72 77 76 70 64 66 72 73 71 76 77 76 84 67 86 90 93 83 78 53 30 32 32 33 31 30 32 32 42 36 37 34 33 36 39 40 39
86 96 94 78 73 76 75 76 74 69 67 70 71 68 70 73 74 80 85 75 78 84 92 87 78 45 31 38 38 38 35 32 32 34 37 63 36 36 37 40 43 44 43
85 89 97 96 84 64 65 64 64 66 66 66 69 70 70 74 74 77 78 79 74 77 89 86 72 49 32 40 43 41 38 35 36 35 37 64 39 37 40 44 46 48 47
84 83 86 94 92 97 87 57 57 56 56 56 62 64 67 71 75 77 76 80 80 80 86 85 76 46 33 40 42 43 46 39 53 33 33 54 40 39 40 43 47 50 50
82 83 82 88 88 97 98 88 63 64 64 60 54 49 61 69 91 86 80 83 85 86 91 88 79 47 38 37 42 45 44 60 72 54 57 33 35 38 42 44 49 53 53
62 73 81 84 81 88 94 89 78 79 76 68 55 50 57 97 95 95 94 83 90 87 92 89 79 70 45 41 41 46 44 78 79 72 65 38 38 38 41 44 49 54 56
47 58 61 74 83 82 85 89 94 92 81 68 84 93 96 99 99 94 95 82 88 94 93 93 85 80 53 80 77 66 63 83 78 61 51 46 44 44 44 45 48 54 57
25 45 50 57 74 80 84 80 82 94 90 72 60 85 68 94 95 98 98 91 85 92 95 96 99 94 87 66 72 67 76 66 75 72 58 42 48 49 47 48 51 56 61
11 25 43 43 56 73 78 77 78 78 86 80 64 65 81 74 86 92 79 84 86 87 93 97 99 100 89 54 42 61 72 67 72 72 66 44 43 49 53 54 53 58 64
19 11 24 37 43 57 70 77 75 78 80 86 78 80 75 73 75 74 77 79 81 86 91 92 93 94 90 67 63 48 52 49 53 67 58 62 49 46 53 60 67 72 68
35 27 10 20 32 42 59 68 75 79 86 88 88 77 88 87 69 68 66 72 67 68 83 91 94 98 99 87 68 66 64 61 49 48 47 48 57 54 51 60 65 67 68
38 38 29 16 21 28 43 59 68 80 89 89 69 66 75 78 74 75 74 66 67 81 74 88 96 97 99 89 86 72 49 64 50 68 65 48 49 59 57 53 66 71 74
43 43 41 22 17 24 29 48 65 76 92 77 61 59 56 66 83 82 82 77 94 88 80 81 84 89 94 89 94 76 78 67 56 67 68 65 54 52 56 58 59 71 77
50 50 40 32 36 22 28 38 62 68 81 89 80 65 57 58 63 86 80 80 80 74 76 84 89 87 92 86 92 96 78 65 86 77 68 68 73 68 54 59 64 71 75
47 42 36 34 27 26 29 31 61 73 72 73 75 83 80 75 75 72 85 77 67 75 90 88 96 100 94 91 100 98 90 69 65 85 67 56 55 62 75 58 59 62 76
43 38 35 34 32 27 35 30 68 66 64 69 73 76 79 76 78 72 73 71 73 81 99 94 97 98 98 96 95 98 94 84 71 59 63 56 46 41 48 59 57 59 69
61 34 32 31 31 28 39 54 94 95 72 71 74 74 73 75 76 76 73 79 75 88 82 93 94 97 100 98 94 98 98 89 72 64 54 49 45 40 37 51 54 49 59
73 43 34 31 32 31 67 65 95 96 82 76 77 83 79 81 83 85 86 87 84 92 93 90 90 89 90 92 97 87 92 78 73 69 62 67 45 50 50 50 49 50 49
87 88 97 80 70 72 50 77 91 95 84 79 74 74 84 91 87 83 82 85 93 92 86 91 91 89 93 90 95 90 74 76 74 80 86 77 61 55 56 51 51 50 57
99 89 99 93 99 96 63 89 83 89 75 70 90 100 98 96 97 98 96 90 94 95 93 95 92 97 96 92 99 100 100 96 78 80 84 78 85 80 76 67 56 49 55

GFSSE_850_rhum_111.txt.gz
RH
93 97 97 92 75 71 71 69 71 75 78 77 79 77 75 70 67 56 55 36 26 59 48 30 69 84 89 62 44 83 59 58 76 62 45 49 61 75 78 89 99 88 48
97 98 95 90 73 70 67 63 68 74 76 77 75 77 80 78 72 66 56 35 40 80 55 49 84 88 90 56 41 81 74 45 63 75 73 85 86 90 96 93 93 59 38
99 97 97 87 77 72 63 58 58 66 72 72 74 75 78 78 72 67 58 36 50 86 72 56 80 87 86 40 34 67 51 43 61 78 87 96 81 78 79 60 43 35 30
98 98 97 87 83 76 74 69 63 61 63 64 66 69 75 80 64 62 60 36 46 78 73 77 73 68 42 24 32 46 36 38 50 57 78 80 90 41 40 35 30 30 30
99 99 94 95 81 78 77 78 79 68 66 66 64 64 76 85 65 61 62 38 36 71 81 83 78 52 24 26 32 42 37 33 34 60 78 82 86 29 29 29 30 31 31
99 99 96 88 84 76 78 73 72 74 70 69 67 66 63 78 75 65 68 44 35 78 84 71 78 48 25 29 31 35 34 31 31 75 78 53 79 30 31 32 36 36 35
97 98 99 80 76 77 76 77 79 77 74 73 77 81 71 73 77 74 77 58 58 83 90 80 76 52 26 29 30 30 30 31 62 73 75 73 37 33 32 36 38 39 38
87 98 98 89 76 76 82 77 81 79 74 70 72 77 74 72 75 78 80 81 72 88 90 92 81 59 29 31 32 34 33 33 54 76 80 87 36 33 34 38 41 43 41
83 91 98 98 95 71 70 76 79 76 71 66 68 70 70 76 77 77 81 84 81 77 83 92 85 66 34 33 36 37 35 35 65 73 79 90 37 34 34 37 42 46 45
77 82 88 97 98 100 98 67 66 66 67 66 65 65 67 66 71 76 77 81 82 77 80 92 89 68 42 35 39 37 37 38 40 73 73 81 48 37 35 37 40 45 48
63 74 78 78 88 97 96 95 85 60 58 60 62 60 60 66 88 75 72 73 77 79 82 89 92 84 51 37 44 40 40 40 61 72 75 63 44 40 40 41 44 48 49
39 54 65 74 76 77 89 98 99 93 81 70 69 72 64 78 88 81 86 83 75 80 86 93 97 88 64 43 42 42 40 51 76 72 74 57 38 39 41 46 48 52 55
26 33 47 58 67 74 71 88 100 98 98 99 92 91 91 87 87 88 88 92 83 86 88 94 99 93 81 68 81 48 42 56 76 76 76 59 41 40 39 43 48 53 57
25 25 24 42 52 59 72 75 88 99 96 93 83 85 92 93 91 88 91 86 85 82 87 91 93 95 96 76 74 74 76 80 79 74 74 62 47 46 45 42 42 48 56
28 26 26 22 38 50 53 71 77 75 86 97 96 81 89 91 93 96 92 91 92 85 85 89 92 92 98 91 83 75 70 70 72 71 73 68 49 44 49 51 54 47 48
34 32 31 28 22 36 43 52 69 74 75 86 94 85 65 80 86 86 87 91 83 84 83 97 94 94 95 93 85 81 69 68 70 67 68 70 58 46 45 50 56 79 68
30 32 34 33 31 30 37 42 75 68 73 84 77 83 69 74 72 81 75 83 88 87 91 96 100 99 94 97 87 71 62 64 66 67 67 69 70 56 48 46 51 60 63
37 36 32 33 34 32 29 39 66 88 70 88 89 84 83 78 77 81 90 92 86 87 84 80 86 93 92 96 96 82 59 62 61 58 60 64 66 64 56 48 45 49 65
45 43 41 40 40 40 35 35 49 91 88 93 90 77 73 77 72 72 83 89 93 92 91 92 86 86 92 88 89 95 87 59 50 49 47 63 65 60 65 62 49 49 50
55 53 50 48 44 43 40 37 51 77 91 99 99 77 63 60 58 68 72 71 91 91 93 87 87 83 90 100 96 92 91 96 84 69 68 63 64 68 66 54 58 48 51
75 58 56 56 51 49 44 45 60 85 100 100 98 86 66 56 61 66 60 54 56 74 71 79 96 99 96 99 97 99 96 93 100 82 53 69 66 63 68 73 56 47 49
89 83 71 58 54 51 52 42 63 86 94 99 99 94 84 75 64 62 60 55 52 86 71 75 90 99 99 94 100 98 100 94 95 85 76 70 67 65 59 62 53 43 39
97 98 96 81 57 53 52 34 74 41 94 99 99 89 74 79 82 83 78 74 81 87 94 86 79 93 98 98 94 100 93 87 78 75 73 71 68 64 66 51 46 43 37
96 99 98 95 81 61 50 35 74 79 92 92 94 96 93 79 78 94 93 93 92 90 92 96 94 90 96 97 100 99 89 83 82 73 69 72 70 66 57 51 51 46 39
100 98 99 87 76 76 71 81 80 88 97 86 95 98 99 99 100 99 100 97 94 89 98 96 93 93 90 90 90 92 94 93 89 92 88 78 74 69 68 68 64 46 40
98 99 98 94 94 79 70 81 79 99 91 94 95 99 94 88 96 99 98 98 100 100 99 99 98 96 98 94 97 99 100 99 97 98 97 87 81 73 71 63 60 50 54

GFSSE_850_rhum_114.txt.gz
RH
82 88 90 93 71 71 78 79 77 75 74 77 77 74 74 67 66 58 51 40 26 52 33 44 79 87 77 33 60 41 59 76 66 37 40 59 60 50 64 98 94 51 32
95 90 91 90 76 69 72 75 72 74 75 78 77 76 74 73 72 65 55 41 36 69 34 68 86 88 89 45 74 83 43 55 62 69 85 85 92 93 96 95 73 41 32
94 88 85 84 80 69 66 62 68 73 76 78 79 80 80 74 70 66 58 42 43 77 59 69 88 84 90 39 56 71 42 60 77 81 86 79 80 81 72 47 36 31 29
96 91 86 85 91 76 71 63 61 64 65 72 72 74 74 78 70 64 57 47 45 84 83 61 82 77 50 27 40 56 46 60 62 80 78 82 44 40 38 33 29 29 29
93 97 91 92 87 80 79 78 76 69 68 68 69 71 71 79 81 66 60 51 35 80 82 79 70 60 26 25 34 39 36 46 57 75 80 80 41 29 29 29 30 31 31
94 89 92 93 94 78 79 78 78 76 72 69 71 67 70 71 80 72 63 58 33 53 78 79 82 57 24 26 31 34 36 36 50 77 74 76 52 30 29 30 34 35 34
96 96 96 96 80 82 77 79 79 78 75 72 67 68 72 68 78 77 70 67 42 41 82 83 72 58 24 28 31 32 30 30 53 63 72 60 58 32 30 33 36 37 37
85 89 93 94 88 76 76 78 77 82 79 72 66 67 72 70 71 79 79 80 65 65 88 92 80 74 35 27 30 31 31 30 43 69 80 63 63 35 33 36 38 40 40
72 86 89 89 88 90 75 71 75 78 78 74 66 65 65 62 66 72 76 82 85 78 87 88 93 86 54 29 31 35 35 34 46 65 63 58 52 37 36 38 42 44 43
57 68 78 93 96 90 95 95 83 67 68 69 67 66 63 62 59 61 68 72 77 80 79 82 91 91 69 33 33 38 38 37 44 70 69 72 60 37 34 36 42 47 47
35 52 65 70 76 87 94 88 87 96 70 59 59 60 60 57 55 56 56 60 65 70 77 79 89 96 84 48 34 41 40 40 42 64 58 66 62 41 34 33 36 43 47
21 26 39 60 67 70 75 87 82 88 94 66 62 61 62 59 54 57 83 84 79 69 74 82 88 96 91 69 37 40 39 42 49 74 69 73 66 42 37 36 36 38 43
22 21 23 29 51 62 67 68 78 90 94 96 94 88 87 78 82 76 84 85 89 82 75 84 93 98 94 82 52 37 38 42 60 79 76 74 63 43 40 39 40 43 45
28 24 19 14 18 33 54 62 68 77 98 92 91 88 91 92 89 87 83 82 79 80 77 79 89 91 90 84 68 53 49 43 59 79 76 74 68 51 42 41 43 45 48
35 35 34 31 25 17 25 47 56 68 77 93 97 90 88 90 90 86 88 88 92 88 81 77 86 88 90 89 81 70 77 71 72 80 77 75 70 55 46 45 45 45 46
34 33 31 34 34 32 26 23 41 48 66 89 85 89 91 81 87 81 82 85 88 92 84 74 78 87 90 94 98 77 77 72 71 70 72 72 68 59 47 40 42 47 50
37 37 37 36 32 33 33 29 27 40 56 86 92 80 75 78 78 83 77 79 88 85 78 77 85 89 95 96 94 88 81 76 69 70 70 68 68 59 50 46 42 42 49
64 49 30 32 37 34 32 36 29 32 42 48 89 95 75 70 80 69 70 69 77 84 84 84 93 98 97 97 98 93 92 71 66 65 60 64 66 58 43 40 43 43 45
73 76 61 34 33 38 37 38 39 31 44 56 63 96 98 73 78 80 74 73 73 84 87 82 88 83 80 84 86 84 87 90 72 59 59 60 61 63 62 60 50 42 44
79 72 83 83 61 43 42 42 42 36 39 72 61 83 93 78 73 79 82 77 79 75 82 80 82 83 82 82 88 88 92 100 99 75 58 52 53 62 65 63 61 46 44
74 76 68 86 88 66 54 51 48 42 35 64 70 82 93 86 75 77 70 71 74 73 64 68 56 80 85 89 94 95 91 96 100 98 88 80 66 60 61 63 60 60 47
81 79 84 76 80 80 59 52 51 46 48 63 62 86 83 97 74 68 60 60 61 60 56 57 58 67 75 93 99 100 100 92 86 91 87 87 90 80 66 66 66 65 49
81 87 93 98 70 64 74 55 52 43 46 41 51 52 81 88 86 62 65 58 60 65 68 60 68 81 78 80 93 98 99 93 82 78 75 72 72 73 74 70 64 70 64
93 95 98 97 93 83 86 72 60 63 51 53 51 56 64 79 84 90 93 78 81 81 78 79 77 84 82 93 92 97 97 91 92 81 74 74 73 72 67 66 70 69 62
98 94 95 92 95 93 70 74 77 73 79 89 96 98 100 97 97 99 99 99 100 100 99 90 95 99 100 96 93 85 93 94 96 96 99 81 76 73 73 73 71 67 62
99 96 94 89 94 88 96 69 65 66 69 89 79 87 98 100 100 91 100 98 98 98 99 98 98 99 98 97 96 95 99 100 98 98 100 99 93 83 82 80 75 79 72

GFSSE_850_rhum_117.txt.gz
RH
80 87 89 92 69 73 76 76 78 78 76 80 78 75 75 66 66 59 50 37 30 46 25 59 82 84 34 37 43 68 79 70 34 34 40 54 40 57 86 83 66 32 30
94 91 89 88 78 68 72 74 74 74 76 79 76 79 77 75 73 67 56 40 47 54 32 70 84 91 62 51 75 53 64 64 64 77 82 84 90 99 98 81 44 32 29
90 89 87 84 80 70 69 69 67 72 77 78 79 80 79 75 71 66 60 44 48 69 42 76 90 85 73 34 66 47 54 78 86 89 83 84 86 83 57 38 30 28 28
89 92 82 90 89 71 67 62 61 65 67 70 72 74 76 80 80 68 61 52 43 82 67 73 87 80 57 29 46 41 60 72 83 85 86 73 51 38 34 28 27 28 29
87 84 90 94 91 86 78 75 69 66 66 66 68 70 69 75 82 74 65 58 37 78 78 72 78 70 36 26 36 36 49 61 80 81 79 72 58 31 28 27 28 30 30
93 86 82 90 92 90 78 82 81 80 77 71 89 84 67 68 72 79 68 64 40 53 76 76 77 60 25 26 33 35 36 44 52 70 80 73 52 33 31 32 34 34 33
97 87 81 91 90 86 81 76 76 74 75 75 74 69 64 67 67 76 74 66 54 37 61 85 76 69 30 26 29 35 37 38 47 51 50 41 44 36 32 36 39 39 37
90 89 82 84 89 83 81 80 77 74 75 76 74 71 70 72 71 68 74 71 69 48 57 91 83 76 53 27 28 31 32 33 50 59 64 45 41 35 32 34 37 40 40
61 87 84 85 82 86 85 72 72 77 76 73 70 66 64 65 65 66 69 73 74 72 71 88 93 84 80 34 28 30 31 32 43 55 57 60 58 43 33 34 36 40 41
30 43 69 86 92 95 88 91 83 72 69 74 71 67 62 61 60 60 62 65 68 76 78 75 82 93 88 65 30 32 35 35 38 54 58 66 66 63 38 35 35 38 41
20 23 28 49 69 82 92 91 89 86 86 81 66 62 62 61 60 58 57 56 63 65 72 76 78 82 92 77 45 32 37 37 38 51 57 62 59 59 44 36 37 40 42
18 20 22 23 29 55 67 75 89 88 84 90 87 66 59 59 60 59 58 62 80 75 69 72 77 81 94 85 67 35 35 38 40 45 57 56 56 57 40 36 36 38 42
32 26 21 19 19 19 33 56 67 78 88 80 92 89 87 84 82 69 57 69 85 85 85 78 79 82 86 89 81 54 35 41 42 47 60 74 62 59 47 39 38 39 41
32 32 33 34 32 26 19 16 40 59 73 92 90 93 90 85 84 86 81 80 83 76 80 79 80 77 81 87 89 79 48 39 44 55 67 78 70 68 58 38 38 38 40
34 35 33 31 31 33 34 28 16 22 50 67 87 91 97 95 94 88 85 85 85 83 84 80 80 78 81 85 92 89 71 55 62 52 74 79 76 69 63 46 39 40 40
35 34 32 30 32 32 31 32 32 26 19 39 59 82 88 88 87 84 88 86 82 83 83 88 82 79 79 85 90 92 84 67 76 71 68 78 78 75 64 54 44 39 39
50 48 38 34 25 34 36 33 33 34 31 27 37 51 82 89 92 89 86 84 75 82 87 87 87 80 84 92 94 91 85 78 80 74 76 71 70 69 65 57 48 43 40
58 57 57 54 39 26 26 34 34 34 37 31 35 40 59 87 84 86 83 83 78 84 88 94 82 84 87 90 94 95 88 85 78 75 70 71 71 69 64 66 56 50 47
67 67 60 56 55 54 38 31 30 34 38 38 33 52 66 65 78 74 83 80 78 75 72 77 82 87 94 96 97 100 100 98 91 92 77 68 69 69 66 61 55 54 51
69 67 68 65 62 65 59 50 39 35 38 38 33 36 65 67 77 80 76 82 79 76 74 77 83 82 81 80 87 88 88 86 92 90 86 68 65 62 61 59 60 57 55
72 74 77 66 58 67 75 72 48 49 46 40 35 37 61 76 71 85 78 78 80 80 79 86 78 72 64 71 82 80 86 84 86 86 91 92 79 61 59 58 58 60 60
76 76 78 74 73 79 82 72 72 56 52 51 43 30 30 48 79 84 80 78 79 86 84 79 68 64 62 60 66 72 77 90 90 84 82 80 78 78 76 79 68 63 64
80 80 82 82 80 79 81 70 66 76 55 55 59 46 38 38 48 82 83 88 84 85 90 82 65 58 57 65 78 77 96 94 81 80 74 75 73 71 68 73 88 81 70
82 85 79 83 83 85 85 73 68 71 74 75 80 76 73 54 52 78 95 94 86 81 75 68 72 78 83 79 87 86 84 88 83 85 83 78 73 74 71 70 68 70 78
88 91 86 83 91 78 76 94 74 72 73 76 77 74 79 91 86 98 96 90 99 89 91 90 81 88 95 94 91 97 92 93 95 98 99 96 86 83 78 75 73 71 70
86 98 89 86 98 90 100 94 85 84 82 76 77 82 82 94 90 81 85 99 92 99 99 98 92 93 95 97 97 99 99 99 98 95 95 96 95 86 79 82 83 85 85

GFSSE_850_rhum_120.txt.gz
RH
84 86 87 90 80 85 80 76 78 76 77 80 77 76 76 65 67 60 50 35 38 36 33 72 86 38 32 37 50 74 81 54 35 34 35 36 41 67 64 74 36 30 43
87 87 82 87 83 72 80 76 74 76 78 78 74 78 78 76 73 66 55 39 53 36 58 81 90 82 38 58 50 64 63 44 61 81 85 77 78 87 90 49 31 28 29
85 84 79 89 83 74 75 76 72 72 77 78 78 78 78 79 73 68 59 45 55 51 60 84 88 88 70 42 63 36 48 64 86 86 89 99 98 89 48 32 27 26 27
85 86 84 94 90 72 71 66 64 68 71 72 75 74 79 77 78 71 61 52 45 72 51 80 90 84 65 33 49 40 66 76 79 78 72 71 60 49 38 29 27 28 27
89 81 84 91 95 90 77 72 66 63 64 67 71 73 75 75 80 80 62 58 43 70 82 66 86 76 46 26 42 42 65 71 59 52 57 54 50 33 29 29 30 32 30
91 88 82 87 91 96 88 81 79 78 77 71 72 93 86 74 75 75 69 61 54 40 76 79 77 68 37 25 36 35 54 64 70 59 46 44 42 30 28 28 32 33 34
96 91 82 86 89 83 88 81 82 78 74 75 73 75 74 65 67 66 76 67 64 43 49 77 80 80 53 25 31 36 37 46 54 48 53 52 46 37 30 29 32 34 34
89 87 83 82 85 86 80 77 77 77 76 76 76 71 69 66 73 70 68 75 71 60 40 62 81 74 72 31 28 35 36 38 41 45 40 42 46 44 34 32 34 36 37
36 66 78 82 85 82 88 91 80 71 72 72 76 75 69 64 65 69 69 69 73 75 57 58 83 82 76 61 28 31 34 34 38 46 46 44 46 46 38 35 36 38 38
22 26 35 62 86 88 93 93 94 89 84 69 69 69 69 67 62 61 62 65 70 72 79 76 82 89 87 82 49 30 32 33 34 45 46 47 50 45 37 36 34 35 40
16 19 20 23 31 62 83 92 95 93 93 89 87 80 64 63 62 62 60 59 60 65 72 80 80 81 84 90 75 40 33 36 36 42 45 54 58 56 48 36 34 34 35
22 21 20 18 16 17 28 53 69 84 93 94 90 92 91 64 58 60 62 60 59 59 62 67 77 78 80 86 89 68 36 37 41 39 44 54 51 56 53 41 35 34 35
32 31 30 27 25 22 18 14 20 48 65 83 92 88 90 91 80 72 71 69 60 61 71 80 75 79 78 77 89 84 60 36 41 41 44 47 52 57 52 46 37 35 34
30 29 29 29 28 27 26 25 23 14 21 50 66 96 89 89 93 90 86 82 70 67 77 81 81 77 78 78 85 89 82 54 39 44 44 51 59 69 62 54 42 38 38
34 34 33 30 27 25 25 24 23 26 26 18 26 57 97 98 92 96 89 82 82 81 80 80 79 76 76 79 84 89 90 81 52 41 46 59 62 70 75 66 54 41 39
41 42 41 40 35 29 22 23 26 27 27 30 27 20 44 79 91 91 93 97 82 85 84 81 83 88 79 78 79 87 88 87 82 52 52 60 66 69 79 72 63 49 41
52 51 48 44 39 36 33 28 20 19 25 28 29 29 22 36 57 88 89 84 92 97 92 88 84 82 87 86 86 86 92 94 92 72 68 65 74 76 79 76 69 58 51
49 46 49 50 47 43 41 39 38 31 21 22 26 31 31 28 34 59 90 88 87 92 91 88 83 80 82 86 78 78 87 93 99 84 81 78 80 79 74 72 69 66 56
55 57 53 52 49 43 39 43 47 48 38 26 31 32 35 34 39 57 62 82 88 88 88 89 86 86 84 83 80 84 91 99 100 100 90 81 77 78 77 71 70 68 66
61 62 64 62 52 44 40 41 47 57 53 38 41 42 41 35 34 68 81 71 85 88 87 86 86 84 82 79 85 97 94 90 87 93 99 96 91 76 74 73 70 67 63
73 72 71 68 62 65 67 60 52 50 44 40 44 46 47 44 50 50 69 76 74 91 87 84 83 83 84 84 90 81 75 76 85 81 80 85 89 90 83 68 65 63 62
78 76 79 78 78 76 67 68 76 64 61 68 59 51 55 45 36 32 32 49 72 89 87 83 84 87 85 83 71 67 79 76 74 74 83 86 85 82 89 85 70 63 61
81 84 84 79 83 84 65 68 60 54 63 66 67 66 59 58 53 49 35 35 55 90 96 96 92 86 87 77 71 69 88 81 75 73 69 65 69 71 79 85 83 82 82
81 87 82 80 81 80 79 79 77 74 80 92 84 93 85 74 80 94 81 56 66 80 97 97 99 99 88 78 83 79 88 95 91 84 76 72 70 70 73 75 80 76 74
83 88 85 80 78 78 77 73 76 82 86 88 90 85 81 83 96 100 99 80 81 78 84 97 99 99 91 80 81 85 93 99 98 99 99 90 91 84 80 80 81 79 77
80 81 77 78 75 77 85 83 78 95 96 92 91 91 90 97 99 99 98 91 98 89 83 85 92 100 100 94 92 99 95 98 98 100 100 97 90 90 93 86 88 79 78

GFSSE_850_rhum_123.txt.gz
RH
84 85 84 92 84 84 84 83 80 79 78 80 79 76 74 65 68 61 51 37 40 30 46 83 63 32 32 35 54 71 75 44 32 32 39 43 46 43 56 45 32 31 66
85 87 85 85 86 74 79 78 77 79 80 80 76 77 77 75 74 67 56 44 47 32 59 85 92 67 37 48 49 72 64 39 44 62 62 48 82 86 84 41 32 28 30
83 88 82 87 89 75 72 74 73 73 77 79 82 77 77 75 74 71 61 50 46 45 57 79 95 89 62 51 67 54 55 55 70 79 91 97 100 86 47 34 28 28 29
84 84 79 91 92 82 74 72 67 69 74 77 80 79 77 79 80 79 63 57 46 64 48 79 90 92 67 34 54 36 56 81 84 81 83 84 72 47 33 27 26 27 28
87 80 85 86 91 92 83 76 71 67 66 66 71 73 73 74 74 78 70 60 54 54 77 63 86 89 65 36 49 37 60 71 74 75 74 62 44 32 28 26 27 29 29
91 83 85 88 90 92 90 84 82 82 79 77 70 73 89 82 68 69 73 69 62 47 65 78 72 76 55 31 38 42 55 47 45 48 50 61 48 33 28 27 29 31 31
92 91 84 86 90 89 85 87 81 83 81 76 76 74 74 76 66 66 67 75 65 61 46 78 79 75 64 31 30 41 49 49 45 45 44 42 43 44 33 30 31 32 34
75 82 77 80 84 86 85 87 83 82 82 78 77 77 75 72 68 65 69 65 75 71 60 42 72 81 77 59 29 40 39 44 40 38 41 44 40 43 34 31 32 34 35
20 42 71 76 77 79 81 85 87 89 82 77 79 80 80 76 69 64 66 65 64 72 76 57 46 77 80 74 46 30 40 40 37 36 41 45 48 47 40 33 33 33 34
13 18 25 34 58 80 86 82 85 94 93 91 87 79 79 79 77 72 66 63 61 67 72 78 67 68 87 87 80 39 32 39 36 36 40 43 47 47 49 37 35 33 34
16 15 14 16 20 25 44 67 81 89 95 94 93 90 90 90 81 71 71 70 66 62 63 70 76 78 81 90 91 82 39 34 34 34 36 45 49 48 48 47 37 34 34
26 24 23 23 20 17 14 16 26 45 64 77 93 96 92 88 91 87 69 68 69 68 65 61 67 74 81 82 82 90 79 37 35 37 36 42 48 52 50 45 43 35 33
30 29 27 26 26 25 23 20 18 16 18 38 58 73 90 94 82 86 90 83 74 72 70 65 68 65 70 77 77 80 84 73 39 38 41 39 47 50 49 51 49 38 35
30 32 32 33 32 28 24 24 22 20 20 19 16 34 57 73 94 81 83 89 91 86 81 69 77 81 75 73 76 79 86 88 72 40 42 42 44 50 53 56 55 52 39
34 34 35 37 35 34 32 24 22 21 22 21 21 22 20 33 66 84 89 82 84 87 86 82 79 79 84 81 75 75 80 88 86 77 42 45 45 49 61 74 68 59 49
40 42 43 39 37 36 34 31 28 25 21 19 21 22 22 25 24 43 76 97 89 83 85 83 86 85 83 85 86 78 79 84 88 85 73 48 50 52 64 69 70 73 62
49 47 45 42 42 41 37 35 35 36 32 27 21 21 24 27 30 28 29 46 75 92 92 91 90 92 89 90 89 85 83 85 89 92 91 75 57 57 67 74 72 74 72
49 49 48 50 48 43 39 34 32 31 40 48 45 31 24 29 32 35 34 30 41 71 95 91 92 99 98 94 88 84 84 81 87 91 88 96 74 76 68 79 80 76 73
55 56 56 53 54 48 42 38 36 37 40 49 51 40 40 40 41 41 37 38 49 65 72 96 93 99 96 92 89 87 87 82 78 83 86 92 91 88 83 86 86 82 78
55 61 61 58 55 49 42 34 31 33 40 45 41 38 42 42 42 39 37 47 53 78 76 72 94 91 89 91 91 90 89 86 85 86 90 94 77 89 93 90 92 92 87
62 65 64 62 60 53 38 34 33 42 51 51 52 50 44 42 44 42 37 34 35 40 60 69 79 92 97 93 93 94 88 88 93 90 85 80 68 88 88 98 96 91 85
72 74 75 70 71 67 54 50 60 60 61 68 66 71 66 59 60 52 57 59 51 46 29 43 81 95 87 94 94 98 99 95 87 77 76 75 75 90 88 88 99 97 96
76 77 77 78 79 75 69 67 66 63 65 57 60 64 63 76 79 69 70 90 87 76 61 32 65 96 99 95 91 97 95 83 70 66 67 70 80 88 90 72 75 90 93
79 83 81 76 78 74 74 73 74 76 77 75 80 80 81 79 79 74 83 90 99 100 94 83 63 83 93 98 98 93 97 89 86 88 82 79 78 76 72 73 79 92 96
80 80 74 78 77 74 76 78 75 78 75 74 80 85 86 87 88 98 97 91 98 100 100 100 96 82 67 97 94 100 94 86 98 95 95 87 86 82 81 82 85 89 89
79 78 75 75 71 72 70 68 66 65 70 78 74 80 87 87 90 95 96 99 100 99 96 87 92 93 82 85 100 100 98 97 96 97 99 96 95 87 89 90 90 94 95